[[{"header":{"parameterUnit":"m.s-1","parameterCategory":1,"la1":30.6,"la2":28.766,"lo1":-90.7593,"lo2":-88.6598,"dy":0.0162,"dx":0.0183,"nx":116,"ny":114,"refTime":"2023-05-06T12:00:00:Z","depth":0,"parameterNumber":2,"parameterNumberName":"U-component_of_WINDS"},"data":[0.0,0.0,0.0,0.0,0.0,0.0,0.0,0.0,0.0,0.0,0.0,0.0,0.0,0.0,0.0,0.0,0.0,0.0,0.0,0.0,0.0,0.0,0.0,0.0,0.0,0.0,0.0,0.0,0.0,0.0,0.0,0.0,0.0,0.0,0.0,0.0,0.0,0.0,0.0,0.0,0.0,0.0,0.0,0.0,0.0,0.0,0.0,0.0,0.0,0.0,0.0,0.0,0.0,0.0,0.0,0.0,0.0,0.0,0.0,0.0,0.0,0.0,0.0,0.0,0.0,0.0,0.0,0.0,0.0,0.0,0.0,0.0,0.0,0.0,0.0,0.0,0.0,0.0,0.0,0.0,0.0,0.0,0.0,0.0,0.0,0.0,0.0,0.0,0.0,0.0,0.0,0.0,0.0,0.0,0.0,0.0,0.0,0.0,0.0,0.0,0.0,0.0,0.0,0.0,0.0,0.0,0.0,0.0,0.0,0.0,0.0,0.0,0.0,0.0,0.0,0.0,0.0,0.0,0.0,0.0,0.0,0.0,0.0,0.0,0.0,0.0,0.0,0.0,0.0,0.0,0.0,0.0,0.0,0.0,0.0,0.0,0.0,0.0,0.0,0.0,0.0,0.0,0.0,0.0,0.0,0.0,0.0,0.0,0.0,0.0,0.0,0.0,0.0,0.0,0.0,0.0,0.0,0.0,0.0,0.0,0.0,0.0,0.0,0.0,0.0,0.0,0.0,0.0,0.0,0.0,0.0,0.0,0.0,0.0,0.0,0.0,0.0,0.0,0.0,0.0,0.0,0.0,0.0,0.0,0.0,0.0,0.0,0.0,0.0,0.0,0.0,0.0,0.0,0.0,0.0,0.0,0.0,0.0,0.0,0.0,0.0,0.0,0.0,0.0,0.0,0.0,0.0,0.0,0.0,0.0,0.0,0.0,0.0,0.0,0.0,0.0,0.0,0.0,0.0,0.0,0.0,0.0,0.0,0.0,0.0,0.0,0.0,0.0,0.0,0.0,0.0,0.0,0.0,0.0,0.0,0.0,0.0,0.0,0.0,0.0,0.0,0.0,0.0,0.0,0.0,0.0,0.0,0.0,0.0,0.0,0.0,0.0,0.0,0.0,0.0,0.0,0.0,0.0,0.0,0.0,0.0,0.0,0.0,0.0,0.0,0.0,0.0,0.0,0.0,0.0,0.0,0.0,0.0,0.0,0.0,0.0,0.0,0.0,0.0,0.0,0.0,0.0,0.0,0.0,0.0,0.0,0.0,0.0,0.0,0.0,0.0,0.0,0.0,0.0,0.0,0.0,0.0,0.0,0.0,0.0,0.0,0.0,0.0,0.0,0.0,0.0,0.0,0.0,0.0,0.0,0.0,0.0,0.0,0.0,0.0,0.0,0.0,0.0,0.0,0.0,0.0,0.0,0.0,0.0,0.0,0.0,0.0,0.0,0.0,0.0,0.0,0.0,0.0,0.0,0.0,0.0,0.0,0.0,0.0,0.0,0.0,0.0,0.0,0.0,0.0,0.0,0.0,0.0,0.0,0.0,0.0,0.0,0.0,0.0,0.0,0.0,0.0,0.0,0.0,0.0,0.0,0.0,0.0,0.0,0.0,0.0,0.0,0.0,0.0,0.0,0.0,0.0,0.0,0.0,0.0,0.0,0.0,0.0,0.0,0.0,0.0,0.0,0.0,0.0,0.0,0.0,0.0,0.0,0.0,0.0,0.0,0.0,0.0,0.0,0.0,0.0,0.0,0.0,0.0,0.0,0.0,0.0,0.0,0.0,0.0,0.0,0.0,0.0,0.0,0.0,0.0,0.0,0.0,0.0,0.0,0.0,0.0,0.0,0.0,0.0,0.0,0.0,0.0,0.0,0.0,0.0,0.0,0.0,0.0,0.0,0.0,0.0,0.0,0.0,0.0,0.0,0.0,0.0,0.0,0.0,0.0,0.0,0.0,0.0,0.0,0.0,0.0,0.0,0.0,0.0,0.0,0.0,0.0,0.0,0.0,0.0,0.0,0.0,0.0,0.0,0.0,0.0,0.0,0.0,0.0,0.0,0.0,0.0,0.0,0.0,0.0,0.0,0.0,0.0,0.0,0.0,0.0,0.0,0.0,0.0,0.0,0.0,0.0,0.0,0.0,0.0,0.0,0.0,0.0,0.0,0.0,0.0,0.0,0.0,0.0,0.0,0.0,0.0,0.0,0.0,0.0,0.0,0.0,0.0,0.0,0.0,0.0,0.0,0.0,0.0,0.0,0.0,0.0,0.0,0.0,0.0,0.0,0.0,0.0,0.0,0.0,0.0,0.0,0.0,0.0,0.0,0.0,0.0,0.0,0.0,0.0,0.0,0.0,0.0,0.0,0.0,0.0,0.0,0.0,0.0,0.0,0.0,0.0,0.0,0.0,0.0,0.0,0.0,0.0,0.0,0.0,0.0,0.0,0.0,0.0,0.0,0.0,0.0,0.0,0.0,0.0,0.0,0.0,0.0,0.0,0.0,0.0,0.0,0.0,0.0,0.0,0.0,0.0,0.0,0.0,0.0,0.0,0.0,0.0,0.0,0.0,0.0,0.0,0.0,0.0,0.0,0.0,0.0,0.0,0.0,0.0,0.0,0.0,0.0,0.0,0.0,0.0,0.0,0.0,0.0,0.0,0.0,0.0,0.0,0.0,0.0,0.0,0.0,0.0,0.0,0.0,0.0,0.0,0.0,0.0,0.0,0.0,0.0,0.0,0.0,0.0,0.0,0.0,0.0,0.0,0.0,0.0,0.0,0.0,0.0,0.0,0.0,0.0,0.0,0.0,0.0,0.0,0.0,0.0,0.0,0.0,0.0,0.0,0.0,0.0,0.0,0.0,0.0,0.0,0.0,0.0,0.0,0.0,0.0,0.0,0.0,0.0,0.0,0.0,0.0,0.0,0.0,0.0,0.0,0.0,0.0,0.0,0.0,0.0,0.0,0.0,0.0,0.0,0.0,0.0,0.0,0.0,0.0,0.0,0.0,0.0,0.0,0.0,0.0,0.0,0.0,0.0,0.0,0.0,0.0,0.0,0.0,0.0,0.0,0.0,0.0,0.0,0.0,0.0,0.0,0.0,0.0,0.0,0.0,0.0,0.0,0.0,0.0,0.0,0.0,0.0,0.0,0.0,0.0,0.0,0.0,0.0,0.0,0.0,0.0,0.0,0.0,0.0,0.0,0.0,0.0,0.0,0.0,0.0,0.0,0.0,0.0,0.0,0.0,0.0,0.0,0.0,0.0,0.0,0.0,0.0,0.0,0.0,0.0,0.0,0.0,0.0,0.0,0.0,0.0,0.0,0.0,0.0,0.0,0.0,0.0,0.0,0.0,0.0,0.0,0.0,0.0,0.0,0.0,0.0,0.0,0.0,0.0,0.0,0.0,0.0,0.0,0.0,0.0,0.0,0.0,0.0,0.0,0.0,0.0,0.0,0.0,0.0,0.0,0.0,0.0,0.0,0.0,0.0,0.0,0.0,0.0,0.0,0.0,0.0,0.0,0.0,0.0,0.0,0.0,0.0,0.0,0.0,0.0,0.0,0.0,0.0,0.0,0.0,0.0,0.0,0.0,0.0,0.0,0.0,0.0,0.0,0.0,0.0,0.0,0.0,0.0,0.0,0.0,0.0,0.0,0.0,0.0,0.0,0.0,0.0,0.0,0.0,0.0,0.0,0.0,0.0,0.0,0.0,0.0,0.0,0.0,0.0,0.0,0.0,0.0,0.0,0.0,0.0,0.0,0.0,0.0,0.0,0.0,0.0,0.0,0.0,0.0,0.0,0.0,0.0,0.0,0.0,0.0,0.0,0.0,0.0,0.0,0.0,0.0,0.0,0.0,0.0,0.0,0.0,0.0,0.0,0.0,0.0,0.0,0.0,0.0,0.0,0.0,0.0,0.0,0.0,0.0,0.0,0.0,0.0,0.0,0.0,0.0,0.0,0.0,0.0,0.0,0.0,0.0,0.0,0.0,0.0,0.0,0.0,0.0,0.0,0.0,0.0,0.0,0.0,0.0,0.0,0.0,0.0,0.0,0.0,0.0,0.0,0.0,0.0,0.0,0.0,0.0,0.0,0.0,0.0,0.0,0.0,0.0,0.0,0.0,0.0,0.0,0.0,0.0,0.0,0.0,0.0,0.0,0.0,0.0,0.0,0.0,0.0,0.0,0.0,0.0,0.0,0.0,0.0,0.0,0.0,0.0,0.0,0.0,0.0,0.0,0.0,0.0,0.0,0.0,0.0,0.0,0.0,0.0,0.0,0.0,0.0,0.0,0.0,0.0,0.0,0.0,0.0,0.0,0.0,0.0,0.0,0.0,0.0,0.0,0.0,0.0,0.0,0.0,0.0,0.0,0.0,0.0,0.0,0.0,0.0,0.0,0.0,0.0,0.0,0.0,0.0,0.0,0.0,0.0,0.0,0.0,0.0,0.0,0.0,0.0,0.0,0.0,0.0,0.0,0.0,0.0,0.0,0.0,0.0,0.0,0.0,0.0,0.0,0.0,0.0,0.0,0.0,0.0,0.0,0.0,0.0,0.0,0.0,0.0,0.0,0.0,0.0,0.0,0.0,0.0,0.0,0.0,0.0,0.0,0.0,0.0,0.0,0.0,0.0,0.0,0.0,0.0,0.0,0.0,0.0,0.0,0.0,0.0,0.0,0.0,0.0,0.0,0.0,0.0,0.0,0.0,0.0,0.0,0.0,0.0,0.0,0.0,0.0,0.0,0.0,0.0,0.0,0.0,0.0,0.0,0.0,0.0,0.0,0.0,0.0,0.0,0.0,0.0,0.0,0.0,0.0,0.0,0.0,0.0,0.0,0.0,0.0,0.0,0.0,0.0,0.0,0.0,0.0,0.0,0.0,0.0,0.0,0.0,0.0,0.0,0.0,0.0,0.0,0.0,0.0,0.0,0.0,0.0,0.0,0.0,0.0,0.0,0.0,0.0,0.0,0.0,0.0,0.0,0.0,0.0,0.0,0.0,0.0,0.0,0.0,0.0,0.0,0.0,0.0,0.0,0.0,0.0,0.0,0.0,0.0,0.0,0.0,0.0,0.0,0.0,0.0,0.0,0.0,0.0,0.0,0.0,0.0,0.0,0.0,0.0,0.0,0.0,0.0,0.0,0.0,0.0,0.0,0.0,0.0,0.0,0.0,0.0,0.0,0.0,0.0,0.0,0.0,0.0,0.0,0.0,0.0,0.0,0.0,0.0,0.0,0.0,0.0,0.0,0.0,0.0,0.0,0.0,0.0,0.0,0.0,0.0,0.0,0.0,0.0,0.0,0.0,0.0,0.0,0.0,0.0,0.0,0.0,0.0,0.0,0.0,0.0,0.0,0.0,0.0,0.0,0.0,0.0,0.0,0.0,0.0,0.0,0.0,0.0,0.0,0.0,0.0,0.0,0.0,0.0,0.0,0.0,0.0,0.0,0.0,0.0,0.0,0.0,0.0,0.0,0.0,0.0,0.0,0.0,0.0,0.0,0.0,0.0,0.0,0.0,0.0,0.0,0.0,0.0,0.0,0.0,0.0,0.0,0.0,0.0,0.0,0.0,0.0,0.0,0.0,0.0,0.0,0.0,0.0,0.0,0.0,0.0,0.0,0.0,0.0,0.0,0.0,0.0,0.0,0.0,0.0,0.0,0.0,0.0,0.0,0.0,0.0,0.0,0.0,0.0,0.0,0.0,0.0,0.0,0.0,0.0,0.0,0.0,0.0,0.0,0.0,0.0,0.0,0.0,0.0,0.0,0.0,0.0,0.0,0.0,0.0,0.0,0.0,0.0,0.0,0.0,0.0,0.0,0.0,0.0,0.0,0.0,0.0,0.0,0.0,0.0,0.0,0.0,0.0,0.0,0.0,0.0,0.0,0.0,0.0,0.0,0.0,0.0,0.0,0.0,0.0,0.0,0.0,0.0,0.0,0.0,0.0,0.0,0.0,0.0,0.0,0.0,0.0,0.0,0.0,0.0,0.0,0.0,0.0,0.0,0.0,0.0,0.0,0.0,0.0,0.0,0.0,0.0,0.0,0.0,0.0,0.0,0.0,0.0,0.0,0.0,0.0,0.0,0.0,0.0,0.0,0.0,0.0,-0.9697,0.0,0.0,0.0,0.0,0.0,0.0,0.0,0.0,0.0,0.0,0.0,0.0,0.0,0.0,0.0,0.0,0.0,0.0,0.0,0.0,0.0,0.0,0.0,0.0,0.0,0.0,0.0,0.0,0.0,0.0,0.0,0.0,0.0,0.0,0.0,0.0,0.0,0.0,-1.0507,-1.0681,-1.098,-1.1303,-1.1391,-1.1129,-1.0593,0.0,0.0,0.0,0.0,0.0,0.0,0.0,0.0,0.0,0.0,0.0,0.0,0.0,0.0,0.0,0.0,0.0,0.0,0.0,0.0,0.0,0.0,0.0,0.0,0.0,0.0,0.0,0.0,0.0,0.0,0.0,0.0,0.0,0.0,0.0,0.0,0.0,0.0,0.0,0.0,0.0,0.0,0.0,0.0,0.0,0.0,0.0,0.0,0.0,0.0,0.0,0.0,0.0,0.0,0.0,0.0,0.0,0.0,0.0,0.0,0.0,0.0,0.0,0.0,0.0,0.0,0.0,0.0,0.0,0.0,0.0,-1.0197,0.0,0.0,0.0,0.0,0.0,0.0,0.0,0.0,0.0,0.0,0.0,0.0,0.0,0.0,0.0,0.0,0.0,0.0,0.0,0.0,0.0,0.0,0.0,-1.2182,-1.2543,-1.2266,-1.2273,-1.2333,0.0,0.0,0.0,0.0,0.0,0.0,0.0,-1.02,-1.0229,-1.0438,-1.1023,-1.1613,-1.2225,-1.2278,-1.179,-1.0901,-1.0901,0.0,0.0,0.0,0.0,0.0,0.0,0.0,0.0,0.0,0.0,0.0,0.0,0.0,0.0,0.0,0.0,0.0,0.0,0.0,0.0,0.0,0.0,0.0,0.0,0.0,0.0,0.0,0.0,0.0,0.0,0.0,0.0,0.0,0.0,0.0,0.0,0.0,0.0,0.0,0.0,0.0,0.0,0.0,0.0,0.0,0.0,0.0,0.0,0.0,0.0,0.0,0.0,0.0,0.0,0.0,0.0,0.0,0.0,0.0,0.0,0.0,0.0,0.0,-1.2489,-1.2596,-1.2852,-1.3293,-1.334,-1.3073,-1.3073,-1.2091,-1.0481,0.0,0.0,0.0,0.0,0.0,0.0,0.0,0.0,0.0,0.0,0.0,0.0,0.0,0.0,0.0,0.0,0.0,0.0,0.0,0.0,0.0,0.0,-1.3235,-1.3446,-1.2135,-1.2242,-1.2429,-1.2546,0.0,0.0,0.0,0.0,0.0,-1.0821,-1.0243,-1.0155,-1.0564,-1.1411,-1.1846,-1.1966,-1.2184,-1.2218,-1.2071,-1.2071,-1.165,-1.0935,0.0,0.0,0.0,0.0,0.0,0.0,0.0,0.0,0.0,0.0,0.0,0.0,0.0,0.0,0.0,0.0,0.0,0.0,0.0,0.0,0.0,0.0,0.0,0.0,0.0,0.0,0.0,0.0,0.0,0.0,0.0,0.0,0.0,0.0,0.0,0.0,0.0,0.0,0.0,0.0,0.0,-1.1209,-1.0181,0.0,0.0,0.0,0.0,0.0,0.0,0.0,0.0,0.0,0.0,0.0,0.0,0.0,0.0,-1.2496,-1.261,-1.2913,-1.3433,-1.4208,-1.4754,-1.5017,-1.5818,-1.6166,-1.6126,-1.6126,0.0,-1.1937,-1.0948,0.0,0.0,0.0,0.0,0.0,0.0,0.0,0.0,0.0,0.0,0.0,0.0,0.0,0.0,0.0,0.0,0.0,0.0,0.0,0.0,0.0,-1.3822,-1.4675,-1.4007,-1.4519,-1.4596,-1.3947,-1.3114,0.0,0.0,0.0,-1.0929,-1.0849,-1.1295,-1.222,-1.363,-1.4158,-1.4591,-1.4935,-1.5049,-1.4805,-1.4216,-1.4216,-1.3306,-1.1703,-1.1376,0.0,0.0,0.0,0.0,0.0,0.0,0.0,0.0,0.0,0.0,0.0,0.0,0.0,0.0,0.0,0.0,0.0,0.0,0.0,0.0,0.0,0.0,0.0,0.0,0.0,0.0,0.0,0.0,0.0,0.0,0.0,0.0,0.0,0.0,0.0,0.0,0.0,0.0,0.0,-1.042,-1.0514,-0.9499,-1.011,-1.0191,0.0,0.0,0.0,0.0,0.0,0.0,0.0,0.0,0.0,-1.2013,-1.3199,-1.3903,-1.403,-1.4687,-1.5104,-1.5371,-1.5758,-1.6012,-1.6146,-1.6533,-1.6707,-1.6707,-1.6707,-1.5972,-1.4683,-1.3561,-1.2683,-1.1997,0.0,0.0,0.0,0.0,0.0,-1.1028,0.0,0.0,0.0,0.0,0.0,0.0,0.0,0.0,0.0,0.0,0.0,0.0,-1.2985,-1.4854,-1.6062,-1.5865,-1.6508,-1.642,-1.5106,-1.4135,-1.3,-1.1584,-1.1124,-1.0897,-1.0897,-1.236,-1.4059,-1.5984,-1.6426,-1.6711,-1.6887,-1.6887,-1.6478,-1.5696,-1.5696,-1.4468,-1.2385,-1.1951,-1.155,-1.1162,0.0,0.0,0.0,0.0,0.0,0.0,0.0,0.0,0.0,0.0,0.0,0.0,0.0,0.0,0.0,0.0,0.0,0.0,0.0,0.0,0.0,0.0,0.0,0.0,0.0,0.0,0.0,0.0,0.0,0.0,0.0,0.0,0.0,0.0,0.0,0.0,0.0,-1.0254,-1.0555,-0.9593,-1.0381,-1.0661,0.0,0.0,0.0,0.0,0.0,0.0,-1.1764,-1.2864,-1.3467,-1.3467,-1.4834,-1.5571,-1.5571,-1.646,-1.6967,-1.7048,-1.7041,-1.7081,-1.7161,-1.7161,-1.7161,-1.7161,-1.7161,-1.7161,-1.7048,-1.5618,-1.4449,-1.3627,-1.3327,-1.3213,-1.318,-1.2991,-1.2904,-1.2871,0.0,0.0,0.0,0.0,0.0,0.0,0.0,0.0,0.0,0.0,0.0,-1.5565,-1.5355,-1.6831,-1.7556,-1.6791,-1.7106,-1.6792,-1.5469,-1.4963,-1.3946,-1.2223,-1.1527,-1.117,-1.117,-1.3063,-1.4697,-1.5984,-1.6834,-1.6732,-1.5779,-1.5779,-1.5737,-1.5696,-1.5696,-1.459,-1.2757,-1.273,-1.2382,-1.1785,-1.0921,0.0,0.0,0.0,0.0,0.0,0.0,0.0,0.0,0.0,0.0,0.0,0.0,0.0,0.0,0.0,0.0,0.0,0.0,0.0,0.0,0.0,0.0,0.0,0.0,0.0,0.0,0.0,0.0,0.0,0.0,0.0,0.0,0.0,0.0,0.0,0.0,0.0,0.0,-1.1395,-1.1837,0.0,0.0,0.0,0.0,-1.2926,-1.306,-1.3327,-1.3901,-1.4776,-1.5264,-1.5264,-1.6469,-1.7092,-1.7092,-1.7427,-1.7682,-1.7922,-1.7902,-1.811,-1.8397,-1.8397,-1.8397,-1.8397,-1.8397,-1.8397,-1.8223,-1.596,-1.4975,-1.4807,-1.3647,-1.3213,-1.3206,-1.3193,-1.3186,-1.3186,0.0,0.0,0.0,0.0,0.0,0.0,0.0,0.0,-1.4257,-1.364,-1.4993,-1.5785,-1.5173,-1.7354,-1.8721,-1.8426,-1.9054,-1.8877,-1.7535,-1.6309,-1.5116,-1.3926,-1.2584,-1.2742,-1.4687,-1.6211,-1.7636,-1.8966,-1.9258,-1.9225,-1.8859,-1.8859,-1.8492,-1.7779,-1.705,-1.595,-1.4637,-1.4265,-1.3473,-1.2409,-1.1718,-1.1162,0.0,0.0,0.0,0.0,0.0,0.0,0.0,0.0,0.0,0.0,0.0,0.0,0.0,0.0,0.0,0.0,0.0,0.0,0.0,0.0,0.0,0.0,0.0,0.0,0.0,0.0,0.0,0.0,0.0,0.0,0.0,0.0,0.0,0.0,0.0,0.0,0.0,-1.2342,-1.3133,0.0,0.0,-1.2585,-1.2999,-1.3721,-1.4295,-1.479,-1.5184,-1.6226,-1.6894,-1.7043,-1.7508,-1.7822,-1.8009,-1.8116,-1.8223,-1.833,-1.8323,-1.8384,-1.849,-1.849,-1.849,-1.849,-1.849,-1.849,-1.8424,-1.7582,-1.7235,-1.7194,-1.6774,-1.6607,-1.6587,-1.6393,-1.6277,-1.6244,0.0,0.0,0.0,0.0,0.0,0.0,0.0,0.0,-1.4742,-1.4172,-1.5533,-1.6512,-1.6407,-1.8389,-1.9754,-1.9754,-2.0282,-1.9834,-1.8071,-1.6924,-1.5576,-1.3994,-1.3227,-1.4192,-1.7067,-1.81,-1.9268,-2.0605,-2.0752,-2.0624,-2.025,-2.0393,-2.0089,-1.9354,-1.8603,-1.7895,-1.7151,-1.6251,-1.488,-1.3179,-1.2482,-1.1732,-1.0995,0.0,0.0,0.0,0.0,0.0,0.0,0.0,0.0,0.0,0.0,0.0,0.0,0.0,0.0,0.0,0.0,0.0,0.0,0.0,0.0,0.0,0.0,0.0,0.0,0.0,0.0,0.0,0.0,0.0,0.0,0.0,0.0,0.0,0.0,0.0,-1.3086,-1.3226,-1.4155,-1.4623,-1.4142,-1.4226,-1.4625,-1.5371,-1.5965,-1.642,-1.6714,-1.7462,-1.7983,-1.8135,-1.8235,-1.8382,-1.8637,-1.8738,-1.8784,-1.8784,-1.8784,-1.8784,-1.8784,-1.8784,-1.8784,-1.8784,-1.8784,-1.8784,-1.8784,-1.8784,-1.8784,-1.8771,-1.8571,-1.849,-1.847,-1.827,-1.8196,-1.8163,0.0,0.0,0.0,0.0,0.0,0.0,0.0,-1.456,-1.4869,-1.509,-1.6415,-1.7852,-1.9131,-2.0077,-2.0605,-2.0605,-2.0605,-1.9492,-1.6931,-1.6697,-1.5342,-1.2379,-1.3529,-1.542,-1.7978,-1.8451,-1.9336,-2.0625,-2.1035,-2.0707,-1.9693,-2.0065,-2.0247,-2.0247,-2.0205,-2.0162,-2.0093,-1.8591,-1.6496,-1.4119,-1.3186,-1.2469,-1.1806,0.0,0.0,0.0,0.0,0.0,0.0,0.0,0.0,0.0,0.0,0.0,0.0,0.0,0.0,0.0,0.0,0.0,0.0,0.0,0.0,0.0,0.0,0.0,0.0,0.0,0.0,0.0,0.0,0.0,0.0,0.0,0.0,0.0,-1.2204,-1.3548,-1.4456,-1.4208,-1.4943,-1.5578,-1.5824,-1.5858,-1.6457,-1.7896,-1.8015,-1.8149,-1.849,-1.851,-1.8517,-1.8517,-1.8791,-1.8938,-1.8938,-1.9232,-1.9379,-1.9379,-1.945,-1.9392,-1.9392,-1.9392,-1.9392,-1.9392,-1.9392,-1.9392,-1.9392,-1.9392,-1.9392,-1.9397,-1.8744,-1.8517,-1.8517,-1.8517,-1.8517,-1.8517,0.0,0.0,0.0,0.0,0.0,0.0,0.0,-1.4237,-1.4536,-1.5234,-1.6234,-1.7369,-1.8637,-1.9863,-2.0605,-2.0605,-2.0605,-1.9863,-1.8188,-1.6609,-1.499,-1.3207,-1.5849,-1.7701,-1.8412,-1.9777,-2.0654,-2.1055,-2.1494,-2.1576,-2.1269,-2.1384,-2.1441,-2.1358,-1.9664,-1.9391,-2.0069,-1.7991,-1.6705,-1.5922,-1.4351,-1.3273,-1.2509,0.0,0.0,0.0,0.0,0.0,0.0,0.0,0.0,0.0,0.0,0.0,0.0,0.0,0.0,0.0,0.0,0.0,0.0,0.0,0.0,0.0,0.0,0.0,0.0,0.0,0.0,0.0,0.0,0.0,0.0,0.0,0.0,-1.5225,-1.4333,-1.476,-1.5438,-1.6261,-1.6707,-1.7101,-1.7356,-1.7635,-1.7929,-1.8337,-1.8564,-1.8661,-1.8804,-1.9005,-1.9125,-1.9125,-1.9199,-1.9245,-1.9245,-1.9539,-1.9679,-1.9686,-1.9893,-1.9993,-1.9993,-1.9993,-1.9993,-1.9993,-1.9993,-1.9993,-1.9993,-1.9993,-1.9993,-1.9933,-1.9352,-1.9125,-1.9125,-1.9125,-1.9125,-1.9125,0.0,0.0,0.0,0.0,0.0,0.0,0.0,-1.4266,-1.4844,-1.6084,-1.668,-1.7627,-1.9268,-2.0117,-2.0605,-2.0605,-2.0106,-1.9131,-1.7656,-1.5869,-1.5079,-1.5605,-1.7535,-1.8939,-1.967,-2.0674,-2.1288,-2.1504,-2.1943,-2.2148,-2.2158,-2.2324,-2.2412,-2.2327,-2.0989,-2.0755,-2.1271,-1.8783,-1.7762,-1.7627,-1.5908,-1.44,-1.3093,-1.2884,-1.2308,-1.1597,-1.1435,-1.1389,-1.1342,-1.1035,0.0,0.0,0.0,0.0,0.0,0.0,0.0,0.0,0.0,0.0,0.0,0.0,0.0,0.0,0.0,0.0,0.0,0.0,0.0,0.0,0.0,0.0,0.0,0.0,-1.6184,-1.7307,-1.6987,-1.6587,-1.6613,-1.7428,-1.7782,-1.8083,-1.8328,-1.8571,-1.8724,-1.8851,-1.9011,-1.9112,-1.9112,-1.9392,-1.9546,-1.9546,-1.9666,-1.9733,-1.9733,-1.99,-1.998,-1.9987,-2.0154,-2.0173,-2.0173,-2.0173,-2.0173,0.0,-2.0173,-2.0173,-2.0173,-2.0173,-2.0173,0.0,0.0,0.0,0.0,0.0,-1.9424,-1.9424,0.0,0.0,0.0,0.0,0.0,0.0,0.0,-1.4505,-1.5439,-1.7181,-1.7383,-1.8228,-2.037,-2.0605,-2.0605,-2.0605,-1.9385,-1.79,-1.6212,-1.5166,-1.5781,-1.8422,-1.8715,-1.9563,-2.1161,-2.1239,-2.1523,-2.1953,-2.2373,-2.2578,-2.2598,-2.2974,-2.3169,-2.3169,-2.3076,-2.3076,-2.3008,-2.0474,-1.9415,-1.9215,-1.7826,-1.594,-1.3926,-1.3546,-1.3064,-1.2552,-1.2177,-1.206,-1.2054,-1.1985,0.0,0.0,0.0,0.0,0.0,0.0,0.0,0.0,0.0,0.0,0.0,0.0,0.0,0.0,0.0,0.0,0.0,0.0,0.0,0.0,0.0,0.0,0.0,0.0,-1.7877,-1.92,-1.9916,-1.8864,-1.8043,-1.811,-1.8377,-1.8651,-1.8945,-1.8978,-1.9085,-1.941,-1.9457,-1.9477,-1.9477,0.0,0.0,0.0,0.0,-2.0173,-2.0173,-2.0267,-2.0287,-2.0287,-2.0314,-2.0273,-2.0273,-2.0273,-2.0273,-2.0273,-2.0273,-2.0273,-2.0273,-2.0273,-2.0273,-2.026,-2.0261,-2.0074,-1.982,-1.9559,-1.9466,0.0,0.0,0.0,0.0,0.0,0.0,0.0,0.0,-1.4505,-1.5439,-1.7181,-1.7383,-1.8228,-2.037,-2.0605,-2.0605,-2.0605,-1.9385,-1.79,-1.6212,-1.7129,-1.7847,-1.8081,-1.9453,-2.0518,-2.1181,-2.1582,-2.1973,-2.2393,-2.2769,-2.2974,-2.2984,-2.3457,-2.3662,-2.3627,-2.299,-2.3044,-2.3563,-2.2053,-2.1229,-2.0838,-2.0316,-1.8531,-1.6224,-1.6794,-1.6927,-1.6758,-1.6325,-1.6158,-1.607,-1.56,-1.5279,-1.486,-1.3412,-1.2462,0.0,0.0,0.0,0.0,0.0,0.0,0.0,0.0,0.0,0.0,0.0,0.0,0.0,0.0,0.0,0.0,0.0,0.0,0.0,-1.907,-2.1389,-2.3031,-2.2704,-2.1347,-2.0027,-1.8857,-1.8804,-1.8958,-1.9252,-1.9279,-1.9305,-1.9424,-1.9586,-1.972,-1.972,-1.9993,0.0,-2.0147,-2.014,-2.0173,-2.0173,-2.0468,-2.0588,-2.0595,0.0,0.0,-2.0942,-2.0942,-2.0942,-2.0942,-2.0942,-2.0942,-2.0942,-2.0942,-2.0942,-2.0895,-2.0421,-2.0194,-2.014,-2.0087,-2.0067,-2.0067,0.0,0.0,0.0,0.0,0.0,0.0,0.0,-1.4283,-1.5242,-1.6853,-1.7061,-1.7627,-1.9121,-1.9138,-1.901,-1.901,-1.7978,-1.708,-1.6436,-1.7607,-1.8613,-1.9258,-2.0145,-2.0918,-2.1543,-2.1777,-2.2197,-2.2779,-2.2994,-2.3091,-2.311,-2.3584,-2.3789,-2.3809,-2.3566,-2.361,-2.3699,-2.2492,-2.1735,-2.1275,-2.1174,-2.0254,-1.901,-1.8478,-1.8162,-1.7987,-1.7714,-1.7163,-1.6464,-1.6142,-1.5953,-1.5685,-1.4804,-1.4672,-1.4563,0.0,0.0,0.0,0.0,0.0,0.0,0.0,0.0,0.0,0.0,0.0,0.0,0.0,0.0,-1.617,0.0,0.0,-2.1413,-2.1698,-2.3488,-2.4728,-2.4425,-2.3269,-2.2171,-2.1466,-2.0685,-2.0302,-2.0465,-2.0614,-2.0429,-1.9638,-1.9853,-2.0013,-2.0013,-2.0294,-2.0454,-2.0454,-2.0595,-2.0668,-2.0668,-2.0822,-2.0895,-2.0895,-2.1196,-2.1329,-2.1336,-2.1483,-2.155,-2.155,-2.155,-2.1463,-2.1323,-2.1169,-2.1109,-2.1082,-2.0782,-2.0581,-2.0434,-2.0287,-2.0173,-2.0173,0.0,0.0,0.0,0.0,0.0,0.0,0.0,-1.3983,-1.4884,-1.6517,-1.6592,-1.686,-1.7769,-1.7588,-1.7246,-1.6904,-1.6721,-1.6611,-1.6697,-1.7842,-1.9121,-2.0546,-2.0605,-2.1016,-2.1865,-2.1885,-2.2295,-2.3091,-2.3091,-2.3091,-2.311,-2.3584,-2.3789,-2.3809,-2.4228,-2.418,-2.3744,-2.2765,-2.2098,-2.1658,-2.1658,-2.1658,-2.1505,-2.0026,-1.9221,-1.8834,-1.8688,-1.7672,-1.6411,-1.6586,-1.6539,-1.6379,-1.6308,-1.7058,-1.7576,-1.5506,-1.5799,0.0,0.0,0.0,0.0,0.0,0.0,0.0,0.0,0.0,-1.6829,-1.9087,-1.9186,-1.9209,-2.0472,-2.2076,-2.3392,-2.401,-2.5112,-2.5951,-2.5951,-2.4959,-2.4403,-2.4757,-2.3247,-2.2188,-2.2188,-2.2429,-2.2001,-2.0579,-2.0683,-2.0733,-2.0497,-2.0718,-2.0879,-2.0879,-2.1105,-2.1196,-2.1196,-2.1249,-2.1283,-2.1283,-2.1523,-2.1702,-2.1715,-2.1877,-2.1984,-2.1984,-2.1984,-2.185,-2.1681,-2.1376,-2.1283,-2.1283,-2.1283,-2.1102,-2.0808,-2.0514,-2.034,-2.034,0.0,0.0,0.0,0.0,0.0,0.0,0.0,0.0,-1.4389,-1.6582,-1.631,-1.6307,-1.736,-1.7445,-1.6789,-1.5244,-1.708,-1.7857,-1.6775,-1.8955,-2.041,-2.0595,-2.0605,-2.1016,-2.1865,-2.1885,-2.2295,-2.3091,-2.3091,-2.3091,-2.311,-2.3584,-2.3789,-2.3809,-2.4228,-2.418,-2.3789,-2.3654,-2.3347,-2.2906,-2.2906,-2.2906,-2.2896,-2.2669,-2.2327,-2.1919,-2.1128,-2.0013,-1.9003,-1.9783,-1.9545,-1.892,-1.9083,-1.9052,-1.8506,-1.63,-1.5842,-1.5583,-1.352,-1.4589,-1.6434,-1.7086,-1.8292,-1.9329,0.0,0.0,-2.0081,-2.0391,-2.1003,-2.1511,-2.169,-2.3732,-2.5402,-2.545,-2.6885,-2.7999,-2.7999,-2.6743,-2.6455,-2.8115,-2.5889,-2.4195,-2.4195,-2.4515,-2.4212,-2.2898,-2.3089,-2.2739,-2.16,-2.152,-2.1497,-2.1497,-2.1535,-2.1568,-2.1568,-2.1757,-2.1884,-2.1884,-2.1924,-2.1937,-2.1937,-2.1971,-2.1984,-2.1984,-2.1984,-2.1964,-2.1937,-2.1904,-2.1884,-2.1884,-2.1884,-2.171,-2.148,-2.1122,-2.1009,-2.1009,0.0,0.0,0.0,0.0,0.0,0.0,0.0,0.0,0.0,-1.6028,-1.5655,-1.5508,-1.6424,-1.5989,-1.5161,-1.3919,-1.6065,-1.7272,-1.6736,-1.9141,-2.0605,-2.0605,-2.0605,-2.0859,-2.1494,-2.1758,-2.2178,-2.273,-2.2974,-2.3091,-2.311,-2.3584,-2.3789,-2.3809,-2.4228,-2.418,-2.3789,-2.3789,-2.3535,-2.3091,-2.3091,-2.3091,-2.3091,-2.3091,-2.2984,-2.2652,-2.1328,-1.9927,0.0,-1.9124,-1.9012,-1.8907,-2.0026,-2.0186,-1.9688,-1.8276,-1.7861,-1.7875,-1.7783,-1.8048,-1.8608,0.0,-2.0723,-2.1426,-2.1426,-2.1953,-2.2656,-2.3418,-2.4268,-2.4951,-2.5253,-2.6133,-2.6943,0.0,-2.7822,-2.8291,-2.8291,-2.7991,-2.8038,-2.8787,-2.8258,-2.735,-2.6263,-2.6472,-2.6107,-2.4709,-2.4852,-2.4741,-2.42,-2.3421,-2.2983,-2.2983,-2.3221,-2.3321,-2.3321,-2.345,-2.3515,-2.3515,-2.2675,-2.2238,-2.2245,-2.2418,-2.2498,-2.2485,-2.2311,-2.2238,-2.2225,-2.2051,-2.1984,-2.1984,-2.1984,-2.181,-2.1601,-2.141,-2.1256,-2.1109,0.0,0.0,0.0,0.0,0.0,0.0,0.0,0.0,0.0,0.0,-1.4677,-1.4512,-1.535,-1.4711,-1.3947,-1.3313,-1.5145,-1.6443,-1.6687,-1.8916,-2.0351,-2.0595,-2.0605,-2.0781,-2.1181,-2.1543,-2.1914,-2.2344,-2.2721,-2.2925,-2.2925,-2.3408,-2.3613,-2.3623,-2.3926,-2.3896,-2.3613,-2.3613,-2.3428,-2.3091,-2.3091,-2.3091,-2.3091,-2.3091,-2.2877,-2.2379,-2.0918,-1.945,-1.8183,-1.7926,-1.777,-1.7972,-1.9598,-2.0161,-2.0057,-1.9043,-1.8629,-1.8711,-2.0089,-2.0274,0.0,-2.1728,-2.2646,-2.3252,-2.3369,-2.3975,-2.4805,-2.5869,-2.668,-2.7295,-2.766,-2.7816,-2.7939,-2.8242,-2.8291,-2.8291,-2.8291,-2.8652,-2.8965,-2.9082,-2.9746,-2.9708,-2.8422,-2.8498,-2.8061,-2.6618,-2.6687,-2.6702,-2.6438,-2.5405,-2.4912,-2.5068,-2.5329,-2.5248,-2.4738,-2.482,-2.4611,-2.4101,-2.3022,-2.2539,-2.2545,-2.329,-2.3863,-2.4385,-2.4082,-2.3982,-2.3961,-2.3807,-2.3391,-2.3001,-2.3523,-2.3018,-2.2045,-2.2339,-2.1936,-2.1235,0.0,0.0,0.0,0.0,0.0,0.0,0.0,0.0,0.0,0.0,0.0,0.0,0.0,-1.397,-1.3704,-1.3674,-1.4753,-1.5811,-1.6638,-1.8359,-1.9734,-2.0566,-2.0605,-2.0781,-2.1181,-2.121,-2.1465,-2.1904,-2.2324,-2.2529,-2.2539,-2.2916,-2.311,-2.311,-2.313,-2.312,-2.311,-2.311,-2.311,-2.3091,-2.3091,-2.3091,-2.3091,-2.3091,-2.2331,-2.1132,-2.0254,-1.9095,-1.7872,-1.7045,-1.6471,-1.6375,-1.7691,-1.8646,-1.9082,-1.7846,-1.6868,-1.6564,-1.8217,0.0,-2.0899,-2.2168,-2.375,-2.5107,-2.5489,-2.5986,-2.6435,-2.6885,-2.7334,-2.7699,-2.7718,-2.7998,-2.8281,-2.8291,-2.8291,-2.8291,-2.8291,-2.8652,-2.9082,-2.9502,-2.9932,-3.0371,0.0,-3.0801,-3.0255,-2.8902,-2.8792,-2.8427,-2.7588,-2.7173,-2.7218,-2.7651,-2.7613,-2.676,-2.5082,-2.533,-2.4627,-2.2969,-2.2914,-2.2846,-2.2914,-2.4648,-2.638,-2.804,-2.8032,-2.8023,-2.8015,-2.8015,-2.7007,-2.5554,-2.7338,-2.595,-2.3094,-2.413,-2.3242,-2.1607,0.0,0.0,0.0,0.0,0.0,0.0,0.0,0.0,0.0,0.0,0.0,0.0,0.0,0.0,0.0,0.0,-1.5268,-1.5997,-1.6269,-1.8174,-1.9414,-1.9707,-2.0302,-2.0674,-2.0791,-2.1044,-2.1268,-2.1455,-2.1885,-2.21,-2.21,-2.2236,-2.2305,-2.2305,-2.2305,-2.2305,-2.2305,-2.2305,-2.2305,-2.2305,-2.2305,-2.2305,-2.2246,-2.165,-2.0986,-2.0098,0.0,-1.7275,-1.7038,-1.6484,-1.6212,-1.632,-1.7598,-1.7607,-1.7034,-1.6289,-1.668,-1.7725,-1.9453,0.0,-2.2656,-2.4248,-2.5303,-2.6055,-2.6484,-2.6924,-2.7275,-2.7422,-2.7109,-2.6816,-2.6816,-2.6934,-2.7031,-2.7031,-2.7744,-2.8291,-2.8291,-2.8906,-2.9404,-2.9551,-3.0215,0.0,0.0,0.0,0.0,-3.0274,-3.0464,-3.0496,-3.0208,-2.9527,-2.9233,-2.9356,-2.9599,-2.947,-2.8878,-2.9006,-2.873,-2.8139,-2.6972,-2.6447,-2.6447,-2.7047,-2.7643,-2.8172,-2.8172,-2.8172,-2.8172,-2.8172,-2.7842,-2.737,-2.7974,-2.7359,-2.6059,-2.5493,-2.4857,-2.4044,0.0,0.0,0.0,0.0,0.0,0.0,0.0,0.0,0.0,0.0,0.0,0.0,0.0,0.0,0.0,0.0,0.0,-1.5831,-1.6075,-1.7519,-1.8506,-1.8818,-1.9209,-1.946,-1.946,-1.9561,-1.966,-1.9826,-2.0596,-2.1035,-2.1191,-2.167,-2.1885,-2.1885,-2.1885,-2.1885,-2.1885,-2.1885,-2.1699,-2.1456,-2.1456,-2.123,-2.0898,-2.0361,-1.9648,0.0,-1.6799,-1.6085,-1.5928,-1.5204,-1.5155,-1.5518,-1.6357,-1.6367,-1.6193,-1.665,-1.7588,-1.8945,-2.1163,-2.2637,-2.3929,-2.5528,-2.6289,-2.6728,-2.7148,-2.7461,-2.7757,-2.7861,-2.709,-2.6387,-2.6387,-2.5879,-2.5508,-2.5654,-2.625,-2.6904,-2.7519,-2.835,-2.9108,-2.9577,-3.0351,0.0,0.0,0.0,0.0,-3.0889,-3.1279,-3.1592,-3.1738,-3.138,-3.1169,-3.1318,-3.1559,-3.1433,-3.0836,-3.0771,-3.0513,-2.9865,-2.8755,-2.8501,-2.9148,-2.9148,-2.9474,-3.0004,-2.9548,-2.9613,-3.0012,-2.8969,-2.8509,-2.8369,-2.8509,-2.7711,-2.6509,-2.6005,-2.5574,-2.4982,0.0,0.0,0.0,0.0,0.0,0.0,0.0,0.0,0.0,0.0,0.0,0.0,0.0,0.0,0.0,0.0,0.0,0.0,-1.5977,-1.6443,-1.7058,-1.791,-1.7607,-1.7422,-1.7422,-1.698,-1.696,-1.7383,-1.8613,-1.9414,-1.9814,-2.1094,-2.1689,-2.1689,-2.1689,-2.1689,-2.1689,-2.167,-2.1172,-2.0439,-2.0419,-1.993,-1.9189,-1.9141,-1.8404,-1.723,-1.6349,-1.5488,-1.4598,-1.3355,-1.3506,-1.4221,-1.4309,-1.5225,-1.6672,-1.8776,-1.9414,-2.0117,-2.3037,-2.416,-2.4824,-2.6133,-2.6758,-2.7168,-2.7598,-2.7748,-2.7783,-2.8096,-2.7139,-2.623,0.0,0.0,-2.3916,-2.4316,-2.418,-2.46,-2.625,-2.7226,-2.8266,0.0,0.0,0.0,0.0,0.0,0.0,-3.0918,0.0,-3.1738,-3.2178,-3.2598,-3.3008,-3.3408,-3.3418,-3.2629,-3.0973,-3.0909,-3.0125,-2.8501,-2.8501,-2.9344,-3.0909,-3.0909,-3.1835,-3.3355,-3.1973,-3.2174,-3.3165,-3.0419,-2.9117,-2.8838,-2.9117,-2.7328,-2.4844,-2.5858,-2.5604,-2.4518,0.0,0.0,0.0,0.0,0.0,0.0,0.0,0.0,0.0,0.0,0.0,0.0,0.0,0.0,0.0,0.0,0.0,0.0,-1.4945,-1.6021,-1.6794,-1.7019,-1.7568,-1.7852,-1.7852,-1.7744,-1.7588,-1.7383,-1.8027,-1.8232,-1.8047,-1.8691,-1.8994,-1.8994,-1.8994,-1.8994,-1.8975,-1.8662,-1.8433,-1.8198,-1.7842,-1.7773,-1.7803,-1.7171,-1.6711,-1.632,-1.5449,-1.4766,-1.4172,-1.3564,-1.4336,-1.5791,-1.7048,-1.7939,-1.8736,-1.993,-2.1202,-2.2523,-2.3877,-2.5059,-2.6123,-2.71,-2.7474,-2.7607,-2.8037,-2.8135,-2.7803,-2.6631,-2.5352,-2.4062,0.0,0.0,0.0,-2.3935,-2.5742,0.0,-2.7744,-2.8545,0.0,-2.9587,0.0,-3.0889,-3.0889,-3.0889,0.0,0.0,-3.1758,-3.2187,-3.2607,-3.3037,-3.331,-3.3418,-3.3418,-3.3155,-3.2756,-3.2756,-3.2502,-3.2046,-3.2046,-3.2301,-3.2756,-3.2756,-3.2956,-3.3355,-3.3029,-3.3092,-3.3292,-3.1515,-3.0734,-3.0531,-2.9574,-2.8555,-2.763,-2.716,-2.6438,-2.5579,0.0,0.0,0.0,0.0,0.0,0.0,0.0,0.0,0.0,0.0,0.0,0.0,0.0,0.0,0.0,0.0,0.0,0.0,0.0,-1.5457,-1.5846,-1.6122,-1.6436,-1.6592,-1.6592,-1.6375,-1.6289,-1.625,-1.666,-1.6953,-1.7109,-1.7529,-1.7734,-1.7734,-1.7734,-1.7627,-1.7399,-1.7197,-1.6907,0.0,0.0,-1.6314,-1.6375,-1.5881,-1.5831,-1.594,-1.5256,-1.516,-1.54,0.0,0.0,-1.7461,-1.9004,-1.9648,-2.0165,-2.1603,0.0,-2.3711,-2.4951,-2.5957,-2.6826,-2.7552,-2.7855,-2.7803,-2.7285,-2.7168,-2.668,-2.4961,-2.3574,0.0,-2.1487,0.0,0.0,0.0,0.0,0.0,-2.7353,-2.8193,-2.9,0.0,-3.0351,0.0,-3.0889,-3.0889,-3.1143,0.0,-3.2031,-3.2353,-3.2773,-3.3193,-3.3418,-3.3418,-3.3418,-3.3418,-3.3418,-3.3418,-3.3418,-3.3418,-3.3418,-3.3418,-3.3418,-3.3418,-3.3092,-3.2438,0.0,-3.1534,-3.1396,-2.9435,-2.8875,-2.912,-2.7695,-2.6969,-2.6689,-2.6048,-2.5616,-2.5141,0.0,0.0,0.0,0.0,0.0,0.0,0.0,0.0,0.0,0.0,0.0,0.0,0.0,0.0,0.0,0.0,0.0,0.0,0.0,0.0,-1.4765,-1.541,-1.5087,-1.4873,-1.4873,-1.4475,-1.4436,-1.4813,-1.5205,-1.5771,-1.6453,-1.6914,-1.7119,-1.7119,-1.7119,-1.6914,-1.6521,-1.6494,-1.6096,-1.5534,-1.5475,-1.538,-1.5212,0.0,-1.5493,-1.5864,-1.5489,-1.6048,-1.7234,-1.8791,-1.915,-1.9182,-2.0605,-2.1075,-2.1496,-2.3398,-2.4004,-2.4394,-2.5957,-2.6699,-2.7119,-2.7559,-2.7978,-2.7842,-2.6074,-2.5693,-2.5118,-2.3188,0.0,-2.1026,-2.0987,-2.1017,-2.131,-2.2121,0.0,-2.4658,-2.6396,-2.7324,-2.8262,-2.9489,-3.0293,-3.082,-3.0889,-3.0947,-3.1309,-3.2109,-3.2217,-3.2441,-3.2861,-3.3223,-3.3418,-3.3418,-3.3418,-3.3418,-3.3418,-3.3418,-3.3418,-3.3418,-3.3418,-3.3418,-3.3418,-3.3418,-3.2702,-3.1515,0.0,0.0,-2.9236,-2.6632,-2.5973,-2.6508,-2.509,-2.4305,-2.402,-2.4064,-2.4027,-2.3918,0.0,0.0,0.0,0.0,0.0,0.0,0.0,0.0,0.0,0.0,-1.249,-1.285,0.0,0.0,0.0,0.0,0.0,0.0,0.0,0.0,0.0,-1.5604,-1.5409,-1.5303,-1.5303,-1.5225,-1.5059,-1.4813,-1.5205,-1.5312,-1.5137,-1.5557,-1.5752,-1.5752,-1.5752,-1.5713,-1.5615,-1.5389,-1.5209,-1.5097,-1.4857,-1.4995,-1.5285,-1.5285,0.0,0.0,-1.5708,-1.6426,-1.7681,-1.8899,-1.9961,-2.1025,-2.2715,-2.3467,-2.3896,-2.4629,-2.5107,-2.5499,-2.6211,-2.6699,-2.7119,-2.7559,-2.7978,-2.7842,-2.6074,-2.5693,0.0,0.0,-2.0303,-1.9744,-1.8488,-1.9288,-2.0781,-2.2853,0.0,0.0,0.0,0.0,-2.8916,0.0,0.0,0.0,0.0,0.0,0.0,0.0,0.0,0.0,-3.3291,-3.3379,-3.3418,-3.3418,-3.3418,-3.3418,-3.3418,-3.3418,-3.3418,-3.3418,-3.3418,-3.3418,-3.3418,-3.3418,-3.3292,-3.3029,0.0,0.0,-3.0511,-2.8858,-2.7424,-2.6135,-2.4745,-2.3969,-2.3713,-2.3984,-2.3742,-2.331,0.0,0.0,0.0,0.0,0.0,0.0,0.0,-1.188,-1.2089,-1.1813,-1.1791,-1.2216,-1.3364,-1.3713,-1.3863,0.0,0.0,0.0,0.0,0.0,0.0,0.0,-1.5488,-1.5662,-1.5662,-1.5662,0.0,0.0,0.0,-1.5354,-1.5355,0.0,-1.5344,-1.5344,-1.5344,-1.5215,-1.4976,-1.4859,-1.4824,-1.4895,-1.4763,-1.5158,-1.5843,0.0,0.0,0.0,0.0,-1.6637,-1.778,-1.8188,-1.9609,-2.1492,-2.3252,-2.4082,-2.4502,-2.4941,-2.5381,-2.5781,-2.6269,-2.6533,-2.6787,-2.7217,-2.748,-2.6943,-2.4326,0.0,0.0,0.0,-1.8227,-1.8076,-1.7501,0.0,0.0,0.0,0.0,0.0,0.0,0.0,0.0,0.0,0.0,0.0,0.0,0.0,0.0,0.0,0.0,0.0,-3.3398,-3.3418,-3.3418,-3.3418,-3.3418,-3.3418,-3.3418,-3.3418,-3.3418,-3.3418,-3.3418,-3.3418,-3.3418,-3.3418,-3.2575,-3.1194,-3.1057,0.0,-2.7579,-2.6689,-2.5775,-2.4769,-2.408,-2.3625,-2.3362,-2.3515,-2.3376,-2.3135,0.0,0.0,0.0,0.0,0.0,0.0,0.0,-1.1697,-1.1859,-1.1397,-1.1412,-1.1914,-1.3147,-1.3331,-1.3575,0.0,0.0,0.0,0.0,0.0,0.0,0.0,0.0,0.0,0.0,0.0,0.0,0.0,0.0,0.0,0.0,0.0,0.0,0.0,0.0,-1.5207,-1.4874,-1.4918,-1.4982,0.0,0.0,-1.5639,0.0,0.0,0.0,0.0,0.0,0.0,-1.7408,-1.7471,-1.8766,-2.0693,-2.2399,-2.3599,-2.4463,-2.4717,-2.5244,-2.5762,-2.6162,-2.6318,-2.6465,-2.6797,-2.6943,-2.6113,-2.2666,-2.1885,0.0,0.0,-1.6623,-1.6717,-1.706,0.0,-1.9568,0.0,0.0,0.0,0.0,0.0,0.0,0.0,0.0,0.0,0.0,0.0,0.0,0.0,0.0,0.0,-3.3408,-3.3481,-3.3481,-3.3418,-3.3481,-3.3481,-3.3418,-3.3418,-3.3418,-3.3418,-3.3418,-3.3418,-3.3418,-3.3418,-3.2046,-2.9613,-2.9369,0.0,0.0,-2.4555,-2.4099,-2.3493,-2.3493,-2.3332,-2.3106,-2.3106,-2.3106,-2.3106,0.0,0.0,0.0,0.0,0.0,0.0,0.0,-1.1791,-1.1743,-1.15,-1.1742,-1.2086,-1.2538,-1.2735,-1.2907,0.0,0.0,0.0,0.0,0.0,0.0,0.0,0.0,0.0,0.0,0.0,0.0,0.0,0.0,0.0,0.0,0.0,0.0,0.0,0.0,0.0,0.0,-1.5916,0.0,0.0,0.0,0.0,0.0,0.0,0.0,0.0,0.0,0.0,0.0,0.0,0.0,-1.8037,-1.965,-2.2122,-2.4346,-2.4004,0.0,0.0,-2.5732,-2.6084,-2.6396,-2.6435,-2.6728,-2.6113,-2.2666,0.0,0.0,-1.7115,-1.6346,-1.6437,-1.6769,-1.6809,-1.7596,-2.0069,-2.0925,-2.2325,0.0,0.0,0.0,0.0,0.0,0.0,0.0,0.0,0.0,0.0,0.0,0.0,0.0,-3.367,-3.3733,-3.3418,-3.367,-3.3733,-3.3418,-3.3418,-3.3418,-3.3418,-3.3418,-3.3418,-3.3418,-3.3418,-3.2565,-3.1102,0.0,0.0,0.0,-2.5715,-2.4624,-2.3157,-2.3157,-2.3135,-2.3106,-2.3106,-2.3106,-2.3106,0.0,0.0,0.0,0.0,0.0,0.0,-1.1813,-1.1962,-1.2008,-1.1723,-1.1793,-1.2099,-1.2742,-1.2629,-1.2586,-1.2773,0.0,0.0,0.0,0.0,0.0,0.0,0.0,0.0,0.0,0.0,0.0,0.0,0.0,0.0,0.0,0.0,0.0,0.0,0.0,0.0,0.0,0.0,0.0,0.0,0.0,0.0,0.0,0.0,0.0,0.0,0.0,0.0,0.0,0.0,0.0,0.0,-1.8098,-1.9912,0.0,0.0,-2.383,-2.4736,-2.5479,-2.5859,-2.5996,-2.5996,-2.5527,-2.4375,-2.174,0.0,-1.9285,-1.6494,-1.5989,-1.6107,-1.6331,-1.6436,-1.7019,-1.8568,-1.9723,0.0,0.0,0.0,0.0,0.0,0.0,0.0,0.0,0.0,0.0,0.0,0.0,0.0,0.0,-3.3544,-3.3607,-3.367,-3.3607,-3.3607,-3.367,-3.3481,-3.3418,-3.3418,-3.3418,-3.3418,-3.3355,-3.2502,-3.1387,-2.9986,0.0,0.0,0.0,-2.4386,-2.3716,-2.3106,-2.3106,-2.3106,-2.3106,-2.3106,-2.3106,-2.3106,0.0,0.0,0.0,0.0,0.0,-1.2117,-1.1888,-1.2144,-1.2236,-1.1908,-1.2014,-1.236,-1.295,-1.2774,-1.2731,-1.2942,-1.2897,0.0,0.0,0.0,0.0,0.0,0.0,0.0,0.0,0.0,-1.6413,-1.6413,-1.6413,0.0,0.0,0.0,0.0,0.0,0.0,0.0,0.0,0.0,0.0,0.0,0.0,0.0,0.0,0.0,0.0,0.0,0.0,0.0,0.0,0.0,0.0,0.0,-1.7032,-1.7908,-1.9443,0.0,-2.2745,-2.3828,-2.4873,-2.5391,-2.5693,-2.5693,-2.4756,-2.3223,0.0,0.0,-1.8295,-1.6188,-1.5875,-1.6019,-1.6153,-1.6331,-1.6749,-1.7575,-1.8714,-1.9918,-2.1115,0.0,0.0,0.0,0.0,0.0,0.0,0.0,0.0,0.0,0.0,0.0,0.0,-3.3418,-3.3491,-3.3733,-3.3607,-3.3607,-3.3733,-3.3544,-3.3418,-3.3418,-3.3418,-3.3418,-3.3355,-3.2365,-3.0936,-2.9083,0.0,0.0,0.0,-2.3376,-2.3106,-2.3106,-2.3106,-2.3106,-2.3106,-2.3106,-2.3106,-2.3106,0.0,0.0,0.0,0.0,0.0,0.0,-1.2075,-1.2292,-1.2373,-1.203,-1.2597,-1.298,-1.3009,-1.3297,-1.3428,-1.3302,-1.3111,0.0,0.0,0.0,0.0,0.0,0.0,0.0,0.0,0.0,-1.6413,-1.6413,-1.6413,-1.6413,-1.6413,-1.6413,0.0,0.0,0.0,0.0,0.0,0.0,0.0,0.0,0.0,0.0,0.0,0.0,0.0,0.0,0.0,0.0,0.0,0.0,0.0,0.0,0.0,-1.6383,-1.684,-1.9462,-2.1656,-2.3315,-2.3691,-2.4756,-2.5693,-2.5693,-2.4756,-2.3223,0.0,0.0,-1.8329,-1.6317,-1.6009,-1.6153,-1.6374,-1.6413,-1.6655,-1.7369,-1.7668,-1.8694,-2.1135,0.0,0.0,0.0,0.0,0.0,0.0,0.0,0.0,0.0,0.0,0.0,0.0,-3.3418,-3.3418,-3.3428,-3.3733,-3.3733,-3.3418,-3.3418,-3.3418,-3.3418,-3.3418,-3.3418,-3.3418,-3.3355,-3.1854,0.0,0.0,0.0,0.0,-2.3376,-2.3106,-2.3106,-2.3106,-2.3106,-2.3106,-2.3106,-2.3106,-2.3106,0.0,0.0,0.0,0.0,0.0,0.0,0.0,-1.298,-1.3178,-1.3244,-1.3301,-1.3399,-1.3536,-1.3502,-1.348,-1.3428,-1.3294,0.0,0.0,0.0,0.0,0.0,0.0,0.0,0.0,-1.6392,-1.6676,-1.6676,-1.6267,-1.6267,-1.6648,-1.6239,-1.6296,0.0,0.0,0.0,0.0,0.0,0.0,0.0,0.0,0.0,0.0,0.0,0.0,0.0,0.0,0.0,0.0,0.0,0.0,0.0,0.0,0.0,0.0,-1.7142,-1.8656,0.0,-2.0947,-2.1843,-2.2477,-2.1863,-2.1445,-2.0732,-1.918,-1.8261,-1.7398,-1.6156,-1.6116,-1.6316,-1.6374,-1.6413,-1.6748,-1.7758,-1.7849,-1.8355,0.0,0.0,0.0,0.0,0.0,0.0,0.0,0.0,0.0,0.0,0.0,0.0,0.0,-3.3418,-3.3491,-3.3733,-3.3607,-3.3607,-3.3733,-3.3481,-3.3418,-3.3418,-3.3418,-3.3418,-3.3355,-3.1405,0.0,0.0,0.0,0.0,0.0,-2.3376,-2.3106,-2.3106,-2.3106,-2.3106,-2.3106,-2.3106,-2.3106,-2.3106,0.0,0.0,0.0,0.0,0.0,0.0,0.0,-1.3549,-1.3761,-1.3799,-1.3791,-1.3821,-1.386,-1.3761,-1.3692,-1.3692,-1.3619,0.0,0.0,0.0,0.0,0.0,0.0,0.0,-1.5264,-1.5787,-1.6032,-1.5887,-1.5509,-1.5547,-1.5887,-1.5746,-1.595,-1.6457,-1.6694,-1.6818,0.0,0.0,0.0,0.0,0.0,0.0,-1.5652,0.0,0.0,0.0,0.0,0.0,0.0,0.0,0.0,0.0,0.0,0.0,0.0,0.0,-1.6407,-1.7373,-1.886,-1.9989,-2.0683,-2.0254,-1.9795,0.0,0.0,-1.7444,-1.6748,-1.6036,-1.6173,-1.6413,-1.6413,-1.6413,-1.6738,-1.779,-1.773,0.0,0.0,0.0,0.0,0.0,0.0,0.0,0.0,0.0,0.0,0.0,0.0,0.0,0.0,0.0,-3.3544,-3.3859,-3.3544,-3.3481,-3.3733,-3.3481,-3.3418,-3.3418,-3.3418,-3.3418,-3.3355,-3.1598,0.0,0.0,0.0,0.0,0.0,-2.3376,-2.3106,-2.3106,-2.3106,-2.3106,-2.3106,-2.3106,-2.3106,-2.3106,0.0,0.0,0.0,0.0,0.0,0.0,0.0,-1.407,-1.416,-1.389,-1.4109,-1.4237,-1.404,-1.401,-1.401,-1.401,0.0,0.0,0.0,0.0,0.0,0.0,0.0,0.0,-1.4249,-1.4715,-1.482,-1.4505,-1.442,-1.4411,-1.4439,-1.4941,-1.5419,-1.584,-1.6433,-1.6729,-1.6818,-1.6846,-1.6825,-1.675,-1.6243,-1.5733,0.0,0.0,0.0,0.0,0.0,0.0,0.0,0.0,0.0,0.0,0.0,0.0,0.0,0.0,0.0,0.0,0.0,-1.8844,-1.9873,-2.0095,0.0,0.0,0.0,-1.7169,0.0,-1.6004,-1.6173,-1.6423,-1.6454,-1.6425,-1.6736,-1.7647,-1.7541,0.0,0.0,0.0,0.0,0.0,0.0,0.0,0.0,0.0,0.0,0.0,0.0,0.0,0.0,0.0,-3.3544,-3.3859,-3.3544,-3.3418,-3.3418,-3.3418,-3.3418,-3.3418,-3.3418,-3.3418,-3.3418,-3.3155,0.0,0.0,0.0,0.0,0.0,-2.3369,-2.3106,-2.3106,-2.3106,-2.3106,-2.3106,-2.3106,-2.3106,-2.3106,0.0,0.0,0.0,0.0,0.0,0.0,0.0,0.0,0.0,0.0,-1.4378,-1.4267,-1.4237,-1.4079,-1.401,0.0,0.0,0.0,0.0,0.0,0.0,0.0,0.0,0.0,-1.4715,-1.5352,-1.5622,-1.5551,-1.4724,-1.4476,-1.4756,-1.4297,-1.4353,-1.4868,-1.5505,-1.6172,-1.6818,-1.7071,-1.6938,-1.651,-1.5939,-1.5629,0.0,0.0,0.0,0.0,-1.6577,-1.6722,0.0,0.0,0.0,0.0,0.0,0.0,0.0,0.0,-1.4743,-1.4451,-1.4925,0.0,-1.6737,-1.6148,-1.6787,-1.7334,0.0,-1.6578,0.0,0.0,0.0,0.0,0.0,-1.6862,-1.7265,-1.8547,0.0,0.0,0.0,0.0,0.0,0.0,0.0,0.0,0.0,0.0,0.0,0.0,0.0,0.0,0.0,0.0,-3.3418,-3.3544,-3.3418,-3.3544,-3.3796,-3.3796,-3.367,-3.3418,-3.3418,-3.3418,-3.3355,-3.1139,0.0,0.0,0.0,0.0,-2.3676,-2.3274,-2.3106,-2.3106,-2.3106,-2.3106,-2.3106,-2.3106,-2.3106,-2.3106,0.0,0.0,0.0,0.0,0.0,0.0,0.0,0.0,0.0,0.0,0.0,-1.4536,-1.4297,-1.4378,0.0,0.0,0.0,0.0,0.0,0.0,0.0,0.0,0.0,-1.4328,-1.431,-1.4624,-1.4627,-1.4298,-1.375,-1.3508,-1.358,-1.3543,-1.3728,-1.4096,-1.5255,-1.6171,-1.6797,-1.6917,-1.6907,-1.6809,-1.6005,0.0,0.0,0.0,0.0,0.0,-1.6738,-1.6807,0.0,-1.6637,-1.6506,-1.6371,0.0,0.0,0.0,0.0,-1.4355,-1.3958,-1.3885,-1.4751,-1.5578,-1.5278,-1.6084,-1.6789,-1.6346,-1.6343,-1.641,0.0,0.0,0.0,0.0,0.0,0.0,0.0,0.0,0.0,0.0,0.0,0.0,0.0,0.0,0.0,0.0,0.0,0.0,0.0,0.0,0.0,0.0,0.0,-3.3481,-3.3607,-3.3607,-3.367,-3.367,-3.367,-3.3607,-3.3418,-3.3418,-3.3418,-3.3355,-3.179,0.0,0.0,0.0,0.0,-2.3574,-2.3245,-2.3106,-2.3106,-2.3106,-2.3106,-2.3106,-2.3106,-2.3106,-2.3106,0.0,0.0,0.0,0.0,0.0,0.0,0.0,0.0,0.0,0.0,0.0,0.0,0.0,0.0,0.0,0.0,0.0,0.0,0.0,0.0,0.0,0.0,-1.4255,-1.4053,-1.3821,-1.3561,-1.3229,-1.2785,-1.2572,-1.2371,-1.2203,-1.2876,-1.3289,-1.3596,-1.5282,-1.6269,-1.669,-1.664,-1.6841,-1.7092,-1.6236,0.0,0.0,0.0,0.0,0.0,0.0,0.0,0.0,-1.6655,-1.6534,-1.6348,-1.5863,0.0,0.0,0.0,0.0,0.0,-1.3679,-1.4759,-1.583,-1.5778,-1.6223,-1.6647,-1.6587,-1.636,-1.6142,0.0,0.0,0.0,0.0,-1.7482,0.0,0.0,0.0,0.0,0.0,0.0,0.0,0.0,0.0,0.0,0.0,0.0,0.0,0.0,0.0,0.0,0.0,0.0,0.0,-3.3859,-3.3922,-3.3796,-3.3481,-3.3481,-3.3418,-3.3418,-3.3418,-3.3418,-3.3418,-3.3165,-3.1475,0.0,0.0,0.0,-2.3501,-2.3223,-2.3106,-2.3106,-2.3106,-2.3106,-2.3106,-2.3106,-2.3106,-2.3106,0.0,0.0,0.0,0.0,0.0,0.0,0.0,0.0,0.0,0.0,0.0,0.0,0.0,0.0,0.0,0.0,0.0,0.0,0.0,0.0,0.0,-1.5469,-1.4476,-1.4227,-1.4778,-1.3734,-1.3632,-1.4597,-1.2966,-1.2475,-1.3077,-1.2418,-1.2689,-1.3721,-1.5065,-1.5866,-1.626,-1.6906,-1.6961,-1.6623,-1.6443,0.0,0.0,0.0,0.0,0.0,0.0,0.0,0.0,-1.6684,-1.6581,-1.6468,-1.588,0.0,0.0,0.0,0.0,0.0,-1.4097,-1.6042,-1.7482,-1.5615,-1.6051,-1.6854,-1.6502,-1.6397,-1.6345,0.0,0.0,0.0,0.0,-1.7905,0.0,0.0,0.0,0.0,0.0,0.0,0.0,0.0,0.0,0.0,0.0,0.0,0.0,0.0,0.0,0.0,0.0,0.0,0.0,-3.3922,-3.4173,-3.4173,-3.3859,-3.3796,-3.367,-3.3418,-3.3418,-3.3418,-3.3355,-3.2174,-3.0465,0.0,0.0,-2.5241,-2.3179,-2.3128,-2.3106,-2.3106,-2.3106,-2.3106,-2.3106,-2.3106,-2.3106,-2.3106,0.0,0.0,0.0,0.0,0.0,0.0,0.0,0.0,0.0,0.0,0.0,0.0,0.0,0.0,0.0,0.0,0.0,0.0,0.0,0.0,-1.5941,-1.5923,-1.5189,-1.4789,-1.4878,-1.3894,-1.3577,-1.4035,-1.2851,-1.25,-1.299,-1.3051,-1.342,-1.4092,-1.5386,-1.5909,-1.5827,-1.6558,-1.6885,-1.6907,0.0,0.0,0.0,0.0,0.0,0.0,0.0,0.0,0.0,0.0,-1.6511,-1.6497,-1.5405,0.0,0.0,0.0,0.0,0.0,-1.3845,-1.5522,-1.7,-1.6398,-1.8119,-1.9899,-1.9544,-1.9274,-1.8862,0.0,0.0,0.0,0.0,0.0,0.0,0.0,0.0,0.0,0.0,0.0,0.0,0.0,0.0,0.0,0.0,0.0,0.0,0.0,0.0,0.0,0.0,0.0,0.0,0.0,-3.4235,-3.4235,-3.3922,-3.3922,-3.3733,-3.3418,-3.3418,-3.3418,-3.3355,-3.2535,-3.069,-2.8243,0.0,-2.547,-2.3106,-2.3106,-2.3106,-2.3106,-2.3106,-2.3106,-2.3106,-2.3106,-2.3106,-2.3106,0.0,0.0,0.0,0.0,0.0,0.0,0.0,0.0,0.0,0.0,0.0,0.0,0.0,0.0,0.0,0.0,0.0,0.0,0.0,-1.6485,-1.6524,-1.6285,-1.5815,-1.5358,-1.4897,-1.4007,-1.3479,-1.3416,-1.2683,-1.2476,-1.2722,-1.3659,-1.4158,-1.4299,-1.5563,-1.5862,-1.545,-1.6186,-1.665,-1.6825,0.0,0.0,0.0,0.0,0.0,0.0,0.0,0.0,0.0,0.0,0.0,0.0,0.0,0.0,0.0,-1.4056,-1.3703,-1.3638,-1.3831,-1.5143,-1.6625,-1.7396,-1.9441,-2.135,-2.1752,-2.1257,-2.0532,0.0,0.0,0.0,0.0,0.0,0.0,0.0,0.0,0.0,0.0,0.0,0.0,0.0,0.0,0.0,0.0,0.0,0.0,0.0,0.0,0.0,0.0,0.0,0.0,0.0,-3.436,-3.436,-3.4047,-3.4047,-3.3796,-3.3418,-3.3418,-3.3369,-3.3262,-3.2939,-3.1298,-2.8551,-2.7875,-2.6063,-2.3534,-2.323,-2.3106,-2.3106,-2.3106,-2.3106,-2.3106,-2.3106,-2.3106,-2.3106,0.0,0.0,0.0,0.0,0.0,0.0,0.0,0.0,0.0,0.0,0.0,0.0,0.0,0.0,0.0,0.0,0.0,0.0,0.0,-1.6694,-1.6779,-1.6761,-1.6197,-1.5642,-1.5167,-1.3951,-1.3549,-1.4043,-1.2757,-1.233,-1.2715,-1.3669,-1.4079,-1.4059,-1.5157,-1.5448,-1.5194,-1.6116,-1.6126,-1.5583,-1.6244,0.0,0.0,0.0,0.0,0.0,0.0,0.0,0.0,0.0,0.0,0.0,0.0,0.0,-1.4715,-1.4492,-1.4035,-1.3748,-1.4502,-1.603,-1.7593,-1.8317,-1.8029,-1.8217,-2.0532,-1.9839,-1.9224,-2.1121,0.0,0.0,0.0,0.0,0.0,0.0,0.0,0.0,0.0,0.0,0.0,0.0,0.0,0.0,0.0,0.0,0.0,0.0,0.0,0.0,0.0,0.0,0.0,0.0,0.0,-3.4673,-3.436,-3.436,-3.4047,-3.3418,-3.3418,-3.3213,-3.2842,-3.2803,-3.1579,-2.945,-2.8132,-2.6619,-2.4887,-2.3596,-2.3106,-2.3106,-2.3106,-2.3106,-2.3106,-2.3106,-2.3106,-2.3106,0.0,0.0,0.0,0.0,0.0,0.0,0.0,0.0,0.0,0.0,0.0,0.0,0.0,0.0,0.0,0.0,0.0,0.0,0.0,-1.7004,-1.7015,-1.6807,-1.6581,-1.6029,-1.5116,-1.4311,-1.3899,-1.3861,-1.339,-1.3254,-1.3486,-1.4831,-1.5076,-1.4418,-1.5563,-1.5715,-1.5088,-1.6041,-1.6493,-1.6597,-1.6989,-1.7093,0.0,0.0,0.0,0.0,0.0,0.0,0.0,0.0,-1.5777,-1.5709,-1.5099,-1.4818,-1.4623,-1.4191,-1.3827,-1.3707,-1.4235,-1.5958,-1.7732,-1.8231,-1.8438,-1.9219,-2.1958,-2.2464,-2.2603,-2.3264,-2.3786,0.0,0.0,0.0,0.0,0.0,0.0,0.0,0.0,0.0,0.0,0.0,0.0,0.0,0.0,0.0,0.0,0.0,0.0,0.0,0.0,0.0,0.0,0.0,0.0,-3.4735,-3.4423,-3.4423,-3.4173,-3.3733,-3.3217,-3.3086,-3.3164,-3.2363,-3.0841,-2.8703,-2.7669,-2.5921,-2.3845,-2.3293,-2.3106,-2.3106,-2.3106,-2.3106,-2.3106,-2.3106,-2.3106,-2.3106,0.0,0.0,0.0,0.0,0.0,0.0,0.0,0.0,0.0,0.0,0.0,0.0,0.0,0.0,0.0,0.0,0.0,0.0,-1.7078,-1.7172,-1.7088,-1.6864,-1.6733,-1.6224,-1.5235,-1.4804,-1.4224,-1.3524,-1.3836,-1.3992,-1.3985,-1.5299,-1.5423,-1.4626,-1.5861,-1.6009,-1.5394,-1.6289,-1.6765,-1.6911,-1.6983,-1.6961,0.0,0.0,0.0,0.0,0.0,0.0,0.0,0.0,-1.5381,-1.5337,-1.482,-1.4591,-1.4483,-1.4131,-1.4039,-1.4099,-1.4384,-1.5853,-1.7494,-1.8168,-1.8831,-2.0038,-2.2949,-2.3762,-2.4201,-2.5243,-2.5713,-2.5752,-2.5146,0.0,0.0,0.0,0.0,0.0,0.0,0.0,0.0,0.0,0.0,0.0,0.0,0.0,0.0,0.0,0.0,0.0,0.0,0.0,0.0,0.0,0.0,-3.4548,-3.4423,-3.4423,-3.4235,-3.3912,-3.3237,-3.3064,-3.3193,-3.2314,-3.1072,-2.9413,-2.7896,-2.6146,-2.4486,-2.3628,-2.3267,-2.3252,-2.3149,-2.3106,-2.3106,-2.3106,-2.3106,-2.3106,0.0,0.0,0.0,0.0,0.0,0.0,0.0,0.0,0.0,0.0,0.0,0.0,0.0,0.0,0.0,0.0,0.0,0.0,-1.7306,-1.7106,-1.7011,-1.6972,-1.662,-1.6195,-1.5701,-1.535,-1.4495,-1.3106,-1.3969,-1.4292,-1.411,-1.4729,-1.4823,-1.4562,-1.5825,-1.628,-1.6137,-1.6949,-1.6801,-1.6018,-1.5947,-1.5844,-1.5731,0.0,0.0,0.0,0.0,0.0,0.0,0.0,-1.5255,-1.47,-1.5383,-1.4952,-1.4236,-1.4451,-1.4747,-1.5021,-1.5157,-1.5846,-1.6866,-1.8247,-1.8984,-2.0117,-2.3125,-2.2822,-2.3018,-2.6926,-2.7002,-2.6406,-2.6387,0.0,0.0,0.0,0.0,0.0,0.0,0.0,0.0,0.0,0.0,0.0,0.0,0.0,0.0,0.0,0.0,0.0,0.0,0.0,0.0,0.0,0.0,0.0,-3.4423,-3.4423,-3.4235,-3.3922,-3.3495,-3.3112,-3.2803,-3.2793,-3.2568,-3.2027,-2.8975,-2.7631,-2.7384,-2.4715,-2.3596,-2.3559,-2.3237,-2.3106,-2.3106,-2.3106,-2.3106,-2.3106,0.0,0.0,0.0,0.0,0.0,0.0,0.0,0.0,0.0,0.0,0.0,0.0,0.0,0.0,0.0,0.0,0.0,0.0,-1.7106,-1.7039,-1.6881,-1.6591,-1.6459,-1.6072,-1.5361,-1.4477,-1.3797,-1.3387,-1.3445,-1.3587,-1.3836,-1.4777,-1.5008,-1.4664,-1.5444,-1.5711,-1.5632,-1.6107,-1.6534,-1.6872,-1.7175,-1.7086,-1.6749,0.0,0.0,0.0,0.0,0.0,0.0,0.0,0.0,0.0,-1.4558,-1.4529,-1.4433,-1.4471,-1.466,-1.4905,-1.5147,-1.7063,0.0,-1.8662,0.0,0.0,0.0,-2.4441,0.0,0.0,-2.791,-2.7451,0.0,0.0,0.0,0.0,0.0,0.0,0.0,0.0,0.0,0.0,0.0,0.0,0.0,0.0,0.0,0.0,0.0,0.0,0.0,0.0,0.0,0.0,0.0,0.0,-3.4047,-3.4298,-3.4235,-3.3922,-3.3793,-3.3546,-3.3213,-3.2627,-3.1992,-3.124,-2.9998,-2.8391,-2.6437,-2.4434,-2.3464,-2.3245,-2.3142,-2.3106,-2.3106,-2.3106,-2.3106,-2.3106,0.0,0.0,0.0,0.0,0.0,0.0,0.0,0.0,0.0,0.0,-1.4962,-1.5284,0.0,0.0,0.0,0.0,0.0,0.0,0.0,-1.6797,-1.6609,-1.6278,-1.6173,-1.5869,-1.5304,-1.4226,-1.3848,-1.4146,-1.3906,-1.3912,-1.4067,-1.5236,-1.5453,-1.4925,-1.5584,-1.5933,-1.6028,-1.6216,-1.6705,-1.7348,-1.7182,-1.6879,-1.6498,0.0,0.0,0.0,0.0,0.0,0.0,0.0,0.0,0.0,-1.4163,-1.4329,-1.4605,-1.4694,-1.5163,-1.5825,-1.6548,-1.846,0.0,-2.0595,-2.2373,-2.4404,-2.583,0.0,0.0,0.0,0.0,0.0,0.0,0.0,0.0,0.0,0.0,0.0,0.0,0.0,0.0,0.0,0.0,0.0,0.0,0.0,0.0,0.0,0.0,0.0,0.0,0.0,0.0,0.0,0.0,0.0,-3.3664,-3.402,-3.411,-3.3922,-3.3922,-3.3733,-3.3408,-3.29,-3.2411,-3.1841,-3.0918,-2.8822,-2.608,-2.4916,-2.397,-2.3288,-2.3157,-2.3106,-2.3106,-2.3106,-2.3106,-2.3106,0.0,0.0,0.0,0.0,0.0,0.0,0.0,0.0,0.0,0.0,-1.5147,-1.5274,0.0,0.0,0.0,0.0,0.0,0.0,0.0,-1.6449,-1.6278,-1.6085,-1.5817,-1.5575,-1.541,-1.4536,-1.4394,-1.5036,-1.4807,-1.4683,-1.4627,-1.5792,-1.594,-1.5264,-1.6006,-1.6502,-1.6775,-1.6775,-1.7071,-1.7403,-1.6413,-1.5841,-1.5536,-1.5089,0.0,0.0,0.0,0.0,0.0,0.0,0.0,0.0,-1.4198,-1.4418,-1.4835,-1.5024,-1.6038,-1.7431,-1.87,-1.9859,0.0,-2.3232,-2.4199,0.0,-2.7207,-2.7988,-2.8291,0.0,0.0,0.0,0.0,0.0,0.0,0.0,0.0,0.0,0.0,0.0,0.0,0.0,0.0,0.0,0.0,0.0,0.0,0.0,0.0,0.0,0.0,0.0,0.0,0.0,0.0,0.0,-3.3228,-3.3644,-3.3862,0.0,-3.3902,-3.3733,-3.3418,-3.3418,-3.3418,-3.3272,-3.1526,-2.9075,-2.6336,-2.5763,-2.4786,-2.3523,-2.323,-2.3106,-2.3106,-2.3106,-2.3106,-2.3106,0.0,0.0,0.0,0.0,0.0,0.0,0.0,0.0,0.0,0.0,0.0,0.0,0.0,0.0,0.0,0.0,0.0,0.0,0.0,-1.6171,-1.6038,-1.5788,-1.5478,-1.5352,-1.541,-1.4884,-1.4586,-1.4552,-1.3721,-1.3811,-1.4757,-1.4914,-1.5128,-1.5362,-1.528,-1.5427,-1.5723,-1.582,-1.6197,-1.6753,-1.6772,-1.6565,-1.6203,-1.5316,-1.4563,0.0,0.0,0.0,0.0,0.0,0.0,0.0,-1.5013,-1.5279,-1.5492,-1.5542,-1.6807,-1.823,-1.8546,-2.0549,0.0,0.0,-2.4883,-2.667,-2.7532,-2.7988,0.0,0.0,0.0,0.0,0.0,0.0,0.0,0.0,0.0,0.0,0.0,0.0,0.0,0.0,0.0,0.0,0.0,0.0,0.0,0.0,0.0,0.0,0.0,0.0,0.0,0.0,0.0,-3.2478,-3.2772,-3.3208,-3.3426,0.0,-3.3763,-3.3733,-3.3418,-3.3418,-3.3418,-3.3282,-3.0662,-2.8944,-2.7685,-2.5393,-2.3988,-2.3208,-2.3135,-2.3106,-2.3106,-2.3106,-2.3106,-2.3106,0.0,0.0,0.0,0.0,0.0,0.0,0.0,0.0,0.0,0.0,0.0,0.0,0.0,0.0,0.0,0.0,0.0,0.0,0.0,0.0,-1.5807,-1.5575,-1.54,-1.5313,-1.5313,-1.4839,-1.4705,-1.4869,-1.4105,-1.4173,-1.5046,-1.5348,-1.5596,-1.5782,-1.5544,-1.5394,-1.5355,-1.5465,-1.5576,-1.5757,-1.6093,-1.5818,-1.5224,-1.5461,-1.4903,-1.4086,-1.4431,0.0,0.0,0.0,0.0,0.0,0.0,0.0,-1.5913,-1.6005,-1.6856,-1.8096,-1.9605,0.0,0.0,-2.4531,0.0,-2.7187,-2.7822,-2.8135,0.0,0.0,0.0,0.0,0.0,0.0,0.0,0.0,0.0,0.0,0.0,0.0,0.0,0.0,0.0,0.0,0.0,0.0,0.0,0.0,0.0,0.0,0.0,0.0,0.0,0.0,-3.1631,-3.1906,-3.2086,-3.2519,-3.2895,-3.304,-3.3257,-3.3348,-3.3418,-3.3418,-3.3418,-3.3282,-3.1002,-2.9465,-2.8374,-2.5866,-2.4269,-2.3325,-2.3171,-2.3106,-2.3106,-2.3106,-2.3106,-2.3106,0.0,0.0,0.0,0.0,0.0,0.0,0.0,0.0,0.0,0.0,0.0,0.0,0.0,0.0,0.0,0.0,0.0,0.0,0.0,0.0,0.0,-1.5526,-1.5468,-1.5391,-1.5323,-1.4898,-1.4907,-1.541,-1.5251,-1.5339,-1.5667,-1.6235,-1.6427,-1.6276,-1.6181,-1.5914,-1.5548,-1.5567,-1.5321,-1.4972,-1.5216,-1.4782,-1.407,-1.5184,-1.5016,-1.4292,-1.5034,-1.5258,-1.5253,-1.5577,0.0,0.0,0.0,0.0,-1.617,-1.6345,-1.6831,-1.7871,-2.0464,0.0,-2.278,-2.6153,-2.7012,0.0,-2.8096,0.0,0.0,0.0,0.0,0.0,0.0,0.0,0.0,0.0,0.0,0.0,0.0,0.0,0.0,0.0,0.0,0.0,0.0,0.0,0.0,0.0,0.0,0.0,0.0,0.0,-3.0889,-3.0889,-3.123,-3.1406,-3.1465,-3.1896,-3.2297,-3.264,-3.2786,-3.2978,-3.331,-3.3389,-3.3418,-3.3272,-3.1427,-2.9867,-2.8554,-2.6349,-2.4705,-2.3567,-2.3237,-2.3142,-2.3186,-2.3128,-2.3106,-2.3106,0.0,0.0,0.0,0.0,0.0,0.0,0.0,0.0,0.0,0.0,-1.5352,0.0,0.0,0.0,0.0,0.0,0.0,0.0,0.0,0.0,0.0,-1.5999,-1.5739,-1.5652,-1.5787,-1.5737,-1.5612,-1.541,-1.683,-1.7368,-1.7036,-1.6736,-1.6578,-1.6558,-1.665,-1.6652,-1.6567,-1.6297,-1.5741,-1.506,-1.5002,-1.4817,-1.4499,-1.3838,-1.3627,-1.3735,-1.4024,-1.4228,-1.4526,-1.5657,-1.5977,0.0,0.0,0.0,-1.6358,-1.6392,-1.738,-1.8532,-1.8827,0.0,-2.3653,0.0,-2.7012,-2.7246,0.0,0.0,0.0,0.0,0.0,0.0,0.0,0.0,0.0,0.0,0.0,0.0,0.0,0.0,0.0,0.0,0.0,0.0,0.0,0.0,0.0,0.0,0.0,0.0,0.0,-3.0889,-3.0889,-3.0889,-3.0947,-3.1084,-3.1297,-3.1505,-3.175,-3.2108,-3.2564,-3.2822,-3.2891,-3.3252,-3.3418,-3.3228,-3.056,-2.9004,-2.814,-2.5448,-2.4038,-2.3567,-2.3237,-2.3281,-2.3501,-2.3215,-2.3106,-2.3106,0.0,0.0,0.0,0.0,0.0,0.0,0.0,0.0,0.0,0.0,0.0,-1.5381,0.0,0.0,0.0,0.0,0.0,0.0,0.0,0.0,0.0,-1.57,-1.543,-1.543,-1.5778,-1.5681,-1.5761,-1.6068,-1.711,-1.7499,-1.7297,-1.7801,-1.7885,-1.7563,-1.7473,-1.7113,-1.6644,-1.6602,-1.5914,-1.4903,-1.5177,-1.5655,-1.6151,-1.5478,-1.5673,-1.6208,-1.5637,-1.5411,-1.5535,-1.6175,-1.6332,-1.6346,-1.6602,0.0,0.0,0.0,-1.6884,-1.7767,-1.946,-2.159,-2.3865,0.0,-2.6836,-2.7178,0.0,0.0,0.0,0.0,0.0,0.0,0.0,0.0,0.0,0.0,0.0,0.0,0.0,0.0,0.0,0.0,0.0,0.0,0.0,0.0,0.0,0.0,0.0,0.0,-3.0889,-3.0889,-3.0889,-3.0889,-3.0889,-3.0947,-3.1054,-3.1133,-3.1348,-3.1702,-3.2209,-3.2568,-3.2803,-3.2988,-3.3203,-3.3282,-3.1093,-2.9575,-2.8434,-2.6192,-2.4694,-2.3859,-2.3713,-2.3632,-2.3581,-2.3435,-2.3267,-2.3106,0.0,0.0,0.0,0.0,0.0,0.0,0.0,0.0,0.0,0.0,0.0,0.0,0.0,0.0,0.0,0.0,0.0,0.0,0.0,0.0,0.0,-1.5604,-1.5391,-1.5576,-1.6152,-1.5996,-1.6236,-1.6951,-1.7507,-1.7809,-1.7864,-1.8786,-1.903,-1.8698,-1.8385,-1.7817,-1.7068,-1.7042,-1.6269,-1.5131,-1.5878,-1.6616,-1.729,-1.714,-1.7575,-1.8055,-1.689,-1.6384,-1.6287,-1.6413,-1.6457,-1.6485,0.0,0.0,0.0,0.0,0.0,0.0,0.0,0.0,-2.2683,-2.5173,-2.6045,-2.6582,0.0,0.0,0.0,0.0,0.0,0.0,0.0,0.0,0.0,0.0,0.0,0.0,0.0,0.0,0.0,0.0,0.0,0.0,0.0,0.0,0.0,0.0,0.0,0.0,-3.0889,-3.0889,-3.0889,-3.0889,-3.0889,-3.0889,-3.0889,-3.0889,-3.1055,-3.1367,-3.1917,-3.2289,-3.2471,-3.2763,-3.2985,-3.3179,-3.1671,-3.0184,-2.8682,-2.6994,-2.5481,-2.4188,-2.402,-2.3859,-2.3698,-2.3537,-2.3318,-2.3106,0.0,0.0,0.0,0.0,0.0,0.0,0.0,0.0,0.0,0.0,0.0,0.0,-1.6132,-1.5825,-1.5691,-1.5915,-1.5487,0.0,0.0,0.0,0.0,-1.6226,-1.6132,0.0,-1.7376,-1.728,-1.7452,-1.7923,-1.872,-1.9187,-1.9292,-1.9284,-1.9474,-1.9802,-1.9408,-1.8992,-1.8542,-1.7916,-1.7011,-1.6133,-1.7321,-1.7493,-1.7091,-1.7624,-1.7802,-1.76,-1.6524,-1.6025,-1.5967,-1.6083,-1.6142,-1.6171,0.0,-1.6402,-1.6402,0.0,0.0,0.0,0.0,-1.8638,0.0,-2.3195,0.0,0.0,0.0,0.0,0.0,0.0,0.0,0.0,0.0,0.0,0.0,0.0,0.0,0.0,0.0,0.0,0.0,0.0,0.0,0.0,0.0,0.0,0.0,0.0,0.0,0.0,-3.0889,-3.0889,-3.0889,-3.0889,-3.0889,-3.0889,-3.0889,-3.0889,-3.0898,-3.0928,-3.1643,-3.186,-3.1601,-3.2595,-3.2962,-3.278,-3.1722,-3.0371,-2.87,-2.7263,-2.5836,-2.4481,-2.3866,-2.3801,-2.3984,-2.3362,-2.3128,-2.3106,0.0,0.0,0.0,0.0,0.0,0.0,0.0,0.0,0.0,0.0,0.0,0.0,0.0,-1.5384,-1.5603,-1.5904,-1.6223,0.0,0.0,0.0,0.0,-1.6526,-1.6292,-1.6514,-1.7277,-1.7602,-1.8088,-1.8763,-1.9071,-1.9307,-1.9522,-1.9366,-1.9384,-1.9506,-1.9274,-1.8991,-1.8648,-1.7989,-1.7308,-1.6789,-1.8127,-1.9133,-1.9772,-1.9162,-2.0058,0.0,0.0,0.0,0.0,0.0,0.0,0.0,-1.6153,-1.621,-1.622,-1.6374,-1.6345,0.0,0.0,0.0,0.0,-2.1382,-2.327,0.0,0.0,0.0,0.0,0.0,0.0,0.0,0.0,0.0,0.0,0.0,0.0,0.0,0.0,0.0,0.0,0.0,0.0,0.0,0.0,0.0,0.0,0.0,0.0,0.0,-3.0889,-3.0889,-3.0889,-3.0889,-3.0889,-3.0889,-3.0889,-3.0889,-3.0889,-3.0889,-3.1162,-3.1486,-3.1821,-3.1969,-3.2274,-3.2637,-3.2378,-3.1451,-3.0049,-2.8818,-2.7352,-2.5836,-2.4699,-2.4166,-2.4027,-2.3581,-2.3288,-2.3106,0.0,0.0,0.0,0.0,0.0,0.0,0.0,0.0,0.0,-1.5943,0.0,0.0,0.0,0.0,-1.6245,-1.6413,-1.6845,-1.7295,-1.7688,-1.6741,-1.6392,-1.6951,-1.6762,-1.6979,-1.7759,-1.7957,-1.853,-1.9426,-1.9169,-1.9265,-1.9671,-1.9374,-1.9241,-1.9274,-1.9008,-1.8863,-1.8804,-1.8175,-1.774,-1.7616,-1.9411,-2.0682,-2.1442,0.0,0.0,0.0,0.0,0.0,0.0,0.0,0.0,0.0,0.0,-1.6574,-1.622,-1.6374,-1.6413,0.0,-1.7635,0.0,0.0,0.0,0.0,0.0,0.0,0.0,0.0,0.0,0.0,0.0,0.0,0.0,0.0,0.0,0.0,0.0,0.0,0.0,0.0,0.0,0.0,0.0,0.0,0.0,0.0,0.0,0.0,0.0,-3.0889,-3.0889,-3.0889,-3.0889,-3.0889,-3.0889,-3.0889,-3.0889,-3.0889,-3.0889,-3.0995,-3.1259,-3.1663,-3.1594,-3.1821,-3.2245,-3.2419,-3.1884,-3.0754,-2.9678,-2.8186,-2.6563,-2.503,-2.4276,-2.4042,-2.372,-2.3457,-2.3274,0.0,0.0,0.0,0.0,0.0,0.0,0.0,0.0,-1.7455,-1.7574,0.0,0.0,0.0,0.0,0.0,-1.7563,-1.7357,-1.7367,-1.7543,-1.6928,-1.6855,-1.7512,0.0,0.0,-1.8871,-1.8467,-1.8773,-1.9868,-1.9104,-1.9115,-1.9868,-1.932,-1.9154,-1.9243,-1.8643,-1.8662,-1.9056,-1.8569,-1.8383,-1.8599,0.0,-2.1918,-2.176,0.0,0.0,0.0,-2.0323,-1.971,0.0,0.0,0.0,0.0,0.0,-1.7531,-1.6415,-1.6454,-1.6444,0.0,0.0,0.0,0.0,0.0,0.0,0.0,0.0,0.0,0.0,0.0,0.0,0.0,0.0,0.0,0.0,0.0,0.0,0.0,0.0,0.0,0.0,0.0,0.0,0.0,0.0,0.0,0.0,0.0,0.0,-3.0391,-3.085,-3.0889,-3.0889,-3.0889,-3.0889,-3.0889,-3.0889,-3.0889,-3.0889,-3.0889,-3.116,-3.117,-3.0947,-3.1508,-3.1679,-3.1494,-3.186,-3.153,-3.0663,-2.9651,-2.8243,-2.6605,-2.4863,-2.4158,-2.4042,-2.372,-2.3596,-2.3596,0.0,0.0,0.0,0.0,0.0,-1.7036,-1.7279,-1.7376,-1.7351,0.0,0.0,0.0,-1.6938,-1.7593,-1.817,-1.8501,-1.8635,-1.879,-1.8995,-1.8266,-1.7926,-1.8213,-1.8213,-1.8339,-1.8594,-1.9015,-1.9317,-1.9483,-1.9258,-1.9192,-1.9297,-1.8821,-1.86,-1.8633,-1.8465,-1.8476,-1.8548,-1.774,-1.7575,-1.8122,-2.0584,-2.1645,0.0,0.0,0.0,0.0,0.0,-2.2634,-2.2673,0.0,-2.1691,-1.9907,0.0,0.0,-1.7195,-1.7296,-1.7327,0.0,-1.7327,0.0,0.0,0.0,0.0,0.0,0.0,0.0,0.0,0.0,0.0,0.0,0.0,0.0,0.0,0.0,0.0,0.0,0.0,0.0,0.0,0.0,0.0,0.0,0.0,0.0,0.0,0.0,-3.0029,-3.0254,-3.0381,-3.0703,-3.0889,-3.0889,-3.0889,-3.0889,-3.0889,-3.0889,-3.0889,-3.0889,-3.1005,-3.1054,-3.1218,-3.117,-3.1229,-3.1357,-3.1555,-3.1521,-3.1239,-3.0544,-2.9491,-2.8048,-2.6598,-2.5191,-2.4042,-2.372,-2.3596,-2.3623,0.0,0.0,0.0,0.0,0.0,-1.7923,-1.7621,-1.7884,-1.8095,0.0,0.0,0.0,-1.7763,-1.8247,-1.8694,-1.8964,-1.9117,-1.9274,-1.9374,-1.8908,-1.8664,-1.8754,-1.8754,-1.8754,-1.8754,-1.8977,-1.9185,-1.9318,-1.9053,-1.902,-1.9175,-1.8861,-1.8704,-1.8694,-1.8497,-1.8414,-1.8362,-1.7534,0.0,0.0,-2.1024,0.0,0.0,-2.394,-2.4935,0.0,0.0,0.0,-2.4404,-2.4951,-2.3218,0.0,0.0,0.0,0.0,0.0,0.0,0.0,0.0,0.0,0.0,0.0,0.0,0.0,0.0,-2.2692,0.0,0.0,0.0,0.0,0.0,0.0,0.0,0.0,0.0,0.0,0.0,0.0,0.0,0.0,0.0,0.0,0.0,0.0,0.0,0.0,-2.9531,-2.9824,-3.0176,-3.0635,-3.0889,-3.0889,-3.0889,-3.0889,-3.0889,-3.0889,-3.0889,-3.0889,-3.0889,-3.1005,-3.1112,-3.0947,-3.1005,-3.1122,-3.1201,-3.1357,-3.1493,-3.1171,-3.0021,-2.8332,-2.6357,-2.5015,-2.4057,-2.3866,-2.3713,-2.363,0.0,0.0,-1.7954,-1.7234,-1.8432,-1.9223,-1.8308,-1.8789,-1.9218,0.0,-1.872,-1.8714,-1.9186,-1.9253,-1.9253,-1.9253,-1.9253,-1.9253,-1.9253,-1.9253,-1.9253,-1.9253,-1.9253,-1.9253,-1.9253,-1.8849,-1.8851,-1.9358,-1.8809,-1.8788,-1.9274,-1.909,-1.9025,-1.9005,-1.86,-1.8382,-1.8318,0.0,0.0,-1.9255,-2.183,-2.2872,0.0,0.0,-2.5331,0.0,-2.5331,-2.536,-2.5566,-2.6582,-2.4967,0.0,0.0,0.0,0.0,0.0,-1.7903,0.0,0.0,0.0,0.0,0.0,0.0,0.0,-2.2727,-2.2975,0.0,0.0,0.0,0.0,0.0,0.0,0.0,0.0,0.0,0.0,0.0,0.0,0.0,0.0,0.0,0.0,0.0,0.0,-2.8447,-2.8818,-2.8887,-2.9287,-3.0146,-3.0596,-3.084,-3.0889,-3.0889,-3.0889,-3.0889,-3.0889,-3.0889,-3.0889,-3.0889,-3.0889,-3.0889,-3.0889,-3.0889,-3.0947,-3.0889,-3.1103,-3.1445,-3.1069,-2.9919,-2.8063,-2.5535,-2.4461,-2.4331,-2.4107,-2.3909,-2.3723,0.0,-1.7804,-1.7971,-1.7963,-1.8521,-1.8907,-1.8678,-1.9228,-1.9689,-1.962,-1.9856,-2.0021,-2.0127,-2.0162,-2.0162,-2.0162,-2.0162,-2.0162,-2.0162,-2.0162,-2.0162,-2.0162,-2.0162,-2.0162,-2.0162,-2.0069,-1.9893,-1.9702,-1.9564,-1.9378,-1.9131,-1.8725,-1.8548,-1.8538,-1.8445,-1.8317,-1.8177,0.0,0.0,-2.0528,-2.1788,0.0,-2.3535,-2.5761,-2.6641,-2.6641,-2.6641,-2.6865,-2.7141,0.0,-2.583,-2.4656,0.0,0.0,0.0,0.0,0.0,0.0,0.0,0.0,0.0,0.0,0.0,0.0,-1.9968,-2.0241,0.0,0.0,0.0,0.0,0.0,0.0,0.0,0.0,0.0,0.0,0.0,0.0,0.0,0.0,0.0,0.0,0.0,0.0,-2.833,-2.8408,-2.873,-2.9287,-3.0146,-3.0283,-3.0508,-3.0879,-3.0889,-3.0889,-3.0889,-3.0889,-3.0889,-3.0889,-3.0889,-3.0889,-3.0889,-3.0889,-3.0995,-3.1218,-3.0995,-3.1044,-3.1162,-2.8535,-2.8402,-2.9626,-2.8,-2.6679,-2.5632,-2.4227,-2.3846,-2.4004,-1.9169,-1.9412,-1.9537,-1.9562,-1.9997,-2.0119,-1.9608,-2.0073,-2.0358,-2.012,-2.0286,-2.0385,-2.0385,-2.0324,-2.0278,-2.0385,-2.0216,-2.0089,-2.011,-1.9924,-1.9889,-2.0089,-1.9994,-2.0087,-2.0385,-2.0385,-2.0203,-1.9793,-1.9793,-1.9554,-1.9098,-1.887,-1.8756,-1.8756,-1.8625,-1.8537,-1.8448,0.0,-1.9553,-2.1224,-2.231,0.0,-2.4761,-2.6877,-2.7656,-2.7656,-2.7656,-2.7793,-2.791,-2.748,-2.6191,0.0,0.0,-2.3221,-2.2175,0.0,-2.0757,-2.1049,0.0,0.0,0.0,-1.9388,0.0,0.0,0.0,-2.0324,-2.0595,0.0,0.0,0.0,0.0,0.0,0.0,0.0,0.0,0.0,0.0,0.0,0.0,0.0,0.0,0.0,0.0,0.0,-2.8291,-2.8291,-2.8682,-2.9101,-2.9531,-2.9961,-3.0303,-3.0537,-3.0771,-3.0889,-3.0889,-3.0889,-3.0889,-3.0889,-3.0889,-3.0889,-3.0889,-3.0889,-3.1054,-3.1267,-3.0995,-3.1054,-3.115,-2.9561,-2.9697,-3.0518,-2.696,-2.5342,-2.4825,-2.3902,-2.3684,-2.3898,-2.0797,-2.0979,-2.0946,-2.0949,-2.1274,-2.1264,-2.0451,-2.0757,-2.0974,-2.0659,-2.0617,-2.0581,-2.0545,-2.0635,-2.0751,-2.0899,-2.0855,-2.0666,-2.0319,-2.0037,-1.988,-1.9932,-1.97,-1.9853,-2.0447,-2.0401,-2.0178,-1.9724,-1.9793,-1.9554,-1.9108,-1.9108,-1.9065,-1.9052,-1.9209,-1.9117,-1.8816,0.0,0.0,-2.2002,0.0,-2.432,-2.6045,-2.7676,-2.8291,-2.8291,-2.8291,-2.8291,-2.8252,-2.8008,0.0,-2.4385,-2.4941,-2.3869,0.0,0.0,0.0,0.0,0.0,0.0,0.0,0.0,0.0,-1.971,0.0,0.0,0.0,-2.1849,0.0,0.0,0.0,0.0,0.0,0.0,0.0,0.0,0.0,0.0,0.0,0.0,0.0,0.0,0.0,0.0,-2.7939,-2.8271,-2.8301,-2.8486,-2.8896,-2.958,-3.0029,-3.0185,-3.0566,-3.0801,-3.0889,-3.0889,-3.0889,-3.0889,-3.0889,-3.0889,-3.0889,-3.0947,-3.1112,-3.1267,-3.1054,-3.1112,-3.1383,-3.0956,-3.081,-3.0285,-2.571,-2.4093,-2.4272,-2.3713,-2.3521,-2.3666,-2.0671,-2.06,-2.0514,-2.0709,-2.0658,-2.0529,-2.0406,-2.0772,-2.1174,-2.1346,-2.1387,-2.1311,-2.1131,-2.209,-2.2753,-2.2794,0.0,0.0,-2.2292,0.0,-2.1628,-2.0572,-2.0081,-2.007,-2.0582,-2.0343,-1.9986,-1.9526,-1.9689,-1.9554,-1.9108,-1.9108,-1.8998,-1.8913,-2.0429,-2.0276,0.0,0.0,-2.1686,0.0,-2.3232,-2.4414,0.0,-2.7793,-2.8291,-2.8291,-2.8291,-2.8291,-2.8125,0.0,-2.6377,-2.5723,0.0,-2.4219,0.0,0.0,0.0,0.0,0.0,0.0,0.0,0.0,-2.0017,0.0,0.0,0.0,-1.9841,-1.9558,0.0,0.0,0.0,0.0,0.0,0.0,0.0,0.0,0.0,0.0,0.0,0.0,0.0,0.0,0.0,0.0,0.0,-2.8174,-2.6934,-2.6873,-2.8818,-2.9014,-2.9414,-3.0176,-3.0244,-3.0478,-3.0889,-3.0889,-3.0889,-3.0889,-3.0889,-3.0889,-3.0889,-3.117,-3.1267,-3.1325,-3.1267,-3.1441,-3.1614,-2.9905,-2.8683,-2.7908,-2.7237,-2.7078,-2.6847,-2.4128,-2.3329,-2.3611,-2.0985,-2.086,-2.099,-2.1641,-2.1441,-2.1311,-2.159,-2.1456,-2.1363,-2.1482,-2.1397,-2.1282,-2.1205,0.0,0.0,0.0,0.0,-2.3256,0.0,0.0,-2.1392,-2.0591,-1.9785,0.0,-2.0578,-2.0208,-1.9859,-1.9492,-1.9585,-1.9462,-1.9108,-1.8975,-1.8875,-1.8856,-2.0373,0.0,-2.0029,0.0,-2.1955,0.0,0.0,0.0,0.0,-2.7705,-2.8291,-2.8291,-2.8291,-2.8291,-2.8213,0.0,-2.6484,0.0,0.0,0.0,0.0,0.0,0.0,0.0,0.0,0.0,0.0,0.0,0.0,0.0,0.0,0.0,-1.9336,0.0,0.0,0.0,0.0,0.0,0.0,0.0,0.0,0.0,0.0,0.0,0.0,0.0,0.0,0.0,0.0,0.0,0.0,0.0,0.0,-2.6512,-2.8457,-2.8789,-2.9199,-2.9814,-3.0068,-3.042,-3.0889,-3.0889,-3.0889,-3.0889,-3.0889,-3.1005,-3.1112,-3.1112,-3.1276,-3.1556,-3.1383,-3.1498,-3.173,-3.1111,-3.009,-2.8801,-2.8059,-2.6722,-2.5133,-2.3877,-2.3706,-2.4187,-2.1373,0.0,0.0,-2.219,-2.2035,-2.1883,-2.2185,-2.1794,-2.1474,-2.1359,0.0,0.0,-2.1051,-2.1541,0.0,0.0,-2.386,-2.3737,0.0,0.0,-2.1616,0.0,0.0,0.0,0.0,0.0,-1.949,-1.916,-1.9274,-1.9203,-1.9008,-1.8875,-1.8774,-1.8789,0.0,-2.0948,-2.0958,0.0,0.0,-2.4108,-2.4248,-2.5039,-2.62,-2.7734,-2.8291,-2.8291,-2.8291,-2.8291,-2.8242,-2.7891,-2.6514,0.0,-2.6748,0.0,0.0,0.0,0.0,0.0,-2.0996,0.0,0.0,0.0,0.0,0.0,0.0,0.0,0.0,0.0,0.0,0.0,0.0,0.0,0.0,0.0,0.0,0.0,0.0,0.0,0.0,0.0,0.0,0.0,0.0,0.0,0.0,0.0,0.0,0.0,-2.8174,-2.8584,-2.8945,-2.9375,-2.9805,-3.0244,-3.0693,-3.083,-3.0889,-3.0889,-3.0889,-3.0995,-3.116,-3.1054,-3.1228,-3.1566,-3.1441,-3.1556,-3.1845,-3.2133,-3.1121,-2.9275,-2.8406,-2.6249,-2.3706,-2.353,-2.3861,-2.432,-2.1787,-2.1787,0.0,0.0,0.0,0.0,0.0,0.0,0.0,0.0,0.0,0.0,0.0,0.0,0.0,0.0,0.0,-2.6865,-2.3961,0.0,-2.3144,0.0,0.0,-1.9873,0.0,0.0,0.0,-1.8323,-1.866,-1.8828,-1.8808,-1.8808,-1.8717,-1.8616,-2.0587,-2.1371,-2.1288,-2.2998,-2.4707,-2.625,-2.584,-2.6152,-2.707,0.0,-2.8291,-2.8291,-2.8291,0.0,0.0,-2.6865,-2.6396,0.0,0.0,0.0,0.0,0.0,0.0,0.0,0.0,0.0,0.0,-2.0403,0.0,0.0,0.0,0.0,-1.9772,0.0,0.0,0.0,0.0,0.0,-1.8909,-1.7993,0.0,0.0,0.0,0.0,0.0,0.0,0.0,0.0,0.0,0.0,0.0,0.0,0.0,0.0,-2.8115,-2.8301,-2.8506,-2.8926,-2.9365,-2.9795,-3.0215,-3.0664,-3.0889,-3.0889,-3.0889,-3.0889,-3.0947,-3.116,-3.117,-3.0947,-3.1508,-3.1787,-3.1845,-3.2133,-3.0568,-2.8017,-2.8278,-2.6627,-2.3991,-2.3354,-2.3332,-2.3567,0.0,0.0,0.0,0.0,0.0,0.0,0.0,-2.1282,0.0,0.0,0.0,0.0,0.0,0.0,-2.4775,0.0,0.0,-2.623,-2.4326,-2.3945,0.0,0.0,0.0,-2.0039,0.0,0.0,0.0,0.0,0.0,-1.8909,-1.8617,-1.8617,-1.8516,-1.8436,0.0,-2.175,0.0,0.0,0.0,0.0,0.0,-2.5898,-2.7441,0.0,0.0,-2.7988,-2.8838,-2.9141,0.0,-2.8643,-2.7939,-2.7256,-2.7363,-2.6533,-2.5547,-2.5684,-2.542,0.0,0.0,0.0,-2.4552,-2.1997,0.0,0.0,0.0,0.0,0.0,0.0,0.0,0.0,0.0,0.0,-1.918,-1.9132,-1.876,0.0,0.0,0.0,0.0,0.0,0.0,0.0,0.0,0.0,0.0,0.0,0.0,0.0,0.0,-2.8291,-2.8486,-2.8906,-2.9346,-2.9766,-3.0195,-3.0664,-3.0889,-3.0889,-3.0889,-3.0995,-3.116,-3.1054,-3.1228,-3.1508,-3.173,-3.1903,-3.2133,-3.243,-3.1103,-2.8832,-2.8524,-2.7051,-2.5035,-2.4355,-2.4284,-2.4481,-2.1693,0.0,0.0,0.0,0.0,0.0,0.0,0.0,0.0,0.0,-2.2732,0.0,-2.4512,0.0,-2.5918,0.0,-2.7256,-2.6768,-2.5,-2.4912,0.0,-2.3467,-2.1943,0.0,0.0,0.0,0.0,0.0,0.0,-1.9084,-1.8644,-1.8644,-1.852,-1.8383,0.0,-2.1514,-2.3213,0.0,-2.5283,0.0,0.0,-2.5674,0.0,0.0,-2.7246,-2.8037,0.0,-2.9626,-2.9626,-2.9626,-2.9078,-2.8491,-2.8984,-2.8008,-2.6828,-2.7353,-2.6807,-2.5918,-2.5459,-2.585,0.0,-2.3315,-2.3166,0.0,-2.0564,0.0,0.0,0.0,0.0,0.0,0.0,0.0,-1.9558,-1.9231,-1.8954,-1.8748,0.0,-1.807,0.0,0.0,0.0,0.0,0.0,0.0,0.0,-2.4424,-2.468,0.0,0.0,0.0,-2.8418,-2.8682,-2.9268,-2.9697,-2.9971,-3.0586,-3.0889,-3.0889,-3.0889,-3.0995,-3.117,-3.1054,-3.1276,-3.1614,-3.1845,-3.2167,-3.2483,-3.2183,-3.1003,-2.9379,-2.8446,-2.6992,-2.5348,-2.4635,-2.4459,-2.4474,0.0,0.0,0.0,0.0,-2.1351,0.0,0.0,0.0,-2.1322,0.0,-2.3037,-2.3844,-2.5194,-2.6818,-2.7806,-2.7806,-2.8922,0.0,-2.5947,-2.6541,0.0,0.0,-2.4717,-2.4873,-2.5732,0.0,0.0,0.0,0.0,0.0,-1.8869,-1.8934,-1.8706,-1.8309,-1.9033,0.0,-2.3052,-2.3955,-2.5801,-2.7959,-2.5996,-2.5644,-2.6426,-2.6494,-2.7285,-2.8467,-2.9326,-2.9629,-2.9629,-2.9629,-2.9629,-2.9629,-2.9665,-2.9655,-2.9655,-2.9636,-2.9277,-2.8691,-2.7471,-2.6836,-2.6103,-2.4375,0.0,0.0,0.0,0.0,-2.2201,0.0,0.0,0.0,0.0,0.0,0.0,-1.8443,-1.8745,-1.887,-1.8052,0.0,0.0,0.0,0.0,0.0,0.0,0.0,-1.9594,-2.2272,-2.2886,-2.391,0.0,0.0,-2.8203,-2.8291,-2.9121,-2.9626,-2.9626,-3.0449,-3.0889,-3.0889,-3.0889,-3.0889,-3.0889,-3.116,-3.1267,-3.1325,-3.196,-3.2503,-3.2784,-3.1445,-3.0424,-2.9493,-2.8162,-2.6587,-2.5018,-2.4378,-2.3925,-2.364,-2.2391,-2.2231,-2.2029,0.0,-2.1451,-2.1054,0.0,0.0,0.0,0.0,-2.4962,-2.5928,-2.8227,-2.8809,-2.9137,-2.9137,-2.943,0.0,0.0,0.0,0.0,-2.7063,-2.5703,-2.5459,-2.666,-2.3838,0.0,-2.1719,0.0,0.0,-1.8678,-1.9199,-1.8942,-1.8125,0.0,0.0,-2.1736,-2.2637,-2.4121,-2.5947,-2.6006,-2.6377,0.0,0.0,-2.8672,-2.9355,-3.0234,-3.0557,-3.0557,-3.0557,-3.0557,-3.0498,-3.0146,-3.0039,-2.9971,-2.9658,-2.9492,-2.9326,-2.9004,-2.8594,-2.793,-2.6543,-2.5703,-2.491,0.0,0.0,0.0,0.0,0.0,0.0,0.0,0.0,0.0,0.0,-1.8862,0.0,0.0,0.0,0.0,0.0,0.0,0.0,0.0,0.0,-2.1412,-2.2076,-2.3183,-2.4935,0.0,0.0,0.0,-2.8252,-2.9121,-2.9626,-2.9626,-3.0449,-3.0889,-3.0889,-3.0889,-3.0889,-3.0889,-3.0947,-3.1112,-3.1325,-3.173,-3.2329,-3.2901,-3.2774,-3.1624,-2.9915,-2.9325,-2.7434,-2.5055,-2.4907,-2.4598,-2.4284,-2.2513,0.0,0.0,-2.2091,0.0,0.0,-2.2483,0.0,0.0,-2.5323,-2.5908,0.0,-2.8789,-2.9697,-3.0146,-3.0146,-3.0146,0.0,0.0,0.0,0.0,-2.7969,-2.7415,-2.7383,-2.8115,-2.5732,0.0,-2.3315,0.0,0.0,-1.9163,-1.9536,-1.9328,-1.8613,0.0,-2.0615,0.0,-2.3916,-2.5107,-2.5742,-2.6797,0.0,0.0,-2.8652,-2.9434,-3.0215,-3.0713,-3.0889,-3.0889,-3.0889,-3.0889,-3.084,-3.0586,-3.0498,-3.0449,-3.0215,-3.0,-2.9844,-2.9844,-2.9531,-2.9033,-2.831,-2.7627,-2.6797,-2.5498,-2.5153,-2.4943,0.0,0.0,0.0,0.0,0.0,0.0,0.0,0.0,0.0,0.0,0.0,0.0,0.0,0.0,0.0,0.0,0.0,-2.0885,-2.0726,-2.191,-2.3378,0.0,0.0,0.0,-2.7422,-2.8467,-2.9189,-2.9626,-3.0068,-3.0508,-3.0889,-3.0889,-3.0889,-3.0889,-3.0995,-3.117,-3.1344,-3.1814,-3.2496,-3.3099,-3.1984,-3.1071,-3.0246,-2.8525,-2.6787,-2.5329,-2.5127,-2.4914,-2.4547,0.0,0.0,0.0,0.0,0.0,0.0,0.0,-2.3223,0.0,-2.5781,0.0,-2.7295,-2.8574,-3.0117,-3.1055,-3.1055,0.0,-3.0547,-2.9336,-2.9961,-2.9853,-2.8682,-2.9287,-2.9704,-2.9704,-2.7978,0.0,0.0,0.0,0.0,-2.0,-2.0,-1.9746,-1.9307,0.0,0.0,0.0,-2.5937,-2.6914,0.0,-2.7832,-2.8594,-2.8935,-2.9111,-2.9893,-3.0889,-3.0889,-3.0889,-3.0889,-3.0889,-3.0889,-3.0889,-3.0889,-3.0889,-3.0889,-3.0889,-3.0605,-3.0293,-3.0293,-2.9971,-2.9704,-2.9704,-2.9326,-2.8711,-2.7598,-2.7021,-2.6446,-2.5472,-2.5186,-2.5201,0.0,0.0,0.0,0.0,0.0,0.0,0.0,0.0,0.0,0.0,0.0,0.0,0.0,0.0,-1.9226,-1.903,-1.9889,0.0,0.0,0.0,0.0,-2.6611,-2.7822,0.0,-2.9394,0.0,-3.0068,-3.0723,-3.084,-3.0889,-3.0889,-3.116,-3.1267,-3.1354,-3.2074,-3.2871,-3.3376,-3.0668,-2.9853,-3.006,-2.6828,-2.5599,-2.5532,-2.5262,-2.4943,-2.4627,0.0,0.0,0.0,0.0,0.0,-2.5205,-2.6289,-2.5967,-2.6269,-2.8115,-2.874,-2.9512,-3.081,-3.1543,-3.1943,-3.1943,-3.1943,0.0,0.0,0.0,0.0,-3.0459,-3.0215,-3.0088,-3.0088,-2.8428,-2.6924,0.0,0.0,0.0,-2.0488,-2.0488,-2.0077,-1.9336,0.0,0.0,-2.3623,-2.458,0.0,-2.6533,-2.8154,-2.8848,-2.9043,-3.0127,-3.0693,-3.0889,-3.0889,-3.0889,-3.0889,-3.0889,-3.0889,-3.0889,-3.0889,-3.0889,-3.0889,-3.0889,-3.083,-3.0771,-3.0771,-3.043,-3.0088,-3.0088,-2.9766,-2.9404,-2.918,-2.8789,-2.8408,-2.8237,-2.7904,-2.7346,-2.6339,0.0,0.0,0.0,0.0,0.0,0.0,0.0,0.0,0.0,0.0,0.0,0.0,0.0,0.0,0.0,0.0,0.0,0.0,0.0,0.0,0.0,0.0,0.0,0.0,0.0,-3.0371,-2.9814,-3.0547,-3.0889,-3.0889,-3.0947,-3.1112,-3.1354,-3.2143,-3.294,-3.3496,-3.2221,-3.0274,-2.7982,-2.6241,-2.5464,-2.5187,-2.5464,-2.5292,-2.4995,0.0,0.0,0.0,0.0,0.0,0.0,0.0,-2.8935,0.0,-2.9268,-2.9629,-3.0137,-3.0762,-3.1631,-3.2229,-3.2229,-3.2229,-3.208,-3.1865,-3.1641,-3.1426,-3.123,-3.0791,0.0,-3.0557,-2.9521,-2.8027,-2.6074,0.0,0.0,-2.129,-2.129,-2.1065,-2.0703,0.0,-2.334,0.0,0.0,0.0,-2.7832,-2.9336,-2.9941,-3.001,-3.0644,-3.0889,-3.0889,-3.0889,-3.0889,-3.0889,-3.0889,-3.0889,-3.0889,-3.0889,-3.0889,-3.0889,-3.0889,-3.0889,-3.0889,-3.0889,-3.0732,-3.0557,-3.0557,-3.0225,-2.9893,-2.9893,-2.956,-2.9258,-2.9258,-2.8916,-2.8164,-2.666,-2.4768,0.0,0.0,0.0,0.0,0.0,0.0,0.0,0.0,0.0,0.0,0.0,0.0,0.0,0.0,0.0,0.0,0.0,0.0,0.0,0.0,0.0,0.0,0.0,0.0,0.0,-3.0264,-3.0693,-3.0889,-3.0889,-3.0889,-3.1064,-3.1466,-3.2256,-3.2493,-3.2206,-3.0574,-2.8473,-2.6226,-2.5584,-2.5262,-2.5127,-2.5262,-2.5262,-2.5097,0.0,-2.3491,0.0,0.0,-2.6945,0.0,-2.9512,-3.1182,-3.1777,-3.0312,-3.0488,-3.0752,-3.0752,-3.1758,-3.2441,-3.2441,-3.2441,-3.2393,-3.2305,-3.1982,-3.1748,-3.166,-3.125,-3.1025,-3.1025,-3.0576,-2.9219,0.0,0.0,0.0,0.0,-2.2051,0.0,0.0,0.0,0.0,0.0,0.0,-2.9082,-2.9434,-3.0469,-3.0889,-3.0889,-3.0889,-3.0889,-3.0889,-3.0889,-3.0889,-3.0889,-3.0889,-3.0889,-3.0889,-3.0889,-3.0889,-3.0889,-3.0889,-3.0889,-3.0889,-3.0889,-3.0889,-3.0889,-3.0889,-3.0615,-3.0342,-3.0342,-3.001,-2.9707,-2.9707,-2.9287,-2.8428,-2.6816,-2.5741,0.0,0.0,0.0,0.0,0.0,0.0,0.0,0.0,0.0,0.0,0.0,0.0,0.0,0.0,0.0,0.0,0.0,0.0,0.0,0.0,0.0,-2.8174,-2.8887,0.0,-2.9622,0.0,-3.0305,-3.0392,-3.0392,-3.0859,-3.126,-3.1662,-3.2493,-3.2069,-3.0728,-2.858,-2.6686,-2.5127,-2.5127,-2.5127,-2.5127,-2.5127,-2.5127,-2.5127,0.0,0.0,0.0,0.0,0.0,0.0,0.0,-3.1621,-3.2539,-3.2053,-3.2295,-3.2549,-3.2549,-3.2998,-3.3301,-3.3301,-3.3301,-3.3144,-3.2764,-3.2695,-3.251,-3.2129,-3.1689,-3.1455,-3.1455,-3.1045,-3.0117,0.0,0.0,0.0,0.0,0.0,0.0,0.0,0.0,0.0,0.0,-2.8799,-2.9609,-3.0713,-3.084,-3.0889,-3.0889,-3.0889,-3.0889,-3.0889,-3.0889,-3.0889,-3.0889,-3.0889,-3.0889,-3.0889,-3.0889,-3.0889,-3.0889,-3.0889,-3.0889,-3.0889,-3.0889,-3.0889,-3.0889,-3.0889,-3.0859,-3.083,-3.083,-3.0469,-3.0137,-3.0137,-2.9492,-2.8516,-2.7197,-2.6543,-2.5918,0.0,0.0,0.0,0.0,0.0,0.0,0.0,0.0,0.0,0.0,0.0,0.0,0.0,0.0,0.0,0.0,0.0,0.0,-2.6328,0.0,-2.6356,-2.6689,-2.793,0.0,-2.7486,-2.826,-2.8605,-2.8683,-3.0598,-3.1663,-3.1979,-3.2861,-3.1929,-2.97,-2.8229,-2.6612,-2.5127,-2.5127,-2.5127,-2.5127,-2.5127,-2.5127,-2.5127,0.0,0.0,0.0,0.0,0.0,0.0,0.0,-3.2559,-3.3105,-3.2939,-3.3066,-3.3174,-3.3174,-3.332,-3.3418,-3.3418,-3.3418,-3.335,-3.3184,-3.2939,-3.2725,-3.2549,-3.2139,-3.1787,-3.1523,-3.1348,-3.0498,0.0,0.0,0.0,0.0,0.0,0.0,0.0,0.0,-2.7783,-2.8975,-2.9766,-3.041,-3.0889,-3.0889,-3.0889,-3.0889,-3.0889,-3.0889,-3.0889,-3.0889,-3.0889,-3.0889,-3.0889,-3.0889,-3.0889,-3.0889,-3.0889,-3.0889,-3.0889,-3.0889,-3.0889,-3.0889,-3.0889,-3.0889,-3.0889,-3.0889,-3.0889,-3.0889,-3.0742,-3.0615,-3.0615,-3.0117,-2.9453,-2.8691,-2.7568,-2.6896,0.0,0.0,0.0,0.0,0.0,0.0,0.0,0.0,0.0,0.0,0.0,0.0,0.0,0.0,0.0,0.0,0.0,0.0,-2.5557,0.0,-2.7498,-2.611,-2.7628,-2.784,-2.6753,-2.7849,-2.8672,-2.9158,-3.0751,-3.1977,-3.2741,-3.1423,-3.0397,-2.9492,-2.7078,-2.5712,-2.5127,-2.5127,-2.5127,-2.5127,-2.5127,-2.5127,-2.5127,-2.8984,0.0,-2.9189,0.0,-3.1103,-3.1504,-3.2783,-3.3232,-3.3418,-3.3418,-3.3418,-3.3418,-3.3418,-3.3418,-3.3418,-3.3418,-3.3418,-3.3418,-3.3418,-3.3144,-3.2978,-3.2978,-3.2578,0.0,-3.1904,-3.1768,-3.1045,-2.9678,-2.8398,0.0,0.0,0.0,0.0,0.0,-2.8516,-2.9131,-2.956,-3.0498,-3.0889,-3.0889,-3.0889,-3.0967,-3.1074,-3.1074,-3.1152,-3.1269,-3.1269,-3.1269,-3.125,-3.1123,-3.1074,-3.1055,-3.0928,-3.0889,-3.0889,-3.0889,-3.0889,-3.0889,-3.0889,-3.0889,-3.0889,-3.0889,-3.0889,-3.0889,-3.0889,-3.0889,-3.0889,-3.0889,-3.0518,-3.0107,-2.9814,-2.8662,-2.79,-2.8301,0.0,0.0,0.0,0.0,0.0,0.0,0.0,-2.4573,-2.4202,0.0,0.0,0.0,0.0,0.0,0.0,0.0,0.0,0.0,0.0,0.0,0.0,-2.6618,-2.6668,-2.5948,-2.7211,-2.8264,-2.9031,-3.0581,-3.184,-3.2669,-2.9965,-2.9051,-2.9292,-2.6397,-2.5241,-2.5241,-2.5241,-2.5175,-2.5108,-2.5108,-2.4974,-2.4833,-3.0605,-3.0156,-3.0361,-3.293,-3.2344,-3.1943,-3.3223,-3.3418,-3.3418,-3.3418,-3.3418,-3.3418,-3.3418,-3.3418,-3.3418,-3.3418,-3.3418,-3.3418,-3.3418,-3.3418,-3.3418,0.0,0.0,-3.2783,-3.2773,-3.2373,-3.1934,-3.1484,0.0,0.0,-2.8848,0.0,-2.7676,-2.8896,-2.8916,-2.9648,-3.0869,-3.0889,-3.0889,-3.0889,-3.0889,-3.1143,-3.1514,-3.1514,-3.1777,-3.2148,-3.2148,-3.2148,-3.209,-3.165,-3.1514,-3.1435,-3.1025,-3.0889,-3.0889,-3.0889,-3.0889,-3.0889,-3.0889,-3.0889,-3.0889,-3.0889,-3.0889,-3.0889,-3.0889,-3.0889,-3.0889,-3.0889,-3.0518,-3.0195,-3.0185,-2.9834,-2.8994,-2.7314,0.0,0.0,0.0,0.0,0.0,0.0,-2.5007,-2.4666,-2.5055,0.0,0.0,0.0,0.0,0.0,0.0,0.0,0.0,-2.6892,-2.52,0.0,-2.5882,-2.4384,-2.4008,-2.4633,-2.5879,-2.6915,-2.7658,-2.9744,-3.1082,-3.1591,-2.886,-2.8232,-2.8896,-2.66,-2.5597,-2.5597,-2.5597,-2.5396,-2.5073,-2.5073,-2.4678,-2.4093,-3.2539,-3.2627,-3.29,-3.3721,-3.3769,-3.3828,-3.4228,-3.4297,-3.4297,-3.4297,-3.4297,-3.4297,-3.4297,-3.3769,-3.3418,0.0,-3.3418,-3.3418,0.0,-3.3418,-3.3418,-3.3418,-3.3301,-3.3086,-3.2803,-3.2666,-3.2383,-3.1963,0.0,0.0,0.0,-2.8945,-2.9297,-3.0264,-3.0264,-3.0498,-3.0908,-3.1201,-3.1318,-3.1348,-3.1641,-3.1846,-3.1963,-3.1963,-3.2051,-3.2229,-3.2229,-3.2229,-3.2209,-3.2012,-3.1768,-3.1494,-3.1357,-3.1123,-3.0889,-3.0889,-3.0889,-3.0889,-3.0889,-3.0889,-3.0889,-3.0889,-3.0889,-3.0889,-3.0889,-3.0889,-3.0889,-3.0889,-3.0771,-3.0674,-3.0674,-3.0303,-2.9814,-2.9268,-2.9287,0.0,0.0,0.0,0.0,0.0,-2.3915,-2.3668,0.0,-2.2876,0.0,0.0,0.0,0.0,0.0,0.0,0.0,0.0,-2.6068,0.0,-2.2998,-2.3376,-2.3333,-2.2911,-2.4416,-2.6256,-2.8378,-3.0483,-3.0937,-2.9926,-2.8404,-2.7883,-2.8005,-2.6529,-2.5817,-2.5618,-2.5618,-2.5419,-2.5056,-2.4826,-2.4613,-2.4386,-3.3906,-3.4121,-3.4307,-3.4307,-3.4521,-3.4697,-3.4697,-3.4697,-3.4697,-3.4697,-3.4697,-3.4697,-3.4697,-3.4219,0.0,-3.3682,-3.3662,-3.3603,-3.3428,-3.3418,-3.3418,-3.3418,-3.3418,-3.3301,-3.3037,0.0,0.0,-3.2402,-3.1416,-3.0801,-3.0605,-3.0605,-3.0898,-3.1377,-3.1377,-3.1377,-3.1387,-3.165,-3.1758,-3.1787,-3.206,-3.2266,-3.2402,-3.2402,-3.25,-3.2637,-3.2637,-3.2637,-3.2617,-3.2461,-3.2226,-3.1973,-3.1807,-3.1475,-3.1094,-3.0937,-3.0889,-3.0889,-3.0889,-3.0889,-3.0889,-3.0889,-3.0889,-3.0889,-3.0889,-3.0889,-3.0889,-3.0889,-3.0889,-3.0889,-3.0889,-3.0654,-3.04,-3.0225,-2.9971,-2.9492,-2.8574,0.0,0.0,0.0,0.0,0.0,0.0,-2.4165,0.0,0.0,0.0,0.0,0.0,0.0,0.0,-2.5362,-2.593,0.0,-2.2408,-2.253,-2.2837,-2.3274,-2.536,-2.6949,-2.8222,-2.9497,-2.9529,-2.8514,-2.7369,-2.7107,-2.736,-2.6343,-2.5756,-2.5624,-2.5624,-2.5425,-2.5063,-2.4855,-2.4649,-2.4357,-3.4697,-3.4726,0.0,0.0,-3.4775,0.0,-3.4795,-3.4795,-3.4795,-3.4795,-3.4795,-3.4795,-3.4795,-3.4795,-3.4619,-3.4199,0.0,0.0,0.0,-3.3437,-3.3418,-3.3418,-3.3418,-3.3418,-3.3418,-3.3418,-3.3232,-3.2842,-3.2451,-3.2246,-3.2217,-3.2217,-3.2258,-3.2229,-3.2229,-3.2229,-3.2229,-3.2258,-3.2217,-3.2217,-3.2246,-3.249,-3.2842,-3.2842,-3.3076,-3.3418,-3.3418,-3.3418,-3.3359,-3.2969,-3.2822,-3.2786,-3.2395,-3.1974,-3.1534,-3.1113,-3.0918,-3.0889,-3.0947,-3.0889,-3.0889,-3.0889,-3.0889,-3.0889,-3.0889,-3.0889,-3.0889,-3.0889,-3.0889,-3.0889,-3.0889,-3.0889,-3.0752,-3.0322,-3.0166,-2.9551,-2.7992,0.0,0.0,0.0,0.0,0.0,0.0,-2.6778,-2.7548,0.0,0.0,0.0,0.0,0.0,-2.4897,-2.7454,-2.4979,-2.3512,-2.345,-2.1929,-2.2483,-2.5085,-2.7785,-2.8464,-2.73,-2.727,-2.7302,-2.7292,-2.6152,-2.6144,-2.6902,-2.6024,-2.571,-2.5646,-2.5646,-2.5445,-2.5123,-2.51,-2.4633,-2.4049,0.0,0.0,-3.5234,-3.5234,-3.5498,-3.5713,-3.5713,-3.5713,-3.5713,-3.5713,-3.5713,-3.5713,-3.5713,-3.5713,-3.5537,-3.5117,-3.4463,-3.4033,-3.3926,-3.3603,-3.3418,-3.3418,-3.3418,-3.3418,-3.3418,-3.3418,-3.3369,-3.3271,-3.3174,-3.2959,-3.2646,-3.2646,-3.2471,-3.2229,-3.2229,-3.2229,-3.2187,-3.251,-3.2646,-3.2676,-3.2998,-3.3184,-3.3271,-3.3271,-3.334,-3.3418,-3.3418,-3.3418,-3.3408,-3.331,-3.3244,-3.3144,-3.2737,-3.272,-3.2645,-3.1969,-3.1319,-3.0947,-3.116,-3.1054,-3.0889,-3.0889,-3.0889,-3.0889,-3.0889,-3.0889,-3.0889,-3.0889,-3.0889,-3.0889,-3.0889,-3.0889,-3.0859,-3.0742,-2.9883,-2.8965,-2.8252,-2.7305,0.0,0.0,-2.5693,-2.6091,-2.7041,-2.7499,-2.7678,0.0,0.0,0.0,0.0,-2.4362,-2.2918,-2.4568,-2.3962,-2.3021,-2.1727,-2.184,-2.254,-2.3918,-2.62,-2.663,-2.5685,-2.7247,-2.7247,-2.607,-2.6255,-2.6351,-2.6371,-2.6632,-2.6591,-2.6336,-2.6336,-2.5823,-2.5092,-2.5095,-2.4479,-2.374,-3.5303,-3.5508,-3.5674,-3.5674,-3.5869,-3.6016,-3.6016,-3.6016,-3.6016,-3.6016,-3.6016,-3.6016,-3.6016,-3.6016,-3.5928,-3.5703,-3.5068,-3.4502,-3.4101,-3.3848,-3.3633,-3.3428,-3.3418,-3.3418,-3.3418,-3.3418,-3.3418,-3.3418,-3.3418,-3.331,-3.3076,-3.3076,-3.2959,-3.2744,-3.2744,-3.2744,-3.2754,-3.2978,-3.3076,-3.3105,-3.333,-3.3418,-3.3418,-3.3418,-3.3418,-3.3418,-3.3418,-3.3418,-3.3418,-3.3418,-3.346,-3.3513,-3.3388,-3.3287,-3.3195,-3.2894,-3.2137,-3.1368,-3.1161,-3.1005,-3.0889,-3.0889,-3.0889,-3.0889,-3.0889,-3.0889,-3.0889,-3.0889,-3.0889,-3.0889,-3.0889,-3.0889,-3.0889,-3.0889,-2.9785,-2.8838,-2.8613,-2.748,0.0,-2.7097,-2.7136,-2.7371,-2.7965,-2.8725,-2.8845,-2.8087,0.0,0.0,-2.8296,-2.5344,-2.43,-2.5733,-2.3621,-2.2537,-2.268,-2.3522,-2.3803,-2.3564,-2.5792,-2.6207,-2.5115,-2.6396,-2.653,-2.5619,-2.595,-2.6139,-2.6155,-2.6333,-2.6416,-2.6392,-2.6392,-2.5823,-2.51,-2.5109,-2.4656,-2.405,-3.6016,-3.6016,-3.6016,-3.6016,-3.6016,-3.6016,-3.6016,-3.6016,-3.6016,-3.6016,-3.6016,-3.6016,-3.6016,-3.6016,-3.6016,-3.6016,-3.5693,-3.5137,-3.4326,-3.4209,-3.3975,-3.3545,-3.3525,-3.3486,-3.3418,-3.3418,-3.3418,-3.3481,-3.3418,-3.3418,-3.3418,-3.3418,-3.3418,-3.3418,-3.3418,-3.3418,-3.3418,-3.3418,-3.3418,-3.3418,-3.3418,-3.3418,-3.3418,-3.3418,-3.3418,-3.3418,-3.3418,-3.3418,-3.3418,-3.3418,-3.3607,-3.3922,-3.3922,-3.3736,-3.3552,-3.3676,-3.3004,-3.2078,-3.1299,-3.0996,-3.0889,-3.0889,-3.0889,-3.0889,-3.0889,-3.0889,-3.0889,-3.0889,-3.0889,-3.0889,-3.0889,-3.0889,-3.083,-3.0625,-2.9492,-2.8633,-2.8633,0.0,-2.749,-2.8769,-2.9092,-2.9067,-2.881,-3.0079,-3.0333,-2.8852,-2.8545,-2.8477,0.0,-2.7013,-2.6737,-2.8448,-2.3991,-2.2525,-2.4408,-2.5356,-2.5084,-2.3701,-2.5762,-2.6211,-2.5106,-2.5425,-2.5604,-2.5616,-2.5628,-2.5791,-2.6024,-2.5776,-2.5835,-2.6104,-2.612,-2.5658,-2.5098,-2.5098,-2.4842,-2.4456,-3.6016,-3.6016,-3.6016,-3.6016,-3.6016,-3.6016,-3.6016,-3.6016,-3.6016,-3.6016,-3.6016,-3.6016,-3.6016,-3.6016,-3.6016,-3.6016,-3.5957,-3.5713,-3.5225,-3.4824,-3.4414,-3.3994,-3.3975,-3.3799,-3.3428,-3.3418,-3.3544,-3.3796,-3.3544,-3.3418,-3.3418,-3.3418,-3.3418,-3.3418,-3.3418,-3.3418,-3.3418,-3.3418,-3.3418,-3.3418,-3.3418,-3.3418,-3.3418,-3.3418,-3.3418,-3.3418,-3.3418,-3.3418,-3.3418,-3.3418,-3.3607,-3.3922,-3.3922,-3.4248,-3.45,-3.3643,-3.3434,-3.3276,-3.2167,-3.1397,-3.0889,-3.0889,-3.0889,-3.0889,-3.0889,-3.0889,-3.0889,-3.0889,-3.0889,-3.0889,-3.0889,-3.0889,-3.0527,-2.9404,-2.8144,-2.7305,-2.7305,0.0,-2.749,-2.8769,-2.9902,-3.0548,-3.0499,-3.0772,-3.0772,-3.0518,-2.9216,-2.9039,-3.045,-2.7632,-2.6856,-2.8731,-2.5656,-2.4035,-2.4137,-2.3973,-2.4092,-2.4356,-2.4745,-2.4958,-2.5033,-2.5385,-2.5612,-2.5644,-2.5914,-2.5921,-2.5728,-2.5939,-2.6037,-2.6099,-2.6109,-2.5695,-2.5084,-2.5084,-2.4517,-2.3761,-3.6016,-3.6016,-3.6016,-3.6016,-3.6016,-3.6016,-3.6016,-3.6016,-3.6016,-3.6016,-3.6016,-3.6016,-3.6016,-3.6016,-3.6016,-3.6016,-3.6016,-3.5937,-3.5742,-3.5322,-3.4873,-3.4434,-3.4383,-3.425,-3.3932,-3.3733,-3.3733,-3.3922,-3.3544,-3.3418,-3.3418,-3.3418,-3.3418,-3.3418,-3.3418,-3.3418,-3.3418,-3.3418,-3.3418,-3.3418,-3.3418,-3.3418,-3.3418,-3.3418,-3.3418,-3.3418,-3.3418,-3.3418,-3.3418,-3.3418,-3.3607,-3.3922,-3.3922,-3.4235,-3.4507,-3.3808,-3.3251,-3.2675,-3.1919,-3.1554,-3.1334,-3.117,-3.1228,-3.1344,-3.117,-3.1112,-3.1054,-3.0947,-3.0889,-3.0889,-3.0889,-3.0889,-3.0459,-2.9131,-2.8428,0.0,0.0,-2.8037,-2.8525,-2.9824,-3.0518,-3.0889,-3.0889,-3.0889,-3.0518,-2.9648,-2.8852,-2.8517,-2.8811,-2.7331,-2.7134,-2.8394,-2.6407,-2.4755,-2.3497,-2.4068,-2.4427,-2.4503,-2.4713,-2.4904,-2.5085,-2.5446,-2.5608,-2.5578,-2.5737,-2.5826,-2.585,-2.6021,-2.6086,-2.6138,-2.6294,-2.5826,-2.5111,-2.5296,-2.4734,-2.3922,-3.6016,-3.6016,-3.6016,-3.6016,-3.6016,-3.6016,-3.6016,-3.6016,-3.6016,-3.6016,-3.6016,-3.6016,-3.6016,-3.6016,-3.6016,-3.6016,-3.6016,-3.6016,-3.6016,-3.5723,-3.5399,-3.5005,-3.4799,-3.4672,-3.4709,-3.416,-3.3922,-3.4047,-3.3607,-3.3418,-3.3418,-3.3418,-3.3418,-3.3418,-3.3418,-3.3418,-3.3544,-3.3544,-3.3544,-3.3544,-3.3544,-3.3481,-3.3418,-3.3418,-3.3418,-3.3418,-3.3418,-3.3418,-3.3418,-3.3418,-3.3544,-3.3796,-3.3985,-3.4173,-3.436,-3.4173,-3.3394,-3.2425,-3.187,-3.18,-3.1802,-3.147,-3.1614,-3.173,-3.1441,-3.1392,-3.1218,-3.1054,-3.0947,-3.0889,-3.0889,-3.0889,-3.0459,-2.9131,0.0,0.0,0.0,-2.8916,-2.9414,-3.0732,-3.0889,-3.0772,-3.046,-3.046,-2.9785,-2.8188,-2.8148,-2.7895,-2.7148,-2.7188,-2.7344,-2.754,-2.655,-2.5165,-2.34,-2.4456,-2.4849,-2.4638,-2.4916,-2.5127,-2.5112,-2.5404,-2.5504,-2.5487,-2.5482,-2.5689,-2.5999,-2.6001,-2.6062,-2.6146,-2.6385,-2.6002,-2.5338,-2.5512,-2.505,-2.4363,-3.6016,-3.6016,-3.6016,-3.6016,-3.6016,-3.6016,-3.6016,-3.6016,-3.6016,-3.6016,-3.6016,-3.6016,-3.6016,-3.6016,-3.6016,-3.6016,-3.6016,-3.6016,-3.6016,-3.5986,-3.5906,-3.5855,-3.5356,-3.5204,-3.5491,-3.4445,-3.4047,-3.436,-3.3733,-3.3418,-3.3418,-3.3418,-3.3418,-3.3418,-3.3418,-3.3544,-3.3859,-3.3859,-3.3859,-3.3859,-3.3859,-3.367,-3.3418,-3.3418,-3.3418,-3.3418,-3.3418,-3.3418,-3.3418,-3.3418,-3.3418,-3.3544,-3.4173,-3.436,-3.4485,-3.4735,-3.4503,-3.3872,-3.2742,-3.2205,-3.1958,-3.1782,-3.1787,-3.1787,-3.1787,-3.1498,-3.1267,-3.1267,-3.1054,-3.0889,-3.0889,-3.0889,-3.0459,-2.9131,0.0,0.0,-2.8916,-2.8916,-2.9414,-3.0732,-3.0889,-3.0401,-2.9166,-2.9039,-2.8504,-2.7194,-2.7374,-2.7518,-2.7482,-2.7753,-2.7358,-2.619,-2.6032,-2.5476,-2.4399,-2.4488,-2.4713,-2.5052,-2.5119,-2.5127,-2.5127,-2.5097,-2.5122,-2.5165,-2.5142,-2.5332,-2.5648,-2.5668,-2.5826,-2.612,-2.6117,-2.6113,-2.5969,-2.5724,-2.5357,-2.4988,-3.6016,-3.6016,-3.6084,-3.6268,-3.6326,-3.6326,-3.6326,-3.6326,-3.6268,-3.6016,-3.6016,-3.6016,-3.6016,-3.6016,-3.6016,-3.6016,-3.6016,-3.6016,-3.6016,-3.62,-3.6273,-3.6226,-3.6214,-3.6112,-3.5932,-3.5306,-3.4768,-3.4423,-3.3922,-3.3607,-3.3418,-3.3418,-3.3481,-3.3733,-3.3733,-3.3922,-3.4235,-3.4235,-3.4235,-3.4173,-3.3985,-3.3796,-3.367,-3.3481,-3.3418,-3.3418,-3.3418,-3.3418,-3.3418,-3.3418,-3.3544,-3.3733,-3.3985,-3.436,-3.4797,-3.5108,-3.4799,-3.4298,-3.3992,-3.3614,-3.3168,-3.2593,-3.2656,-3.2643,-3.2194,-3.2018,-3.1787,-3.1383,-3.1218,-3.1112,-3.0947,-3.1054,-3.0669,-2.9131,0.0,-3.0069,-2.9033,-2.9629,-3.0332,-3.083,-3.0889,-3.0392,-2.9039,-2.892,-2.8055,-2.5915,-2.5867,-2.5818,-2.5435,-2.592,-2.5838,-2.5108,-2.5048,-2.4905,-2.4495,-2.4781,-2.4916,-2.5127,-2.5127,-2.5127,-2.5127,-2.5127,-2.5128,-2.513,-2.5122,-2.5163,-2.5347,-2.5768,-2.5834,-2.5818,-2.6267,-2.6189,-2.5813,-2.5894,-2.541,-2.4795,-3.6345,-3.621,-3.6278,-3.6664,-3.6664,-3.6664,-3.6664,-3.6586,-3.6393,-3.621,-3.6084,-3.6016,-3.6016,-3.6016,-3.6016,-3.6016,-3.6074,-3.6142,-3.6142,-3.6596,-3.6794,-3.6769,-3.6958,-3.6927,-3.6566,-3.5939,-3.5263,-3.4634,-3.4117,-3.3796,-3.3544,-3.3544,-3.3733,-3.4047,-3.4047,-3.4235,-3.4548,-3.4548,-3.4548,-3.4548,-3.4298,-3.411,-3.3859,-3.367,-3.3481,-3.3418,-3.3418,-3.3418,-3.3418,-3.3544,-3.3733,-3.3922,-3.4173,-3.461,-3.5108,-3.5232,-3.4984,-3.4726,-3.48,-3.4674,-3.4292,-3.3505,-3.3479,-3.3472,-3.2796,-3.252,-3.219,-3.1586,-3.1383,-3.1218,-3.1054,-3.1276,-3.1085,-2.9836,-3.0569,-3.0892,-2.9816,-3.0427,-3.1005,-3.1005,-3.1005,-3.0498,-2.9223,-2.8745,-2.7626,-2.5526,-2.5088,-2.4772,-2.4426,-2.4867,-2.4984,-2.4706,-2.4713,-2.4713,-2.4713,-2.4849,-2.4984,-2.5127,-2.5127,-2.5127,-2.5127,-2.5127,-2.5127,-2.5112,-2.5085,-2.5129,-2.5282,-2.5758,-2.5912,-2.5929,-2.6437,-2.6321,-2.5934,-2.6191,-2.5684,-2.4944,-3.7011,-3.6799,-3.6654,-3.7011,-3.7079,-3.7079,-3.7079,-3.6799,-3.6519,-3.6519,-3.621,-3.6016,-3.6016,-3.6016,-3.6016,-3.6016,-3.6326,-3.6519,-3.6519,-3.7203,-3.7616,-3.7616,-3.7538,-3.7498,-3.7498,-3.6267,-3.5425,-3.5097,-3.4266,-3.3932,-3.3932,-3.3922,-3.411,-3.4423,-3.4423,-3.461,-3.4922,-3.4922,-3.4922,-3.4922,-3.4922,-3.4485,-3.3922,-3.3922,-3.367,-3.3418,-3.3428,-3.3428,-3.3491,-3.3796,-3.3922,-3.4047,-3.4673,-3.5108,-3.5356,-3.4984,-3.5108,-3.5356,-3.4984,-3.517,-3.52,-3.43,-3.4132,-3.3958,-3.3492,-3.2921,-3.2399,-3.1888,-3.1566,-3.1334,-3.1325,-3.1556,-3.1672,-3.1325,-3.1325,-3.1325,-3.1325,-3.1325,-3.1325,-3.1334,-3.1334,-3.084,-2.974,-2.8351,-2.7147,-2.6272,-2.5224,-2.4782,-2.5105,-2.5127,-2.5127,-2.5127,-2.5127,-2.5127,-2.5127,-2.4706,-2.4706,-2.5127,-2.5127,-2.5127,-2.5127,-2.5127,-2.5127,-2.5127,-2.5127,-2.5279,-2.5568,-2.5634,-2.6015,-2.6615,-2.6581,-2.6591,-2.6558,-2.6602,-2.62,-2.5588,-3.7079,-3.7011,-3.7011,-3.7415,-3.7415,-3.7415,-3.7415,-3.7348,-3.7203,-3.6934,-3.6809,-3.6751,-3.6751,-3.6751,-3.6751,-3.6751,-3.6876,-3.7001,-3.728,-3.7482,-3.776,-3.7981,-3.798,-3.7829,-3.7498,-3.7164,-3.6466,-3.556,-3.5244,-3.4832,-3.4378,-3.4322,-3.4423,-3.4735,-3.4735,-3.4922,-3.5232,-3.5232,-3.5232,-3.5232,-3.4984,-3.4797,-3.461,-3.436,-3.4047,-3.3796,-3.4047,-3.3922,-3.3796,-3.411,-3.4423,-3.4673,-3.5108,-3.5294,-3.5356,-3.5294,-3.5294,-3.5356,-3.5294,-3.5294,-3.5283,-3.4764,-3.4608,-3.4434,-3.3731,-3.3391,-3.308,-3.2389,-3.2123,-3.1974,-3.1722,-3.173,-3.1672,-3.1325,-3.1325,-3.1325,-3.1325,-3.1325,-3.1444,-3.1751,-3.179,-3.1405,-3.0452,-2.9806,-2.9101,-2.8422,-2.7123,-2.6,-2.5119,-2.5127,-2.5127,-2.5127,-2.5127,-2.5127,-2.5127,-2.4984,-2.4984,-2.5127,-2.5127,-2.5127,-2.5127,-2.5127,-2.5127,-2.5127,-2.5127,-2.5135,-2.5293,-2.5527,-2.5704,-2.5965,-2.644,-2.6278,-2.5913,-2.6189,-2.5999,-2.5596,-3.7492,-3.7425,-3.7415,-3.776,-3.7837,-3.7837,-3.7837,-3.7693,-3.7549,-3.7348,-3.7146,-3.7079,-3.7079,-3.7079,-3.7079,-3.7079,-3.7213,-3.7425,-3.7827,-3.7837,-3.7971,-3.8191,-3.8181,-3.8057,-3.7767,-3.7591,-3.7092,-3.6294,-3.6031,-3.5588,-3.4959,-3.4942,-3.497,-3.5108,-3.5108,-3.5232,-3.5418,-3.5418,-3.5418,-3.5356,-3.517,-3.5046,-3.4859,-3.4673,-3.436,-3.411,-3.436,-3.4298,-3.4173,-3.4485,-3.4797,-3.5108,-3.5356,-3.5418,-3.5418,-3.5418,-3.5418,-3.5418,-3.5418,-3.5418,-3.5355,-3.5086,-3.4953,-3.4656,-3.4023,-3.38,-3.3487,-3.2793,-3.2762,-3.2741,-3.2361,-3.2428,-3.2369,-3.1899,-3.184,-3.184,-3.2017,-3.2017,-3.2116,-3.2386,-3.2425,-3.2215,-3.1579,-3.0981,-3.0076,-2.8733,-2.7158,-2.5973,-2.5119,-2.5127,-2.5127,-2.5127,-2.5127,-2.5127,-2.5127,-2.5127,-2.5127,-2.5127,-2.5127,-2.5127,-2.5127,-2.5127,-2.5127,-2.5127,-2.5127,-2.5127,-2.5112,-2.5316,-2.5484,-2.5611,-2.6049,-2.6008,-2.5795,-2.6057,-2.5881,-2.562,-3.8114,-3.7904,-3.776,-3.8114,-3.8181,-3.8181,-3.8181,-3.7904,-3.7616,-3.7616,-3.7415,-3.7223,-3.7223,-3.7223,-3.7223,-3.7223,-3.7492,-3.7837,-3.8181,-3.8181,-3.8181,-3.8181,-3.8181,-3.8181,-3.8181,-3.7767,-3.7429,-3.7024,-3.663,-3.62,-3.5718,-3.5677,-3.5611,-3.548,-3.548,-3.5459,-3.5418,-3.5418,-3.5418,-3.5418,-3.5418,-3.5232,-3.4922,-3.4922,-3.4735,-3.4423,-3.4485,-3.4485,-3.4485,-3.4859,-3.517,-3.5418,-3.5418,-3.5418,-3.5418,-3.5418,-3.5418,-3.5418,-3.5418,-3.5418,-3.5418,-3.5356,-3.5108,-3.4809,-3.4422,-3.4075,-3.3709,-3.3316,-3.3406,-3.3516,-3.3165,-3.3345,-3.3345,-3.2684,-3.2623,-3.2744,-3.3045,-3.3105,-3.3125,-3.3226,-3.3226,-3.3165,-3.2988,-3.1984,-3.0329,-2.7892,-2.6234,-2.5255,-2.5127,-2.5127,-2.5119,-2.5119,-2.5127,-2.5127,-2.5194,-2.5127,-2.5127,-2.5127,-2.5127,-2.5127,-2.5127,-2.5127,-2.5127,-2.5127,-2.5127,-2.5127,-2.5127,-2.5127,-2.5286,-2.554,-2.5576,-2.5762,-2.6047,-2.6112,-2.5927,-2.5757,-3.8181,-3.8114,-3.8114,-3.8181,-3.8181,-3.8181,-3.8181,-3.8114,-3.8048,-3.8048,-3.7981,-3.7981,-3.7981,-3.7981,-3.7981,-3.7981,-3.8048,-3.8114,-3.8181,-3.8181,-3.8181,-3.8181,-3.8181,-3.8181,-3.8181,-3.8088,-3.7826,-3.7473,-3.7308,-3.703,-3.6646,-3.6557,-3.6348,-3.5966,-3.5966,-3.5759,-3.5418,-3.5418,-3.5418,-3.5418,-3.5418,-3.5366,-3.5294,-3.5294,-3.5108,-3.4859,-3.5108,-3.4984,-3.4859,-3.517,-3.5356,-3.5418,-3.5418,-3.5418,-3.5418,-3.5418,-3.5418,-3.5418,-3.5418,-3.5418,-3.5356,-3.5046,-3.4922,-3.4901,-3.4799,-3.4531,-3.4223,-3.4085,-3.3872,-3.371,-3.3526,-3.3345,-3.3045,-3.2684,-3.2633,-3.2764,-3.3045,-3.3105,-3.3357,-3.3953,-3.4065,-3.4167,-3.4428,-3.2971,-3.1194,-2.9043,-2.7477,-2.6234,-2.5187,-2.5127,-2.5194,-2.5464,-2.5262,-2.5329,-2.5869,-2.5329,-2.5127,-2.5127,-2.5127,-2.5127,-2.5127,-2.5127,-2.5127,-2.5127,-2.5127,-2.5127,-2.5127,-2.5127,-2.515,-2.5264,-2.5468,-2.5654,-2.5708,-2.602,-2.6223,-2.6539,-3.8181,-3.8181,-3.8181,-3.8181,-3.8181,-3.8181,-3.8181,-3.8181,-3.8181,-3.8181,-3.8181,-3.8181,-3.8181,-3.8181,-3.8181,-3.8181,-3.8181,-3.8181,-3.8181,-3.8181,-3.8181,-3.8181,-3.8181,-3.8181,-3.8181,-3.8181,-3.8114,-3.7904,-3.7877,-3.7639,-3.7215,-3.7174,-3.6887,-3.6442,-3.6442,-3.6308,-3.607,-3.5842,-3.5749,-3.5728,-3.5511,-3.5418,-3.5418,-3.5418,-3.5294,-3.517,-3.5356,-3.5294,-3.517,-3.5356,-3.5418,-3.5418,-3.5418,-3.5418,-3.5418,-3.5418,-3.5418,-3.5418,-3.5418,-3.5294,-3.517,-3.517,-3.4922,-3.4673,-3.4673,-3.4673,-3.4612,-3.4564,-3.4575,-3.4503,-3.4268,-3.4106,-3.379,-3.3299,-3.3248,-3.3381,-3.3678,-3.3729,-3.3942,-3.4554,-3.4575,-3.4347,-3.3727,-3.135,-2.9409,-2.8518,-2.702,-2.5846,-2.5119,-2.5127,-2.5188,-2.5368,-2.516,-2.5293,-2.5627,-2.5427,-2.5241,-2.5127,-2.5262,-2.5262,-2.5127,-2.5262,-2.5262,-2.5127,-2.5127,-2.5127,-2.5127,-2.5127,-2.5127,-2.5105,-2.5271,-2.5538,-2.5804,-2.5863,-2.6195,-2.6682,-3.8181,-3.8181,-3.8181,-3.8181,-3.8181,-3.8181,-3.8181,-3.8181,-3.8181,-3.8181,-3.8181,-3.8181,-3.8181,-3.8181,-3.8181,-3.8181,-3.8181,-3.8181,-3.8181,-3.8181,-3.8181,-3.8181,-3.8181,-3.8181,-3.8181,-3.8181,-3.8181,-3.8181,-3.8181,-3.7995,-3.7612,-3.7612,-3.7363,-3.6918,-3.6918,-3.6877,-3.6773,-3.639,-3.6235,-3.6194,-3.5811,-3.5614,-3.5542,-3.5542,-3.549,-3.5418,-3.5418,-3.5418,-3.5418,-3.5418,-3.5418,-3.5418,-3.5418,-3.5418,-3.5418,-3.5418,-3.5418,-3.5366,-3.5356,-3.517,-3.5046,-3.517,-3.4922,-3.4548,-3.4485,-3.4673,-3.4922,-3.4984,-3.517,-3.5232,-3.4922,-3.4922,-3.4673,-3.3985,-3.3723,-3.3723,-3.4037,-3.3839,-3.3829,-3.4143,-3.4205,-3.3757,-3.2518,-2.9287,-2.7411,-2.7593,-2.61,-2.5194,-2.5127,-2.5194,-2.5271,-2.5262,-2.5255,-2.5313,-2.5453,-2.5586,-2.5589,-2.539,-2.5599,-2.5532,-2.5194,-2.539,-2.5397,-2.5194,-2.5127,-2.5127,-2.5127,-2.5127,-2.5127,-2.5127,-2.5127,-2.5457,-2.5921,-2.5734,-2.6063,-2.6532,-3.8181,-3.8181,-3.8181,-3.8181,-3.8181,-3.8181,-3.8181,-3.8181,-3.8181,-3.8181,-3.8181,-3.8181,-3.8181,-3.8181,-3.8181,-3.8181,-3.8181,-3.8181,-3.8181,-3.8181,-3.8181,-3.8181,-3.8181,-3.8181,-3.8181,-3.8181,-3.8181,-3.8181,-3.8181,-3.815,-3.8088,-3.8088,-3.7839,-3.7405,-3.7405,-3.7177,-3.6794,-3.6732,-3.6711,-3.6701,-3.6639,-3.638,-3.6018,-3.6018,-3.5769,-3.5418,-3.5418,-3.5418,-3.5418,-3.5418,-3.5418,-3.5418,-3.5418,-3.5418,-3.5418,-3.5418,-3.5418,-3.5356,-3.5046,-3.517,-3.517,-3.4673,-3.4922,-3.517,-3.4922,-3.4859,-3.4984,-3.5294,-3.5108,-3.4922,-3.4922,-3.4922,-3.4673,-3.3985,-3.3117,-3.2527,-3.2629,-3.1643,-3.0983,-3.1295,-3.1359,-3.1753,-3.2737,-2.9956,-2.7949,-2.77,-2.6316,-2.5397,-2.5127,-2.5667,-2.5988,-2.5935,-2.5935,-2.627,-2.6929,-2.6337,-2.6151,-2.6465,-2.6205,-2.5869,-2.5532,-2.5262,-2.5329,-2.5532,-2.5262,-2.5127,-2.5127,-2.5127,-2.5127,-2.5127,-2.5127,-2.5329,-2.5667,-2.5936,-2.6071,-2.6205,-3.8181,-3.8181,-3.8181,-3.8181,-3.8181,-3.8181,-3.8181,-3.8181,-3.8181,-3.8181,-3.8181,-3.8181,-3.8181,-3.8181,-3.8181,-3.8181,-3.8181,-3.8181,-3.8181,-3.8181,-3.8181,-3.8181,-3.8181,-3.8181,-3.8181,-3.8181,-3.8181,-3.8181,-3.8181,-3.8181,-3.8181,-3.8181,-3.8078,-3.7881,-3.7881,-3.7767,-3.756,-3.7301,-3.7187,-3.7167,-3.6908,-3.668,-3.6494,-3.6494,-3.637,-3.6163,-3.5904,-3.5645,-3.5418,-3.5418,-3.5418,-3.5418,-3.5418,-3.5418,-3.5418,-3.5418,-3.5418,-3.5356,-3.5232,-3.517,-3.5108,-3.4984,-3.5046,-3.5108,-3.517,-3.517,-3.5232,-3.5356,-3.5294,-3.517,-3.517,-3.517,-3.4984,-3.4298,-3.3107,-3.2327,-3.2374,-3.1194,-3.0401,-3.0771,-2.9939,-2.9565,-3.0216,-2.8139,-2.671,-2.6517,-2.5794,-2.5329,-2.5397,-2.5464,-2.5711,-2.6113,-2.5914,-2.6047,-2.6561,-2.651,-2.6413,-2.6406,-2.6398,-2.613,-2.5599,-2.5667,-2.5532,-2.5329,-2.5329,-2.5397,-2.539,-2.5194,-2.5194,-2.5329,-2.5194,-2.5194,-2.5352,-2.5877,-2.5967,-2.5869]},{"header":{"parameterUnit":"m.s-1","parameterCategory":1,"la1":30.6,"la2":28.766,"lo1":-90.7593,"lo2":-88.6598,"dy":0.0162,"dx":0.0183,"nx":116,"ny":114,"refTime":"2023-05-06T12:00:00:Z","depth":0,"parameterNumber":3,"parameterNumberName":"V-component_of_WINDS"},"data":[0.0,0.0,0.0,0.0,0.0,0.0,0.0,0.0,0.0,0.0,0.0,0.0,0.0,0.0,0.0,0.0,0.0,0.0,0.0,0.0,0.0,0.0,0.0,0.0,0.0,0.0,0.0,0.0,0.0,0.0,0.0,0.0,0.0,0.0,0.0,0.0,0.0,0.0,0.0,0.0,0.0,0.0,0.0,0.0,0.0,0.0,0.0,0.0,0.0,0.0,0.0,0.0,0.0,0.0,0.0,0.0,0.0,0.0,0.0,0.0,0.0,0.0,0.0,0.0,0.0,0.0,0.0,0.0,0.0,0.0,0.0,0.0,0.0,0.0,0.0,0.0,0.0,0.0,0.0,0.0,0.0,0.0,0.0,0.0,0.0,0.0,0.0,0.0,0.0,0.0,0.0,0.0,0.0,0.0,0.0,0.0,0.0,0.0,0.0,0.0,0.0,0.0,0.0,0.0,0.0,0.0,0.0,0.0,0.0,0.0,0.0,0.0,0.0,0.0,0.0,0.0,0.0,0.0,0.0,0.0,0.0,0.0,0.0,0.0,0.0,0.0,0.0,0.0,0.0,0.0,0.0,0.0,0.0,0.0,0.0,0.0,0.0,0.0,0.0,0.0,0.0,0.0,0.0,0.0,0.0,0.0,0.0,0.0,0.0,0.0,0.0,0.0,0.0,0.0,0.0,0.0,0.0,0.0,0.0,0.0,0.0,0.0,0.0,0.0,0.0,0.0,0.0,0.0,0.0,0.0,0.0,0.0,0.0,0.0,0.0,0.0,0.0,0.0,0.0,0.0,0.0,0.0,0.0,0.0,0.0,0.0,0.0,0.0,0.0,0.0,0.0,0.0,0.0,0.0,0.0,0.0,0.0,0.0,0.0,0.0,0.0,0.0,0.0,0.0,0.0,0.0,0.0,0.0,0.0,0.0,0.0,0.0,0.0,0.0,0.0,0.0,0.0,0.0,0.0,0.0,0.0,0.0,0.0,0.0,0.0,0.0,0.0,0.0,0.0,0.0,0.0,0.0,0.0,0.0,0.0,0.0,0.0,0.0,0.0,0.0,0.0,0.0,0.0,0.0,0.0,0.0,0.0,0.0,0.0,0.0,0.0,0.0,0.0,0.0,0.0,0.0,0.0,0.0,0.0,0.0,0.0,0.0,0.0,0.0,0.0,0.0,0.0,0.0,0.0,0.0,0.0,0.0,0.0,0.0,0.0,0.0,0.0,0.0,0.0,0.0,0.0,0.0,0.0,0.0,0.0,0.0,0.0,0.0,0.0,0.0,0.0,0.0,0.0,0.0,0.0,0.0,0.0,0.0,0.0,0.0,0.0,0.0,0.0,0.0,0.0,0.0,0.0,0.0,0.0,0.0,0.0,0.0,0.0,0.0,0.0,0.0,0.0,0.0,0.0,0.0,0.0,0.0,0.0,0.0,0.0,0.0,0.0,0.0,0.0,0.0,0.0,0.0,0.0,0.0,0.0,0.0,0.0,0.0,0.0,0.0,0.0,0.0,0.0,0.0,0.0,0.0,0.0,0.0,0.0,0.0,0.0,0.0,0.0,0.0,0.0,0.0,0.0,0.0,0.0,0.0,0.0,0.0,0.0,0.0,0.0,0.0,0.0,0.0,0.0,0.0,0.0,0.0,0.0,0.0,0.0,0.0,0.0,0.0,0.0,0.0,0.0,0.0,0.0,0.0,0.0,0.0,0.0,0.0,0.0,0.0,0.0,0.0,0.0,0.0,0.0,0.0,0.0,0.0,0.0,0.0,0.0,0.0,0.0,0.0,0.0,0.0,0.0,0.0,0.0,0.0,0.0,0.0,0.0,0.0,0.0,0.0,0.0,0.0,0.0,0.0,0.0,0.0,0.0,0.0,0.0,0.0,0.0,0.0,0.0,0.0,0.0,0.0,0.0,0.0,0.0,0.0,0.0,0.0,0.0,0.0,0.0,0.0,0.0,0.0,0.0,0.0,0.0,0.0,0.0,0.0,0.0,0.0,0.0,0.0,0.0,0.0,0.0,0.0,0.0,0.0,0.0,0.0,0.0,0.0,0.0,0.0,0.0,0.0,0.0,0.0,0.0,0.0,0.0,0.0,0.0,0.0,0.0,0.0,0.0,0.0,0.0,0.0,0.0,0.0,0.0,0.0,0.0,0.0,0.0,0.0,0.0,0.0,0.0,0.0,0.0,0.0,0.0,0.0,0.0,0.0,0.0,0.0,0.0,0.0,0.0,0.0,0.0,0.0,0.0,0.0,0.0,0.0,0.0,0.0,0.0,0.0,0.0,0.0,0.0,0.0,0.0,0.0,0.0,0.0,0.0,0.0,0.0,0.0,0.0,0.0,0.0,0.0,0.0,0.0,0.0,0.0,0.0,0.0,0.0,0.0,0.0,0.0,0.0,0.0,0.0,0.0,0.0,0.0,0.0,0.0,0.0,0.0,0.0,0.0,0.0,0.0,0.0,0.0,0.0,0.0,0.0,0.0,0.0,0.0,0.0,0.0,0.0,0.0,0.0,0.0,0.0,0.0,0.0,0.0,0.0,0.0,0.0,0.0,0.0,0.0,0.0,0.0,0.0,0.0,0.0,0.0,0.0,0.0,0.0,0.0,0.0,0.0,0.0,0.0,0.0,0.0,0.0,0.0,0.0,0.0,0.0,0.0,0.0,0.0,0.0,0.0,0.0,0.0,0.0,0.0,0.0,0.0,0.0,0.0,0.0,0.0,0.0,0.0,0.0,0.0,0.0,0.0,0.0,0.0,0.0,0.0,0.0,0.0,0.0,0.0,0.0,0.0,0.0,0.0,0.0,0.0,0.0,0.0,0.0,0.0,0.0,0.0,0.0,0.0,0.0,0.0,0.0,0.0,0.0,0.0,0.0,0.0,0.0,0.0,0.0,0.0,0.0,0.0,0.0,0.0,0.0,0.0,0.0,0.0,0.0,0.0,0.0,0.0,0.0,0.0,0.0,0.0,0.0,0.0,0.0,0.0,0.0,0.0,0.0,0.0,0.0,0.0,0.0,0.0,0.0,0.0,0.0,0.0,0.0,0.0,0.0,0.0,0.0,0.0,0.0,0.0,0.0,0.0,0.0,0.0,0.0,0.0,0.0,0.0,0.0,0.0,0.0,0.0,0.0,0.0,0.0,0.0,0.0,0.0,0.0,0.0,0.0,0.0,0.0,0.0,0.0,0.0,0.0,0.0,0.0,0.0,0.0,0.0,0.0,0.0,0.0,0.0,0.0,0.0,0.0,0.0,0.0,0.0,0.0,0.0,0.0,0.0,0.0,0.0,0.0,0.0,0.0,0.0,0.0,0.0,0.0,0.0,0.0,0.0,0.0,0.0,0.0,0.0,0.0,0.0,0.0,0.0,0.0,0.0,0.0,0.0,0.0,0.0,0.0,0.0,0.0,0.0,0.0,0.0,0.0,0.0,0.0,0.0,0.0,0.0,0.0,0.0,0.0,0.0,0.0,0.0,0.0,0.0,0.0,0.0,0.0,0.0,0.0,0.0,0.0,0.0,0.0,0.0,0.0,0.0,0.0,0.0,0.0,0.0,0.0,0.0,0.0,0.0,0.0,0.0,0.0,0.0,0.0,0.0,0.0,0.0,0.0,0.0,0.0,0.0,0.0,0.0,0.0,0.0,0.0,0.0,0.0,0.0,0.0,0.0,0.0,0.0,0.0,0.0,0.0,0.0,0.0,0.0,0.0,0.0,0.0,0.0,0.0,0.0,0.0,0.0,0.0,0.0,0.0,0.0,0.0,0.0,0.0,0.0,0.0,0.0,0.0,0.0,0.0,0.0,0.0,0.0,0.0,0.0,0.0,0.0,0.0,0.0,0.0,0.0,0.0,0.0,0.0,0.0,0.0,0.0,0.0,0.0,0.0,0.0,0.0,0.0,0.0,0.0,0.0,0.0,0.0,0.0,0.0,0.0,0.0,0.0,0.0,0.0,0.0,0.0,0.0,0.0,0.0,0.0,0.0,0.0,0.0,0.0,0.0,0.0,0.0,0.0,0.0,0.0,0.0,0.0,0.0,0.0,0.0,0.0,0.0,0.0,0.0,0.0,0.0,0.0,0.0,0.0,0.0,0.0,0.0,0.0,0.0,0.0,0.0,0.0,0.0,0.0,0.0,0.0,0.0,0.0,0.0,0.0,0.0,0.0,0.0,0.0,0.0,0.0,0.0,0.0,0.0,0.0,0.0,0.0,0.0,0.0,0.0,0.0,0.0,0.0,0.0,0.0,0.0,0.0,0.0,0.0,0.0,0.0,0.0,0.0,0.0,0.0,0.0,0.0,0.0,0.0,0.0,0.0,0.0,0.0,0.0,0.0,0.0,0.0,0.0,0.0,0.0,0.0,0.0,0.0,0.0,0.0,0.0,0.0,0.0,0.0,0.0,0.0,0.0,0.0,0.0,0.0,0.0,0.0,0.0,0.0,0.0,0.0,0.0,0.0,0.0,0.0,0.0,0.0,0.0,0.0,0.0,0.0,0.0,0.0,0.0,0.0,0.0,0.0,0.0,0.0,0.0,0.0,0.0,0.0,0.0,0.0,0.0,0.0,0.0,0.0,0.0,0.0,0.0,0.0,0.0,0.0,0.0,0.0,0.0,0.0,0.0,0.0,0.0,0.0,0.0,0.0,0.0,0.0,0.0,0.0,0.0,0.0,0.0,0.0,0.0,0.0,0.0,0.0,0.0,0.0,0.0,0.0,0.0,0.0,0.0,0.0,0.0,0.0,0.0,0.0,0.0,0.0,0.0,0.0,0.0,0.0,0.0,0.0,0.0,0.0,0.0,0.0,0.0,0.0,0.0,0.0,0.0,0.0,0.0,0.0,0.0,0.0,0.0,0.0,0.0,0.0,0.0,0.0,0.0,0.0,0.0,0.0,0.0,0.0,0.0,0.0,0.0,0.0,0.0,0.0,0.0,0.0,0.0,0.0,0.0,0.0,0.0,0.0,0.0,0.0,0.0,0.0,0.0,0.0,0.0,0.0,0.0,0.0,0.0,0.0,0.0,0.0,0.0,0.0,0.0,0.0,0.0,0.0,0.0,0.0,0.0,0.0,0.0,0.0,0.0,0.0,0.0,0.0,0.0,0.0,0.0,0.0,0.0,0.0,0.0,0.0,0.0,0.0,0.0,0.0,0.0,0.0,0.0,0.0,0.0,0.0,0.0,0.0,0.0,0.0,0.0,0.0,0.0,0.0,0.0,0.0,0.0,0.0,0.0,0.0,0.0,0.0,0.0,0.0,0.0,0.0,0.0,0.0,0.0,0.0,0.0,0.0,0.0,0.0,0.0,0.0,0.0,0.0,0.0,0.0,0.0,0.0,0.0,0.0,0.0,0.0,0.0,0.0,0.0,0.0,0.0,0.0,0.0,0.0,0.0,0.0,0.0,0.0,0.0,0.0,0.0,0.0,0.0,0.0,0.0,0.0,0.0,0.0,0.0,0.0,0.0,0.0,0.0,0.0,0.0,0.0,0.0,0.0,0.0,0.0,0.0,0.0,0.0,0.0,0.0,0.0,0.0,0.0,0.0,0.0,0.0,0.0,0.0,0.0,0.0,0.0,0.0,0.0,0.0,0.0,0.0,0.0,0.0,0.0,0.0,0.0,0.0,0.0,0.0,0.0,0.0,0.0,0.0,0.0,0.0,0.0,0.0,0.0,0.0,0.0,0.0,0.0,0.0,0.0,0.0,0.0,0.0,0.0,0.0,0.0,0.0,0.0,0.0,0.0,0.0,0.0,0.0,0.0,0.0,0.0,0.0,0.0,0.0,0.0,0.0,0.0,0.0,0.0,0.0,0.0,0.0,0.0,0.0,0.0,0.0,0.0,0.0,0.0,0.0,0.0,0.0,0.0,0.0,0.0,0.0,0.0,0.0,0.0,0.0,0.0,0.0,0.0,0.0,0.0,0.0,0.0,0.0,0.0,0.0,0.0,0.0,0.0,0.0,0.0,0.0,0.0,0.0,0.0,0.0,0.0,0.0,0.0,0.0,0.0,0.0,0.0,0.0,0.0,0.0,0.0,0.0,0.0,0.0,0.0,0.0,0.0,0.0,0.0,0.0,0.0,0.0,0.0,0.0,0.0,0.0,0.0,2.6733,0.0,0.0,0.0,0.0,0.0,0.0,0.0,0.0,0.0,0.0,0.0,0.0,0.0,0.0,0.0,0.0,0.0,0.0,0.0,0.0,0.0,0.0,0.0,0.0,0.0,0.0,0.0,0.0,0.0,0.0,0.0,0.0,0.0,0.0,0.0,0.0,0.0,0.0,2.7641,2.8473,2.9466,3.0638,3.1084,3.0473,2.9005,0.0,0.0,0.0,0.0,0.0,0.0,0.0,0.0,0.0,0.0,0.0,0.0,0.0,0.0,0.0,0.0,0.0,0.0,0.0,0.0,0.0,0.0,0.0,0.0,0.0,0.0,0.0,0.0,0.0,0.0,0.0,0.0,0.0,0.0,0.0,0.0,0.0,0.0,0.0,0.0,0.0,0.0,0.0,0.0,0.0,0.0,0.0,0.0,0.0,0.0,0.0,0.0,0.0,0.0,0.0,0.0,0.0,0.0,0.0,0.0,0.0,0.0,0.0,0.0,0.0,0.0,0.0,0.0,0.0,0.0,0.0,2.811,0.0,0.0,0.0,0.0,0.0,0.0,0.0,0.0,0.0,0.0,0.0,0.0,0.0,0.0,0.0,0.0,0.0,0.0,0.0,0.0,0.0,0.0,0.0,2.8268,2.8088,2.821,2.8058,2.7946,0.0,0.0,0.0,0.0,0.0,0.0,0.0,2.6399,2.691,2.7917,2.9679,3.1585,3.3587,3.3733,3.2394,2.9849,2.9849,0.0,0.0,0.0,0.0,0.0,0.0,0.0,0.0,0.0,0.0,0.0,0.0,0.0,0.0,0.0,0.0,0.0,0.0,0.0,0.0,0.0,0.0,0.0,0.0,0.0,0.0,0.0,0.0,0.0,0.0,0.0,0.0,0.0,0.0,0.0,0.0,0.0,0.0,0.0,0.0,0.0,0.0,0.0,0.0,0.0,0.0,0.0,0.0,0.0,0.0,0.0,0.0,0.0,0.0,0.0,0.0,0.0,0.0,0.0,0.0,0.0,0.0,0.0,3.4197,3.4491,3.5312,3.6399,3.6527,3.5917,3.5917,3.322,2.8796,0.0,0.0,0.0,0.0,0.0,0.0,0.0,0.0,0.0,0.0,0.0,0.0,0.0,0.0,0.0,0.0,0.0,0.0,0.0,0.0,0.0,0.0,2.7747,2.7646,2.8246,2.7496,2.696,2.6906,0.0,0.0,0.0,0.0,0.0,2.6044,2.634,2.7251,2.8828,3.1139,3.2436,3.2766,3.3476,3.3568,3.3164,3.3164,3.2008,3.0044,0.0,0.0,0.0,0.0,0.0,0.0,0.0,0.0,0.0,0.0,0.0,0.0,0.0,0.0,0.0,0.0,0.0,0.0,0.0,0.0,0.0,0.0,0.0,0.0,0.0,0.0,0.0,0.0,0.0,0.0,0.0,0.0,0.0,0.0,0.0,0.0,0.0,0.0,0.0,0.0,0.0,3.0589,2.7783,0.0,0.0,0.0,0.0,0.0,0.0,0.0,0.0,0.0,0.0,0.0,0.0,0.0,0.0,3.4215,3.4527,3.5477,3.7033,3.9038,4.0398,4.1258,4.3461,4.4415,4.4305,4.4305,0.0,3.2797,2.9977,0.0,0.0,0.0,0.0,0.0,0.0,0.0,0.0,0.0,0.0,0.0,0.0,0.0,0.0,0.0,0.0,0.0,0.0,0.0,0.0,0.0,2.8418,2.8647,2.8958,2.936,2.9038,2.7746,2.7112,0.0,0.0,0.0,2.4403,2.4438,2.5821,2.8188,3.1536,3.3052,3.4269,3.5184,3.556,3.5853,3.609,3.609,3.4663,3.2155,3.1256,0.0,0.0,0.0,0.0,0.0,0.0,0.0,0.0,0.0,0.0,0.0,0.0,0.0,0.0,0.0,0.0,0.0,0.0,0.0,0.0,0.0,0.0,0.0,0.0,0.0,0.0,0.0,0.0,0.0,0.0,0.0,0.0,0.0,0.0,0.0,0.0,0.0,0.0,0.0,2.834,2.8888,2.6098,2.7684,2.7904,0.0,0.0,0.0,0.0,0.0,0.0,0.0,0.0,0.0,3.2894,3.6142,3.8068,3.8417,4.0215,4.1497,4.2231,4.3296,4.3993,4.436,4.5424,4.5902,4.5902,4.5902,4.3883,4.0341,3.7132,3.4729,3.2963,0.0,0.0,0.0,0.0,0.0,3.0198,0.0,0.0,0.0,0.0,0.0,0.0,0.0,0.0,0.0,0.0,0.0,0.0,2.8575,2.9389,2.9971,3.0076,3.0884,3.04,2.8113,2.7519,2.6146,2.3686,2.3063,2.2782,2.2782,2.5914,2.9475,3.3512,3.4729,3.6041,3.7378,3.7378,3.756,3.7893,3.7893,3.6495,3.4027,3.2834,3.1733,3.0668,0.0,0.0,0.0,0.0,0.0,0.0,0.0,0.0,0.0,0.0,0.0,0.0,0.0,0.0,0.0,0.0,0.0,0.0,0.0,0.0,0.0,0.0,0.0,0.0,0.0,0.0,0.0,0.0,0.0,0.0,0.0,0.0,0.0,0.0,0.0,0.0,0.0,2.8172,2.8998,2.6355,2.8521,2.9292,0.0,0.0,0.0,0.0,0.0,0.0,3.232,3.5224,3.6876,3.6876,4.0618,4.2636,4.2636,4.5223,4.6617,4.6838,4.6819,4.6929,4.715,4.715,4.715,4.715,4.715,4.715,4.6838,4.2765,3.9698,3.7441,3.6615,3.6303,3.6211,3.5573,3.5334,3.5243,0.0,0.0,0.0,0.0,0.0,0.0,0.0,0.0,0.0,0.0,0.0,2.9351,2.9417,3.0442,3.1268,3.1663,3.0781,2.9231,2.6928,2.6114,2.4401,2.1494,2.1566,2.1687,2.1687,2.7158,3.1161,3.3512,3.5897,3.7362,3.7859,3.7859,3.7876,3.7893,3.7893,3.6803,3.4931,3.4857,3.3903,3.2271,2.9904,0.0,0.0,0.0,0.0,0.0,0.0,0.0,0.0,0.0,0.0,0.0,0.0,0.0,0.0,0.0,0.0,0.0,0.0,0.0,0.0,0.0,0.0,0.0,0.0,0.0,0.0,0.0,0.0,0.0,0.0,0.0,0.0,0.0,0.0,0.0,0.0,0.0,0.0,3.1415,3.2522,0.0,0.0,0.0,0.0,3.5514,3.5881,3.6615,3.8193,4.0598,4.1937,4.1937,4.5095,4.6801,4.6801,4.7718,4.8581,4.9408,4.9353,4.9756,5.0545,5.0545,5.0545,5.0545,5.0545,5.0545,5.0068,4.37,4.1003,4.0545,3.7496,3.6303,3.6285,3.6248,3.6229,3.6229,0.0,0.0,0.0,0.0,0.0,0.0,0.0,0.0,2.6396,2.6698,2.7685,2.8476,2.8763,3.1067,3.2673,3.2818,3.3337,3.2696,3.0448,2.8247,2.6116,2.412,2.23,2.2928,2.6293,2.978,3.2651,3.484,3.5748,3.6253,3.6422,3.6422,3.6588,3.6962,3.7304,3.7236,3.6805,3.5755,3.487,3.3977,3.2087,3.0564,0.0,0.0,0.0,0.0,0.0,0.0,0.0,0.0,0.0,0.0,0.0,0.0,0.0,0.0,0.0,0.0,0.0,0.0,0.0,0.0,0.0,0.0,0.0,0.0,0.0,0.0,0.0,0.0,0.0,0.0,0.0,0.0,0.0,0.0,0.0,0.0,0.0,3.3793,3.6083,0.0,0.0,3.4578,3.5716,3.7698,3.9276,4.0634,4.1717,4.458,4.6416,4.6985,4.8104,4.8967,4.9481,4.9774,5.0068,5.0362,5.0343,5.0508,5.0802,5.0802,5.0802,5.0802,5.0802,5.0802,5.0618,4.8306,4.7352,4.7241,4.6085,4.5626,4.5571,4.5039,4.4873,4.4782,0.0,0.0,0.0,0.0,0.0,0.0,0.0,0.0,2.5859,2.6795,2.7879,2.8964,2.9984,3.2502,3.4129,3.4129,3.5042,3.4353,3.1379,2.9313,2.6979,2.4239,2.2967,2.4643,2.9636,3.143,3.3372,3.56,3.5853,3.6084,3.6251,3.6507,3.6808,3.7178,3.7516,3.7837,3.8073,3.6934,3.6371,3.6087,3.4179,3.2124,3.0106,0.0,0.0,0.0,0.0,0.0,0.0,0.0,0.0,0.0,0.0,0.0,0.0,0.0,0.0,0.0,0.0,0.0,0.0,0.0,0.0,0.0,0.0,0.0,0.0,0.0,0.0,0.0,0.0,0.0,0.0,0.0,0.0,0.0,0.0,0.0,3.5954,3.6215,3.8891,4.0175,3.8854,3.9218,4.032,4.2231,4.3864,4.5112,4.592,4.7976,4.9407,4.9996,5.0271,5.0675,5.1206,5.1481,5.161,5.161,5.161,5.161,5.161,5.161,5.161,5.161,5.161,5.161,5.161,5.161,5.161,5.1573,5.1022,5.0802,5.0747,5.0196,4.9994,4.9903,0.0,0.0,0.0,0.0,0.0,0.0,0.0,2.567,2.6213,2.801,2.931,3.092,3.3136,3.4687,3.56,3.56,3.56,3.3761,2.9399,2.8993,2.664,2.1495,2.3492,2.6776,3.114,3.2039,3.3491,3.5633,3.6434,3.707,3.753,3.8239,3.8585,3.8585,3.8607,3.8629,3.8599,3.8435,3.851,3.853,3.6105,3.4142,3.2326,0.0,0.0,0.0,0.0,0.0,0.0,0.0,0.0,0.0,0.0,0.0,0.0,0.0,0.0,0.0,0.0,0.0,0.0,0.0,0.0,0.0,0.0,0.0,0.0,0.0,0.0,0.0,0.0,0.0,0.0,0.0,0.0,0.0,3.297,3.6971,3.9717,3.9038,4.1056,4.28,4.3625,4.3717,4.5369,4.9335,4.9665,5.0033,5.0802,5.0857,5.0875,5.0875,5.1628,5.2032,5.2032,5.2839,5.3243,5.3243,5.3259,5.328,5.328,5.328,5.328,5.328,5.328,5.328,5.328,5.328,5.328,5.3112,5.1499,5.0875,5.0875,5.0875,5.0875,5.0875,0.0,0.0,0.0,0.0,0.0,0.0,0.0,2.5292,2.5369,2.6927,2.8403,3.0161,3.2361,3.4404,3.56,3.56,3.56,3.4404,3.1582,2.884,2.5964,2.2934,2.752,3.0736,3.1972,3.4341,3.5864,3.6468,3.7229,3.7655,3.7784,3.7989,3.8091,3.8138,3.8907,3.9,3.8655,3.9365,3.9716,3.9657,3.8256,3.6343,3.4252,0.0,0.0,0.0,0.0,0.0,0.0,0.0,0.0,0.0,0.0,0.0,0.0,0.0,0.0,0.0,0.0,0.0,0.0,0.0,0.0,0.0,0.0,0.0,0.0,0.0,0.0,0.0,0.0,0.0,0.0,0.0,0.0,3.8527,3.8721,4.0416,4.2415,4.4526,4.5902,4.6985,4.7848,4.8453,4.926,5.038,5.1004,5.1446,5.1665,5.2215,5.2546,5.2546,5.2747,5.2876,5.2876,5.3683,5.4069,5.4087,5.4656,5.4932,5.4932,5.4932,5.4932,5.4932,5.4932,5.4932,5.4932,5.4932,5.4932,5.4766,5.317,5.2546,5.2546,5.2546,5.2546,5.2546,0.0,0.0,0.0,0.0,0.0,0.0,0.0,2.5409,2.571,2.7858,2.889,3.0531,3.3372,3.4844,3.56,3.56,3.4737,3.3136,3.0581,2.7486,2.6183,2.7097,3.0448,3.2886,3.4155,3.5898,3.6965,3.7246,3.8007,3.8362,3.8379,3.8667,3.8819,3.8868,3.9474,3.9553,3.9278,4.0053,4.0367,4.0298,3.9621,3.8008,3.5973,3.5279,3.3702,3.1861,3.1525,3.1397,3.1268,3.032,0.0,0.0,0.0,0.0,0.0,0.0,0.0,0.0,0.0,0.0,0.0,0.0,0.0,0.0,0.0,0.0,0.0,0.0,0.0,0.0,0.0,0.0,0.0,0.0,3.8833,4.2173,4.3542,4.4364,4.5645,4.7884,4.8857,4.9682,5.0528,5.1022,5.1444,5.1793,5.2234,5.2509,5.2509,5.328,5.3702,5.3702,5.4032,5.4216,5.4216,5.4675,5.4895,5.4913,5.5372,5.5614,5.5614,5.5614,5.5614,0.0,5.5614,5.5614,5.5614,5.5614,5.5614,0.0,0.0,0.0,0.0,0.0,5.3185,5.3185,0.0,0.0,0.0,0.0,0.0,0.0,0.0,2.5768,2.6674,2.9683,3.0108,3.1492,3.5194,3.56,3.56,3.56,3.3575,3.1004,2.801,2.6268,2.7402,3.1989,3.2496,3.3969,3.6745,3.688,3.728,3.8024,3.8751,3.9106,3.914,3.9893,4.0231,4.0231,4.0375,4.0375,4.0256,4.062,4.0704,4.0626,4.0274,3.9208,3.7622,3.5992,3.4483,3.3131,3.2354,3.2044,3.2025,3.1843,0.0,0.0,0.0,0.0,0.0,0.0,0.0,0.0,0.0,0.0,0.0,0.0,0.0,0.0,0.0,0.0,0.0,0.0,0.0,0.0,0.0,0.0,0.0,0.0,4.136,4.4959,4.7349,4.8198,4.8907,4.9756,5.049,5.1242,5.205,5.2142,5.2435,5.3148,5.3277,5.3332,5.3332,0.0,0.0,0.0,0.0,5.5614,5.5614,5.5684,5.5739,5.5739,5.5812,5.589,5.589,5.589,5.589,5.589,5.589,5.589,5.589,5.589,5.589,5.5853,5.5666,5.5152,5.4454,5.3739,5.3482,0.0,0.0,0.0,0.0,0.0,0.0,0.0,0.0,2.5768,2.6674,2.9683,3.0108,3.1492,3.5194,3.56,3.56,3.56,3.3575,3.1004,2.801,2.9668,3.099,3.1396,3.3694,3.5537,3.6778,3.7381,3.8058,3.8785,3.9537,3.9893,3.991,4.0629,4.0984,4.1027,4.2123,4.2004,4.1018,4.1585,4.1441,4.0786,4.0087,3.9739,3.9535,3.8168,3.7467,3.7093,3.6346,3.6078,3.5882,3.453,3.3625,3.2893,3.1693,2.9359,0.0,0.0,0.0,0.0,0.0,0.0,0.0,0.0,0.0,0.0,0.0,0.0,0.0,0.0,0.0,0.0,0.0,0.0,0.0,3.8353,4.2783,4.6831,4.9107,4.9988,5.0679,5.1458,5.1665,5.2087,5.2894,5.2968,5.3041,5.3185,5.3812,5.4179,5.4179,5.4932,0.0,5.5354,5.5522,5.5614,5.5614,5.6235,5.6565,5.6583,0.0,0.0,5.7538,5.7538,5.7538,5.7538,5.7538,5.7538,5.7538,5.7538,5.7538,5.7409,5.6106,5.5482,5.5335,5.5188,5.5133,5.5133,0.0,0.0,0.0,0.0,0.0,0.0,0.0,2.6582,2.7147,2.9264,2.955,3.0531,3.3119,3.3064,3.2844,3.2844,3.114,2.9583,2.8467,3.0497,3.2239,3.3355,3.4805,3.614,3.7313,3.7719,3.8447,3.9554,3.9926,4.0096,4.013,4.0849,4.1204,4.1238,4.2296,4.2159,4.1256,4.1859,4.1641,4.0868,4.0458,4.0403,4.0421,3.929,3.8618,3.8247,3.7879,3.766,3.7417,3.6577,3.6041,3.5541,3.456,3.257,3.0446,0.0,0.0,0.0,0.0,0.0,0.0,0.0,0.0,0.0,0.0,0.0,0.0,0.0,0.0,3.288,0.0,0.0,3.9956,4.1242,4.5,4.8141,4.9257,5.033,5.1143,5.1506,5.1846,5.2207,5.2626,5.3008,5.3393,5.3772,5.4546,5.4987,5.4987,5.5757,5.6198,5.6198,5.6583,5.6785,5.6785,5.7207,5.7409,5.7409,5.8235,5.8602,5.8621,5.9024,5.9208,5.9208,5.9208,5.8969,5.8584,5.8162,5.7997,5.7923,5.7097,5.6547,5.6143,5.5739,5.5614,5.5614,0.0,0.0,0.0,0.0,0.0,0.0,0.0,2.7444,2.77,2.8826,2.903,2.9574,3.0855,3.0463,2.9871,2.9279,2.8889,2.8772,2.8993,3.0903,3.3119,3.5498,3.56,3.6309,3.7872,3.7905,3.8616,4.0096,4.0096,4.0096,4.013,4.0849,4.1204,4.1238,4.1965,4.188,4.123,4.1711,4.145,4.0733,4.0733,4.0733,4.0659,3.984,3.9084,3.8403,3.8105,3.7575,3.7077,3.7363,3.7256,3.7006,3.6845,3.5662,3.3854,3.1356,3.0924,0.0,0.0,0.0,0.0,0.0,0.0,0.0,0.0,0.0,3.2327,3.3566,3.5521,3.7297,3.82,4.0552,4.2749,4.3991,4.6859,4.8935,4.8935,5.006,5.0876,5.09,5.1607,5.2114,5.2114,5.2839,5.361,5.4318,5.5135,5.5637,5.5746,5.6538,5.6978,5.6978,5.779,5.8235,5.8235,5.8382,5.8474,5.8474,5.9134,5.9423,5.9459,6.0107,6.0401,6.0401,6.0401,6.0034,5.9368,5.8731,5.8474,5.8474,5.8474,5.7978,5.7171,5.6363,5.6073,5.6073,0.0,0.0,0.0,0.0,0.0,0.0,0.0,0.0,2.7938,2.8721,2.9123,2.9571,3.0144,3.014,2.9007,2.6336,2.9583,3.1007,2.9128,3.2831,3.5261,3.5583,3.56,3.6309,3.7872,3.7905,3.8616,4.0096,4.0096,4.0096,4.013,4.0849,4.1204,4.1238,4.1965,4.188,4.1204,4.1281,4.0849,4.0179,4.0179,4.0179,4.0162,4.0067,3.9564,3.8741,3.7438,3.5645,3.4106,3.5416,3.4989,3.4309,3.6658,3.6212,3.4622,3.3512,3.1516,2.9385,2.8109,2.926,3.0747,3.0277,3.2086,3.399,0.0,0.0,3.5135,3.5318,3.6655,3.7827,3.795,4.1417,4.4332,4.4529,4.7039,4.8989,4.8989,4.9641,5.0149,5.0202,5.1364,5.2183,5.2183,5.2874,5.3593,5.4273,5.5062,5.5756,5.627,5.7178,5.7687,5.7687,5.8569,5.9056,5.9056,5.9777,6.0126,6.0126,6.0236,6.0272,6.0272,6.0364,6.0401,6.0401,6.0401,6.0346,6.0272,6.0181,6.0126,6.0126,6.0126,5.9648,5.8817,5.8033,5.7721,5.7721,0.0,0.0,0.0,0.0,0.0,0.0,0.0,0.0,0.0,2.7484,2.7811,2.8049,2.8022,2.7281,2.5932,2.3808,2.7756,2.9991,2.9061,3.3152,3.56,3.56,3.56,3.6129,3.7229,3.7686,3.8413,3.9469,3.9893,4.0096,4.013,4.0849,4.1204,4.1238,4.1965,4.188,4.1204,4.1204,4.0764,4.0096,4.0096,4.0096,4.0096,4.0096,3.991,3.9334,3.6941,3.5402,0.0,3.5221,3.5015,3.5005,3.7862,3.7178,3.5066,3.3837,3.264,3.1918,3.2838,3.2983,3.3141,0.0,3.5893,3.711,3.711,3.8024,3.9242,4.0561,4.2033,4.3217,4.3629,4.5263,4.6667,0.0,4.8189,4.9001,4.9001,4.96,5.0066,5.0113,5.1374,5.226,5.2247,5.295,5.3675,5.4376,5.5169,5.5732,5.599,5.725,5.7974,5.7974,5.8762,5.9205,5.9205,5.9532,5.9696,5.9696,6.0646,6.1098,6.1117,6.1594,6.1814,6.1777,6.13,6.1098,6.1062,6.0584,6.0401,6.0401,6.0401,5.9924,5.9148,5.8822,5.84,5.7997,0.0,0.0,0.0,0.0,0.0,0.0,0.0,0.0,0.0,0.0,2.7101,2.7079,2.6387,2.4974,2.3678,2.2601,2.61,2.8553,2.8976,3.2763,3.516,3.5583,3.56,3.5994,3.6778,3.7313,3.7956,3.87,3.9453,3.9808,3.9808,4.0544,4.0899,4.0916,4.1441,4.139,4.0899,4.0899,4.0578,4.0096,4.0096,4.0096,4.0096,4.0096,3.9723,3.886,3.6231,3.4819,3.4108,3.3714,3.3421,3.3712,3.6474,3.6278,3.4653,3.2983,3.2185,3.2408,3.4883,3.5204,0.0,3.7635,3.9225,4.0273,4.0476,4.1525,4.2963,4.4807,4.621,4.7276,4.7787,4.8058,4.8392,4.8917,4.9001,4.9001,4.9001,4.9627,5.0168,5.0371,5.1522,5.2376,5.2619,5.3177,5.3762,5.4425,5.5022,5.5513,5.5899,5.7061,5.781,5.7998,5.8778,5.9302,5.9538,5.9736,5.997,6.0219,6.1371,6.1924,6.1942,6.2292,6.2368,6.2103,6.1529,6.1275,6.122,6.063,6.0541,6.0711,6.0489,6.0161,5.9755,5.9353,5.867,5.795,0.0,0.0,0.0,0.0,0.0,0.0,0.0,0.0,0.0,0.0,0.0,0.0,0.0,2.432,2.3323,2.3272,2.5424,2.7385,2.8891,3.1799,3.4095,3.5532,3.56,3.5994,3.6778,3.6829,3.7178,3.7939,3.8667,3.9022,3.9039,3.9791,4.013,4.013,4.0163,4.0146,4.013,4.013,4.013,4.0096,4.0096,4.0096,4.0096,4.0096,3.8776,3.6694,3.5081,3.3156,3.1111,2.9671,2.8672,2.8434,3.0719,3.2378,3.3051,3.0833,2.9142,2.8618,3.1633,0.0,3.6107,3.8396,4.1136,4.3487,4.4259,4.501,4.5788,4.6566,4.7344,4.7855,4.7889,4.8494,4.8984,4.9001,4.9001,4.9001,4.9001,4.9627,5.0371,5.1099,5.1843,5.2604,0.0,5.3484,5.3749,5.4356,5.4437,5.5046,5.6408,5.6652,5.7064,5.7809,5.8714,5.9579,6.0368,6.1153,6.1923,6.2682,6.2743,6.2768,6.2743,6.1978,6.1218,6.0476,6.0458,6.044,6.0423,6.0423,6.0837,6.1504,6.0689,6.0765,6.1156,5.9724,5.8627,5.7792,0.0,0.0,0.0,0.0,0.0,0.0,0.0,0.0,0.0,0.0,0.0,0.0,0.0,0.0,0.0,0.0,2.605,2.7638,2.818,3.1478,3.3626,3.4134,3.5076,3.5718,3.6011,3.6541,3.6931,3.7161,3.7905,3.8278,3.8278,3.8514,3.8633,3.8633,3.8633,3.8633,3.8633,3.8633,3.8633,3.8633,3.8633,3.8633,3.8531,3.7499,3.6349,3.481,0.0,2.9922,2.9585,2.8552,2.801,2.8196,3.048,3.0497,2.943,2.8213,2.889,3.07,3.3694,0.0,3.9242,4.1999,4.3826,4.5128,4.5872,4.6633,4.7242,4.7496,4.6955,4.6447,4.6447,4.665,4.6819,4.6819,4.8054,4.9001,4.9001,5.0067,5.093,5.1183,5.2334,0.0,0.0,0.0,0.0,5.3783,5.4259,5.4734,5.5205,5.672,5.7683,5.7927,5.8724,5.9269,5.9538,5.9801,6.0065,6.0344,6.0938,6.1189,6.1189,6.0926,6.0658,6.0414,6.0414,6.0414,6.0414,6.0414,6.0567,6.076,6.0506,6.0208,5.9931,5.9877,5.9276,5.8408,0.0,0.0,0.0,0.0,0.0,0.0,0.0,0.0,0.0,0.0,0.0,0.0,0.0,0.0,0.0,0.0,0.0,2.7215,2.7773,3.0345,3.2053,3.2594,3.3271,3.3622,3.3622,3.388,3.4138,3.4426,3.5673,3.6434,3.6705,3.7533,3.7905,3.7905,3.7905,3.7905,3.7905,3.7905,3.7584,3.707,3.707,3.6772,3.6197,3.5177,3.4032,0.0,2.9024,2.779,2.7588,2.6269,2.6184,2.6877,2.8332,2.8349,2.7976,2.8839,3.0463,3.2814,3.6563,3.9208,4.1551,4.4327,4.5534,4.6295,4.7022,4.7564,4.7956,4.8257,4.6921,4.5703,4.5703,4.4823,4.4181,4.4434,4.5466,4.6599,4.7665,4.9103,5.0289,5.11,5.257,0.0,0.0,0.0,0.0,5.3501,5.4177,5.4718,5.4972,5.6611,5.7706,5.7981,5.8428,5.8806,5.9077,5.9111,5.9245,5.9574,6.0117,6.026,5.9928,5.9928,5.9768,5.9526,5.9753,5.9721,5.9543,6.0058,6.0278,6.0322,6.0278,6.0283,6.0246,6.0167,5.9885,5.9393,0.0,0.0,0.0,0.0,0.0,0.0,0.0,0.0,0.0,0.0,0.0,0.0,0.0,0.0,0.0,0.0,0.0,0.0,2.7672,2.8553,2.9619,3.1021,3.0497,3.0176,3.0176,2.9484,2.945,3.0108,3.2239,3.3626,3.432,3.6535,3.7567,3.7567,3.7567,3.7567,3.7567,3.7533,3.6671,3.5312,3.5278,3.4433,3.3237,3.3152,3.1796,2.9768,2.8246,2.6759,2.5221,2.3074,2.3393,2.4694,2.4846,2.637,2.8804,3.2439,3.3626,3.4844,3.9901,4.1847,4.2997,4.5263,4.6346,4.7056,4.78,4.7939,4.8122,4.8663,4.7005,4.5432,0.0,0.0,4.1424,4.2117,4.188,4.2608,4.5466,4.7158,4.8835,0.0,0.0,0.0,0.0,0.0,0.0,5.3551,0.0,5.4972,5.5733,5.6461,5.7171,5.7865,5.7881,5.8263,5.9027,5.9061,5.9443,6.026,6.026,5.9832,5.9061,5.9061,5.8633,5.7918,5.8581,5.8493,5.8027,5.938,6.003,6.0121,6.003,6.0844,6.1879,6.0549,6.0318,6.0494,0.0,0.0,0.0,0.0,0.0,0.0,0.0,0.0,0.0,0.0,0.0,0.0,0.0,0.0,0.0,0.0,0.0,0.0,2.7311,2.8389,2.9162,2.9551,3.0429,3.092,3.092,3.0734,3.0463,3.0108,3.1224,3.1579,3.1258,3.2374,3.2899,3.2899,3.2899,3.2899,3.2865,3.2324,3.1847,3.1441,3.0903,3.0784,3.0835,2.9666,2.8872,2.8196,2.6691,2.5575,2.4609,2.3494,2.4831,2.7351,2.9602,3.1072,3.2371,3.4433,3.6631,3.8913,4.1356,4.3403,4.5246,4.6938,4.7466,4.7817,4.8562,4.8731,4.8156,4.6126,4.391,4.1677,0.0,0.0,0.0,4.1457,4.4587,0.0,4.8054,4.9441,0.0,5.1117,0.0,5.3501,5.3501,5.3501,0.0,0.0,5.5006,5.575,5.6478,5.7222,5.7695,5.7881,5.7881,5.801,5.8192,5.8192,5.8334,5.8563,5.8563,5.8423,5.8192,5.8192,5.8101,5.7918,5.8082,5.8046,5.7954,5.8806,5.9196,5.9279,5.9806,5.9867,5.9762,6.0469,6.0085,5.9181,0.0,0.0,0.0,0.0,0.0,0.0,0.0,0.0,0.0,0.0,0.0,0.0,0.0,0.0,0.0,0.0,0.0,0.0,0.0,2.7742,2.8151,2.7994,2.8467,2.8738,2.8738,2.8434,2.8213,2.8146,2.8856,2.9364,2.9634,3.0362,3.0717,3.0717,3.0717,3.0531,3.0211,2.9786,2.921,0.0,0.0,2.7973,2.7938,2.7095,2.6943,2.706,2.5899,2.5865,2.6539,0.0,0.0,3.0243,3.2916,3.4032,3.4839,3.7324,0.0,4.1068,4.3217,4.4959,4.6464,4.7601,4.8125,4.8156,4.7259,4.7056,4.621,4.3234,4.0832,0.0,3.703,0.0,0.0,0.0,0.0,0.0,4.7378,4.8832,5.0103,0.0,5.257,0.0,5.3501,5.3501,5.394,0.0,5.548,5.6038,5.6765,5.7492,5.7881,5.7881,5.7881,5.7881,5.7881,5.7881,5.7881,5.7881,5.7881,5.7881,5.7881,5.7881,5.8046,5.8369,0.0,5.8841,5.8892,5.9853,5.9865,5.9376,6.0076,5.987,5.9247,6.0085,5.9803,5.905,0.0,0.0,0.0,0.0,0.0,0.0,0.0,0.0,0.0,0.0,0.0,0.0,0.0,0.0,0.0,0.0,0.0,0.0,0.0,0.0,2.7053,2.6691,2.6066,2.5761,2.5761,2.5134,2.5066,2.5592,2.6336,2.7317,2.857,2.9296,2.9651,2.9651,2.9651,2.9296,2.8688,2.8569,2.7739,2.6438,2.6337,2.5916,2.538,0.0,2.5849,2.6401,2.5715,2.6974,2.9404,3.2384,3.3169,3.3309,3.56,3.6411,3.7138,4.0527,4.1576,4.2252,4.4959,4.6244,4.6972,4.7733,4.846,4.8223,4.5275,4.4615,4.3616,4.0062,0.0,3.6326,3.5807,3.6128,3.6817,3.7836,0.0,4.2709,4.572,4.7327,4.8951,5.0948,5.2469,5.3382,5.3501,5.3602,5.4228,5.5615,5.5801,5.619,5.6917,5.7543,5.7881,5.7881,5.7881,5.7881,5.7881,5.7881,5.7881,5.7881,5.7881,5.7881,5.7881,5.7881,5.8244,5.8806,0.0,0.0,5.9776,6.1066,6.0819,5.9713,6.0386,6.0158,5.9452,5.9561,5.947,5.9198,0.0,0.0,0.0,0.0,0.0,0.0,0.0,0.0,0.0,0.0,2.8219,2.8035,0.0,0.0,0.0,0.0,0.0,0.0,0.0,0.0,0.0,2.6623,2.6556,2.6505,2.6505,2.637,2.6082,2.5592,2.6336,2.6522,2.6218,2.6945,2.7283,2.7283,2.7283,2.7215,2.7046,2.6387,2.5949,2.563,2.491,2.4895,2.5313,2.5313,0.0,0.0,2.6403,2.7817,3.0092,3.257,3.4573,3.6508,3.9343,4.0646,4.139,4.2658,4.3487,4.4276,4.5399,4.6244,4.6972,4.7733,4.846,4.8223,4.5275,4.4615,0.0,0.0,3.5165,3.4112,3.1544,3.3157,3.5904,3.8991,0.0,0.0,0.0,0.0,5.0084,0.0,0.0,0.0,0.0,0.0,0.0,0.0,0.0,0.0,5.7662,5.7814,5.7881,5.7881,5.7881,5.7881,5.7881,5.7881,5.7881,5.7881,5.7881,5.7881,5.7881,5.7881,5.7954,5.8082,0.0,0.0,5.8145,5.9004,5.9147,5.8874,5.9556,5.9325,5.8691,5.9361,5.8764,5.7695,0.0,0.0,0.0,0.0,0.0,0.0,0.0,2.7569,2.8223,2.7831,2.7777,2.7763,2.7707,2.758,2.7504,0.0,0.0,0.0,0.0,0.0,0.0,0.0,2.6691,2.6589,2.6589,2.6589,0.0,0.0,0.0,2.6,2.6068,0.0,2.5984,2.5984,2.5984,2.5765,2.5361,2.4976,2.4793,2.4728,2.4328,2.4796,2.5728,0.0,0.0,0.0,0.0,2.7964,3.0034,3.1266,3.3964,3.732,4.0273,4.1711,4.2439,4.32,4.3961,4.4767,4.55,4.5957,4.6397,4.7141,4.7597,4.6667,4.2134,0.0,0.0,0.0,3.165,3.1151,2.9563,0.0,0.0,0.0,0.0,0.0,0.0,0.0,0.0,0.0,0.0,0.0,0.0,0.0,0.0,0.0,0.0,0.0,5.7848,5.7881,5.7881,5.7881,5.7881,5.7881,5.7881,5.7881,5.7881,5.7881,5.7881,5.7881,5.7881,5.7881,5.8315,5.8977,5.8564,0.0,5.9312,5.9247,5.8926,5.8529,5.8858,5.8474,5.7822,5.8202,5.7858,5.7261,0.0,0.0,0.0,0.0,0.0,0.0,0.0,2.7307,2.7854,2.7095,2.7131,2.732,2.7486,2.7484,2.7452,0.0,0.0,0.0,0.0,0.0,0.0,0.0,0.0,0.0,0.0,0.0,0.0,0.0,0.0,0.0,0.0,0.0,0.0,0.0,0.0,2.5246,2.4694,2.4645,2.4629,0.0,0.0,2.5211,0.0,0.0,0.0,0.0,0.0,0.0,2.9187,2.9808,3.2422,3.5842,3.8601,4.0772,4.2371,4.2811,4.3724,4.4733,4.5314,4.5585,4.5838,4.6413,4.6667,4.5229,3.9259,3.7905,0.0,0.0,2.872,2.8665,2.8462,0.0,3.3469,0.0,0.0,0.0,0.0,0.0,0.0,0.0,0.0,0.0,0.0,0.0,0.0,0.0,0.0,0.0,5.7865,5.7845,5.7845,5.7881,5.7845,5.7845,5.7881,5.7881,5.7881,5.7881,5.7881,5.7881,5.7881,5.7881,5.8563,5.9721,5.8905,0.0,0.0,5.9465,5.8724,5.8148,5.8148,5.775,5.7188,5.7188,5.7188,5.7188,0.0,0.0,0.0,0.0,0.0,0.0,0.0,2.7118,2.6926,2.6136,2.6606,2.6987,2.6888,2.6774,2.706,0.0,0.0,0.0,0.0,0.0,0.0,0.0,0.0,0.0,0.0,0.0,0.0,0.0,0.0,0.0,0.0,0.0,0.0,0.0,0.0,0.0,0.0,2.6164,0.0,0.0,0.0,0.0,0.0,0.0,0.0,0.0,0.0,0.0,0.0,0.0,0.0,3.1083,3.3194,3.7745,4.2168,4.1576,0.0,0.0,4.4682,4.5179,4.572,4.5788,4.6295,4.5229,3.9259,0.0,0.0,2.9201,2.7819,2.7765,2.7566,2.7907,2.9576,3.3649,3.5435,3.8282,0.0,0.0,0.0,0.0,0.0,0.0,0.0,0.0,0.0,0.0,0.0,0.0,0.0,5.7735,5.7698,5.7881,5.7735,5.7698,5.7881,5.7881,5.7881,5.7881,5.7881,5.7881,5.7881,5.7881,5.8298,5.8959,0.0,0.0,0.0,5.7927,5.7487,5.7315,5.7315,5.7261,5.7188,5.7188,5.7188,5.7188,0.0,0.0,0.0,0.0,0.0,0.0,2.7087,2.7512,2.7534,2.6721,2.6882,2.7174,2.7483,2.7083,2.7146,2.8027,0.0,0.0,0.0,0.0,0.0,0.0,0.0,0.0,0.0,0.0,0.0,0.0,0.0,0.0,0.0,0.0,0.0,0.0,0.0,0.0,0.0,0.0,0.0,0.0,0.0,0.0,0.0,0.0,0.0,0.0,0.0,0.0,0.0,0.0,0.0,0.0,3.0345,3.372,0.0,0.0,4.1067,4.2844,4.4242,4.479,4.5026,4.5026,4.4215,4.2219,3.756,0.0,3.3069,2.8071,2.7009,2.6939,2.6781,2.7219,2.8464,3.1133,3.34,0.0,0.0,0.0,0.0,0.0,0.0,0.0,0.0,0.0,0.0,0.0,0.0,0.0,0.0,5.7808,5.7772,5.7735,5.7772,5.7772,5.7735,5.7845,5.7881,5.7881,5.7881,5.7881,5.7918,5.8334,5.8875,5.9491,0.0,0.0,0.0,5.7801,5.7255,5.7188,5.7188,5.7188,5.7188,5.7188,5.7188,5.7188,0.0,0.0,0.0,0.0,0.0,2.7295,2.7097,2.7518,2.7562,2.6746,2.6827,2.7121,2.7536,2.7317,2.738,2.7993,2.8056,0.0,0.0,0.0,0.0,0.0,0.0,0.0,0.0,0.0,2.6202,2.6202,2.6202,0.0,0.0,0.0,0.0,0.0,0.0,0.0,0.0,0.0,0.0,0.0,0.0,0.0,0.0,0.0,0.0,0.0,0.0,0.0,0.0,0.0,0.0,0.0,2.8137,3.0026,3.309,0.0,3.91,4.1271,4.3081,4.409,4.4615,4.4615,4.2878,4.0223,0.0,0.0,3.1136,2.7345,2.6486,2.6399,2.6294,2.6781,2.7669,2.9178,3.1456,3.3898,3.6388,0.0,0.0,0.0,0.0,0.0,0.0,0.0,0.0,0.0,0.0,0.0,0.0,5.7881,5.7862,5.7698,5.7772,5.7772,5.7698,5.7808,5.7881,5.7881,5.7881,5.7881,5.7918,5.8388,5.9113,5.996,0.0,0.0,0.0,5.7858,5.7188,5.7188,5.7188,5.7188,5.7188,5.7188,5.7188,5.7188,0.0,0.0,0.0,0.0,0.0,0.0,2.7121,2.6894,2.6534,2.5725,2.619,2.6613,2.6598,2.7262,2.7763,2.7888,2.7957,0.0,0.0,0.0,0.0,0.0,0.0,0.0,0.0,0.0,2.6202,2.6202,2.6202,2.6202,2.6202,2.6202,0.0,0.0,0.0,0.0,0.0,0.0,0.0,0.0,0.0,0.0,0.0,0.0,0.0,0.0,0.0,0.0,0.0,0.0,0.0,0.0,0.0,2.6932,2.8661,3.3123,3.7135,4.0282,4.1035,4.2878,4.4615,4.4615,4.2878,4.0223,0.0,0.0,3.1116,2.7291,2.6382,2.6294,2.6203,2.6202,2.6718,2.8275,2.9259,3.1422,3.5969,0.0,0.0,0.0,0.0,0.0,0.0,0.0,0.0,0.0,0.0,0.0,0.0,5.7881,5.7881,5.7898,5.7698,5.7698,5.7881,5.7881,5.7881,5.7881,5.7881,5.7881,5.7881,5.7918,5.8668,0.0,0.0,0.0,0.0,5.7858,5.7188,5.7188,5.7188,5.7188,5.7188,5.7188,5.7188,5.7188,0.0,0.0,0.0,0.0,0.0,0.0,0.0,2.7522,2.732,2.7005,2.7195,2.7321,2.7297,2.7531,2.7716,2.7763,2.7871,0.0,0.0,0.0,0.0,0.0,0.0,0.0,0.0,2.6169,2.5989,2.5989,2.6224,2.6224,2.6007,2.6241,2.6206,0.0,0.0,0.0,0.0,0.0,0.0,0.0,0.0,0.0,0.0,0.0,0.0,0.0,0.0,0.0,0.0,0.0,0.0,0.0,0.0,0.0,0.0,2.8459,3.1672,0.0,3.6282,3.7929,3.9029,3.7963,3.7144,3.591,3.322,3.1156,2.9171,2.6955,2.6363,2.6239,2.6203,2.6202,2.6868,2.8907,2.956,3.0851,0.0,0.0,0.0,0.0,0.0,0.0,0.0,0.0,0.0,0.0,0.0,0.0,0.0,5.7881,5.7862,5.7698,5.7772,5.7772,5.7698,5.7845,5.7881,5.7881,5.7881,5.7881,5.7918,5.8909,0.0,0.0,0.0,0.0,0.0,5.7858,5.7188,5.7188,5.7188,5.7188,5.7188,5.7188,5.7188,5.7188,0.0,0.0,0.0,0.0,0.0,0.0,0.0,2.7704,2.76,2.7602,2.7585,2.7569,2.7572,2.76,2.7612,2.7612,2.7692,0.0,0.0,0.0,0.0,0.0,0.0,0.0,2.6775,2.647,2.6162,2.5862,2.6067,2.6067,2.5862,2.5948,2.6029,2.6082,2.5954,2.5897,0.0,0.0,0.0,0.0,0.0,0.0,2.451,0.0,0.0,0.0,0.0,0.0,0.0,0.0,0.0,0.0,0.0,0.0,0.0,0.0,2.751,2.9865,3.2502,3.4535,3.5735,3.5081,3.4286,0.0,0.0,2.9688,2.7943,2.6754,2.6328,2.6202,2.6202,2.6202,2.6851,2.8818,2.929,0.0,0.0,0.0,0.0,0.0,0.0,0.0,0.0,0.0,0.0,0.0,0.0,0.0,0.0,0.0,5.7808,5.7625,5.7808,5.7845,5.7698,5.7845,5.7881,5.7881,5.7881,5.7881,5.7918,5.8806,0.0,0.0,0.0,0.0,0.0,5.7858,5.7188,5.7188,5.7188,5.7188,5.7188,5.7188,5.7188,5.7188,0.0,0.0,0.0,0.0,0.0,0.0,0.0,2.7465,2.7419,2.7557,2.7467,2.7423,2.7481,2.7496,2.7496,2.7496,0.0,0.0,0.0,0.0,0.0,0.0,0.0,0.0,2.7373,2.7103,2.6599,2.5835,2.5816,2.5799,2.5783,2.5428,2.5598,2.6233,2.5982,2.5885,2.5897,2.5879,2.5846,2.5731,2.5013,2.4343,0.0,0.0,0.0,0.0,0.0,0.0,0.0,0.0,0.0,0.0,0.0,0.0,0.0,0.0,0.0,0.0,0.0,3.215,3.3992,3.4631,0.0,0.0,0.0,2.9147,0.0,2.6636,2.6328,2.6219,2.6268,2.6286,2.6783,2.831,2.8765,0.0,0.0,0.0,0.0,0.0,0.0,0.0,0.0,0.0,0.0,0.0,0.0,0.0,0.0,0.0,5.7808,5.7625,5.7808,5.7881,5.7881,5.7881,5.7881,5.7881,5.7881,5.7881,5.7881,5.801,0.0,0.0,0.0,0.0,0.0,5.784,5.7188,5.7188,5.7188,5.7188,5.7188,5.7188,5.7188,5.7188,0.0,0.0,0.0,0.0,0.0,0.0,0.0,0.0,0.0,0.0,2.7327,2.7407,2.7423,2.7483,2.7496,0.0,0.0,0.0,0.0,0.0,0.0,0.0,0.0,0.0,2.7103,2.6725,2.6454,2.6269,2.5959,2.5717,2.5558,2.5078,2.4798,2.4744,2.5179,2.5569,2.5897,2.5731,2.535,2.4767,2.4138,2.3781,0.0,0.0,0.0,0.0,2.5588,2.5936,0.0,0.0,0.0,0.0,0.0,0.0,0.0,0.0,2.3767,2.3466,2.4595,0.0,2.8132,2.7142,2.8216,2.9208,0.0,2.7522,0.0,0.0,0.0,0.0,0.0,2.705,2.7696,2.9682,0.0,0.0,0.0,0.0,0.0,0.0,0.0,0.0,0.0,0.0,0.0,0.0,0.0,0.0,0.0,0.0,5.7881,5.7808,5.7881,5.7808,5.7662,5.7662,5.7735,5.7881,5.7881,5.7881,5.7918,5.9028,0.0,0.0,0.0,0.0,5.8601,5.7605,5.7188,5.7188,5.7188,5.7188,5.7188,5.7188,5.7188,5.7188,0.0,0.0,0.0,0.0,0.0,0.0,0.0,0.0,0.0,0.0,0.0,2.7266,2.7392,2.7327,0.0,0.0,0.0,0.0,0.0,0.0,0.0,0.0,0.0,2.7089,2.6633,2.6863,2.6661,2.5928,2.6135,2.6019,2.554,2.5471,2.535,2.5169,2.5514,2.5754,2.5864,2.5318,2.5065,2.492,2.3953,0.0,0.0,0.0,0.0,0.0,2.553,2.5881,0.0,2.599,2.6097,2.6136,0.0,0.0,0.0,0.0,2.2973,2.2392,2.2438,2.413,2.5798,2.5363,2.6702,2.7942,2.7137,2.6933,2.6778,0.0,0.0,0.0,0.0,0.0,0.0,0.0,0.0,0.0,0.0,0.0,0.0,0.0,0.0,0.0,0.0,0.0,0.0,0.0,0.0,0.0,0.0,0.0,5.7845,5.7772,5.7772,5.7735,5.7735,5.7735,5.7772,5.7881,5.7881,5.7881,5.7918,5.8702,0.0,0.0,0.0,0.0,5.8347,5.7532,5.7188,5.7188,5.7188,5.7188,5.7188,5.7188,5.7188,5.7188,0.0,0.0,0.0,0.0,0.0,0.0,0.0,0.0,0.0,0.0,0.0,0.0,0.0,0.0,0.0,0.0,0.0,0.0,0.0,0.0,0.0,0.0,2.7238,2.6924,2.634,2.6979,2.6752,2.5642,2.6137,2.6082,2.5513,2.5684,2.5802,2.5841,2.5816,2.5785,2.5701,2.4962,2.4968,2.5341,2.4128,0.0,0.0,0.0,0.0,0.0,0.0,0.0,0.0,2.5956,2.6079,2.6035,2.5325,0.0,0.0,0.0,0.0,0.0,2.1945,2.385,2.5896,2.6065,2.68,2.7434,2.7334,2.6763,2.6278,0.0,0.0,0.0,0.0,2.8182,0.0,0.0,0.0,0.0,0.0,0.0,0.0,0.0,0.0,0.0,0.0,0.0,0.0,0.0,0.0,0.0,0.0,0.0,0.0,5.7625,5.7588,5.7662,5.7845,5.7845,5.7881,5.7881,5.7881,5.7881,5.7881,5.8027,5.8273,0.0,0.0,0.0,5.8166,5.7478,5.7188,5.7188,5.7188,5.7188,5.7188,5.7188,5.7188,5.7188,0.0,0.0,0.0,0.0,0.0,0.0,0.0,0.0,0.0,0.0,0.0,0.0,0.0,0.0,0.0,0.0,0.0,0.0,0.0,0.0,0.0,2.6725,2.6455,2.6478,2.6868,2.5967,2.591,2.6745,2.5243,2.4683,2.4988,2.3856,2.3491,2.3765,2.3935,2.4373,2.4979,2.5301,2.5146,2.4644,2.4436,0.0,0.0,0.0,0.0,0.0,0.0,0.0,0.0,2.5937,2.6026,2.5913,2.5291,0.0,0.0,0.0,0.0,0.0,2.2559,2.5673,2.8044,2.5111,2.5875,2.717,2.6538,2.6304,2.6221,0.0,0.0,0.0,0.0,2.9435,0.0,0.0,0.0,0.0,0.0,0.0,0.0,0.0,0.0,0.0,0.0,0.0,0.0,0.0,0.0,0.0,0.0,0.0,0.0,5.7588,5.7439,5.7439,5.7625,5.7662,5.7735,5.7881,5.7881,5.7881,5.7918,5.8493,5.8367,0.0,0.0,5.805,5.7369,5.7243,5.7188,5.7188,5.7188,5.7188,5.7188,5.7188,5.7188,5.7188,0.0,0.0,0.0,0.0,0.0,0.0,0.0,0.0,0.0,0.0,0.0,0.0,0.0,0.0,0.0,0.0,0.0,0.0,0.0,0.0,2.64,2.6434,2.5916,2.5809,2.623,2.5926,2.5806,2.5916,2.4621,2.4077,2.4239,2.385,2.4025,2.4655,2.4863,2.4972,2.5024,2.5017,2.5033,2.5065,0.0,0.0,0.0,0.0,0.0,0.0,0.0,0.0,0.0,0.0,2.5607,2.5709,2.4298,0.0,0.0,0.0,0.0,0.0,2.221,2.4962,2.7539,2.6694,2.9281,3.1923,3.166,3.1299,3.0704,0.0,0.0,0.0,0.0,0.0,0.0,0.0,0.0,0.0,0.0,0.0,0.0,0.0,0.0,0.0,0.0,0.0,0.0,0.0,0.0,0.0,0.0,0.0,0.0,0.0,5.7402,5.7402,5.7588,5.7588,5.7698,5.7881,5.7881,5.7881,5.7918,5.78,5.7719,5.7588,0.0,5.7374,5.7188,5.7188,5.7188,5.7188,5.7188,5.7188,5.7188,5.7188,5.7188,5.7188,0.0,0.0,0.0,0.0,0.0,0.0,0.0,0.0,0.0,0.0,0.0,0.0,0.0,0.0,0.0,0.0,0.0,0.0,0.0,2.6064,2.6063,2.6189,2.5745,2.5497,2.5544,2.5598,2.5284,2.4518,2.3915,2.3649,2.3739,2.3958,2.446,2.5145,2.5396,2.5141,2.4546,2.4513,2.4744,2.5121,0.0,0.0,0.0,0.0,0.0,0.0,0.0,0.0,0.0,0.0,0.0,0.0,0.0,0.0,0.0,2.2331,2.193,2.1879,2.2242,2.4531,2.7196,2.8739,3.1724,3.4585,3.5759,3.5031,3.3918,0.0,0.0,0.0,0.0,0.0,0.0,0.0,0.0,0.0,0.0,0.0,0.0,0.0,0.0,0.0,0.0,0.0,0.0,0.0,0.0,0.0,0.0,0.0,0.0,0.0,5.7327,5.7327,5.7514,5.7514,5.7662,5.7881,5.7881,5.7797,5.7611,5.7053,5.6902,5.7108,5.668,5.6699,5.6992,5.7138,5.7188,5.7188,5.7188,5.7188,5.7188,5.7188,5.7188,5.7188,0.0,0.0,0.0,0.0,0.0,0.0,0.0,0.0,0.0,0.0,0.0,0.0,0.0,0.0,0.0,0.0,0.0,0.0,0.0,2.5954,2.5899,2.5934,2.6175,2.6033,2.543,2.4286,2.3526,2.3143,2.2897,2.3129,2.3788,2.3321,2.3144,2.3225,2.3621,2.3339,2.2686,2.395,2.4248,2.3881,2.4311,0.0,0.0,0.0,0.0,0.0,0.0,0.0,0.0,0.0,0.0,0.0,0.0,0.0,2.2768,2.2748,2.2298,2.2109,2.3549,2.6095,2.871,3.0259,2.9931,3.0319,3.451,3.3264,3.2152,3.5501,0.0,0.0,0.0,0.0,0.0,0.0,0.0,0.0,0.0,0.0,0.0,0.0,0.0,0.0,0.0,0.0,0.0,0.0,0.0,0.0,0.0,0.0,0.0,0.0,0.0,5.7139,5.7327,5.7327,5.7514,5.7881,5.7881,5.7526,5.6884,5.6816,5.6388,5.568,5.627,5.644,5.6393,5.6966,5.7188,5.7188,5.7188,5.7188,5.7188,5.7188,5.7188,5.7188,0.0,0.0,0.0,0.0,0.0,0.0,0.0,0.0,0.0,0.0,0.0,0.0,0.0,0.0,0.0,0.0,0.0,0.0,0.0,2.5752,2.5768,2.5881,2.6026,2.559,2.4547,2.4234,2.3774,2.3184,2.3076,2.3132,2.3359,2.3851,2.3951,2.376,2.408,2.3912,2.3457,2.4235,2.4684,2.4897,2.501,2.5104,0.0,0.0,0.0,0.0,0.0,0.0,0.0,0.0,2.3612,2.34,2.2867,2.2655,2.2572,2.2222,2.1968,2.2043,2.3117,2.6298,2.9585,3.072,3.1301,3.2791,3.7184,3.8042,3.8277,3.9792,4.0889,0.0,0.0,0.0,0.0,0.0,0.0,0.0,0.0,0.0,0.0,0.0,0.0,0.0,0.0,0.0,0.0,0.0,0.0,0.0,0.0,0.0,0.0,0.0,0.0,5.7101,5.7289,5.7289,5.7439,5.7698,5.7389,5.7306,5.7442,5.6055,5.5927,5.6791,5.6107,5.6227,5.6863,5.7112,5.7188,5.7188,5.7188,5.7188,5.7188,5.7188,5.7188,5.7188,0.0,0.0,0.0,0.0,0.0,0.0,0.0,0.0,0.0,0.0,0.0,0.0,0.0,0.0,0.0,0.0,0.0,0.0,2.568,2.564,2.5696,2.5844,2.5952,2.5466,2.4381,2.4577,2.3968,2.2452,2.2857,2.3402,2.4041,2.4663,2.4863,2.4706,2.4957,2.4769,2.4281,2.4726,2.509,2.5368,2.5297,2.5264,0.0,0.0,0.0,0.0,0.0,0.0,0.0,0.0,2.2749,2.2685,2.2232,2.2149,2.2196,2.2075,2.225,2.2673,2.353,2.6385,2.9477,3.1075,3.2452,3.4619,3.9252,4.0542,4.1394,4.3612,4.4536,4.4604,4.3555,0.0,0.0,0.0,0.0,0.0,0.0,0.0,0.0,0.0,0.0,0.0,0.0,0.0,0.0,0.0,0.0,0.0,0.0,0.0,0.0,0.0,0.0,5.7214,5.7289,5.7289,5.7402,5.7571,5.6993,5.6981,5.7492,5.597,5.5911,5.6955,5.6104,5.623,5.6994,5.7397,5.7587,5.755,5.7297,5.7188,5.7188,5.7188,5.7188,5.7188,0.0,0.0,0.0,0.0,0.0,0.0,0.0,0.0,0.0,0.0,0.0,0.0,0.0,0.0,0.0,0.0,0.0,0.0,2.5597,2.5661,2.5701,2.5703,2.6025,2.5854,2.5127,2.5297,2.3828,2.0621,2.2086,2.3905,2.5987,2.5641,2.5609,2.5804,2.6014,2.5616,2.4849,2.5366,2.5324,2.4903,2.4971,2.499,2.4993,0.0,0.0,0.0,0.0,0.0,0.0,0.0,2.2457,2.1488,2.3077,2.259,2.1611,2.252,2.3373,2.4215,2.5163,2.6503,2.8419,3.1526,3.2882,3.4844,4.0054,3.9529,3.9868,4.6519,4.6769,4.5737,4.5703,0.0,0.0,0.0,0.0,0.0,0.0,0.0,0.0,0.0,0.0,0.0,0.0,0.0,0.0,0.0,0.0,0.0,0.0,0.0,0.0,0.0,0.0,0.0,5.7289,5.7289,5.7402,5.7588,5.6864,5.6636,5.6816,5.6799,5.641,5.5753,5.6258,5.6495,5.6616,5.7873,5.8402,5.8311,5.7514,5.7188,5.7188,5.7188,5.7188,5.7188,0.0,0.0,0.0,0.0,0.0,0.0,0.0,0.0,0.0,0.0,0.0,0.0,0.0,0.0,0.0,0.0,0.0,0.0,2.5661,2.5682,2.5809,2.6043,2.615,2.5908,2.5313,2.4454,2.354,2.2557,2.3112,2.3954,2.509,2.5275,2.5479,2.5656,2.5514,2.5327,2.5077,2.5101,2.5219,2.5371,2.5166,2.4802,2.437,0.0,0.0,0.0,0.0,0.0,0.0,0.0,0.0,0.0,2.189,2.2213,2.2439,2.2716,2.3405,2.4264,2.5146,2.8824,0.0,3.2324,0.0,0.0,0.0,4.2226,0.0,0.0,4.8342,4.7547,0.0,0.0,0.0,0.0,0.0,0.0,0.0,0.0,0.0,0.0,0.0,0.0,0.0,0.0,0.0,0.0,0.0,0.0,0.0,0.0,0.0,0.0,0.0,0.0,5.7514,5.7364,5.7402,5.7588,5.7369,5.7378,5.7526,5.6511,5.6402,5.709,5.6716,5.71,5.801,5.8268,5.8076,5.7532,5.7279,5.7188,5.7188,5.7188,5.7188,5.7188,0.0,0.0,0.0,0.0,0.0,0.0,0.0,0.0,0.0,0.0,2.6923,2.6741,0.0,0.0,0.0,0.0,0.0,0.0,0.0,2.5864,2.6008,2.624,2.6328,2.6216,2.5916,2.4578,2.3985,2.4196,2.3906,2.4218,2.5118,2.5866,2.6169,2.6114,2.6522,2.6451,2.6027,2.5887,2.597,2.6086,2.5775,2.5202,2.4517,0.0,0.0,0.0,0.0,0.0,0.0,0.0,0.0,0.0,2.1449,2.2064,2.2815,2.3176,2.4265,2.5762,2.754,3.1106,0.0,3.5583,3.8751,4.2269,4.4626,0.0,0.0,0.0,0.0,0.0,0.0,0.0,0.0,0.0,0.0,0.0,0.0,0.0,0.0,0.0,0.0,0.0,0.0,0.0,0.0,0.0,0.0,0.0,0.0,0.0,0.0,0.0,0.0,0.0,5.715,5.7325,5.7476,5.7588,5.7588,5.7698,5.7865,5.6985,5.6995,5.774,5.7242,5.765,5.8577,5.8169,5.7869,5.7641,5.7315,5.7188,5.7188,5.7188,5.7188,5.7188,0.0,0.0,0.0,0.0,0.0,0.0,0.0,0.0,0.0,0.0,2.6841,2.6792,0.0,0.0,0.0,0.0,0.0,0.0,0.0,2.6133,2.624,2.6313,2.652,2.664,2.6691,2.5369,2.4932,2.5462,2.4461,2.4558,2.5722,2.6876,2.7196,2.6842,2.8218,2.8225,2.7241,2.7241,2.7057,2.6798,2.6524,2.5913,2.5045,2.4265,0.0,0.0,0.0,0.0,0.0,0.0,0.0,0.0,2.1707,2.2309,2.3063,2.3869,2.5791,2.8237,3.1122,3.3297,0.0,4.0037,4.1914,0.0,4.7124,4.8477,4.9001,0.0,0.0,0.0,0.0,0.0,0.0,0.0,0.0,0.0,0.0,0.0,0.0,0.0,0.0,0.0,0.0,0.0,0.0,0.0,0.0,0.0,0.0,0.0,0.0,0.0,0.0,0.0,5.641,5.7116,5.7487,0.0,5.7554,5.7698,5.7881,5.7881,5.7881,5.792,5.7913,5.8156,5.8463,5.7864,5.7864,5.822,5.7496,5.7188,5.7188,5.7188,5.7188,5.7188,0.0,0.0,0.0,0.0,0.0,0.0,0.0,0.0,0.0,0.0,0.0,0.0,0.0,0.0,0.0,0.0,0.0,0.0,0.0,2.626,2.6365,2.6537,2.6742,2.6792,2.6691,2.5845,2.552,2.5787,2.4439,2.4411,2.5625,2.5963,2.6335,2.6742,2.7215,2.7199,2.6826,2.6723,2.6496,2.6171,2.595,2.5386,2.4596,2.4099,2.3534,0.0,0.0,0.0,0.0,0.0,0.0,0.0,2.3063,2.3868,2.4612,2.4812,2.7359,3.0266,3.0942,3.4886,0.0,0.0,4.3098,4.6194,4.7567,4.8477,0.0,0.0,0.0,0.0,0.0,0.0,0.0,0.0,0.0,0.0,0.0,0.0,0.0,0.0,0.0,0.0,0.0,0.0,0.0,0.0,0.0,0.0,0.0,0.0,0.0,0.0,0.0,5.583,5.5636,5.6376,5.6746,0.0,5.7318,5.7698,5.7881,5.7881,5.7881,5.7937,5.9058,5.8854,5.788,5.8751,5.8453,5.7442,5.7261,5.7188,5.7188,5.7188,5.7188,5.7188,0.0,0.0,0.0,0.0,0.0,0.0,0.0,0.0,0.0,0.0,0.0,0.0,0.0,0.0,0.0,0.0,0.0,0.0,0.0,0.0,2.6503,2.664,2.6742,2.6792,2.6792,2.6095,2.5925,2.6281,2.5186,2.4924,2.5479,2.6253,2.6809,2.7198,2.7828,2.7844,2.7419,2.7335,2.6979,2.642,2.6262,2.5812,2.5213,2.4563,2.4082,2.3618,2.2926,0.0,0.0,0.0,0.0,0.0,0.0,0.0,2.5039,2.5489,2.7306,2.9822,3.2789,0.0,0.0,4.2489,0.0,4.709,4.8189,4.8731,0.0,0.0,0.0,0.0,0.0,0.0,0.0,0.0,0.0,0.0,0.0,0.0,0.0,0.0,0.0,0.0,0.0,0.0,0.0,0.0,0.0,0.0,0.0,0.0,0.0,0.0,5.4786,5.5123,5.5019,5.5761,5.6265,5.6655,5.7027,5.7471,5.7881,5.7881,5.7881,5.7937,5.8615,5.8616,5.8176,5.8438,5.8231,5.7732,5.7351,5.7188,5.7188,5.7188,5.7188,5.7188,0.0,0.0,0.0,0.0,0.0,0.0,0.0,0.0,0.0,0.0,0.0,0.0,0.0,0.0,0.0,0.0,0.0,0.0,0.0,0.0,0.0,2.6624,2.6657,2.6725,2.6809,2.6264,2.6214,2.6691,2.6151,2.5782,2.563,2.6953,2.7612,2.7701,2.8747,2.8784,2.8049,2.8083,2.7639,2.6872,2.6757,2.6531,2.6186,2.5397,2.4928,2.463,2.4001,2.3835,2.3885,2.3815,0.0,0.0,0.0,0.0,2.5199,2.5968,2.7,2.9021,3.4142,0.0,3.8672,4.5184,4.6786,0.0,4.8663,0.0,0.0,0.0,0.0,0.0,0.0,0.0,0.0,0.0,0.0,0.0,0.0,0.0,0.0,0.0,0.0,0.0,0.0,0.0,0.0,0.0,0.0,0.0,0.0,0.0,5.3501,5.3501,5.4093,5.4397,5.4363,5.5107,5.58,5.6391,5.6645,5.712,5.7695,5.7831,5.7881,5.792,5.8033,5.8303,5.8544,5.7985,5.8026,5.8329,5.7514,5.7279,5.7387,5.7243,5.7188,5.7188,0.0,0.0,0.0,0.0,0.0,0.0,0.0,0.0,0.0,0.0,2.6725,0.0,0.0,0.0,0.0,0.0,0.0,0.0,0.0,0.0,0.0,2.6365,2.6521,2.6572,2.647,2.6386,2.6438,2.6691,2.6609,2.6681,2.6871,2.7311,2.7522,2.7557,2.8478,2.8341,2.7437,2.7666,2.7402,2.6823,2.6856,2.6869,2.6842,2.6442,2.6177,2.59,2.4851,2.4397,2.4356,2.4577,2.472,0.0,0.0,0.0,2.6052,2.6169,2.8154,3.054,3.1411,0.0,4.0763,0.0,4.6786,4.7192,0.0,0.0,0.0,0.0,0.0,0.0,0.0,0.0,0.0,0.0,0.0,0.0,0.0,0.0,0.0,0.0,0.0,0.0,0.0,0.0,0.0,0.0,0.0,0.0,0.0,5.3501,5.3501,5.3501,5.3602,5.3568,5.3398,5.4295,5.4717,5.4644,5.6119,5.685,5.6968,5.7594,5.7881,5.7991,5.9176,5.8976,5.7855,5.8876,5.8939,5.8329,5.7514,5.7623,5.8166,5.746,5.7188,5.7188,0.0,0.0,0.0,0.0,0.0,0.0,0.0,0.0,0.0,0.0,0.0,2.6708,0.0,0.0,0.0,0.0,0.0,0.0,0.0,0.0,0.0,2.6521,2.6725,2.6725,2.6521,2.6555,2.6758,2.7143,2.6986,2.7271,2.7952,2.8213,2.8414,2.8591,2.908,2.8908,2.8255,2.8325,2.7843,2.6955,2.6757,2.7811,2.9211,2.7013,2.7284,2.8575,2.6218,2.5397,2.5413,2.5451,2.5513,2.5597,2.5873,0.0,0.0,0.0,2.7151,2.8993,3.2466,3.6653,4.1024,0.0,4.6481,4.7073,0.0,0.0,0.0,0.0,0.0,0.0,0.0,0.0,0.0,0.0,0.0,0.0,0.0,0.0,0.0,0.0,0.0,0.0,0.0,0.0,0.0,0.0,0.0,0.0,5.3501,5.3501,5.3501,5.3501,5.3501,5.3467,5.3382,5.3788,5.416,5.4497,5.5647,5.641,5.6816,5.7137,5.7509,5.7937,5.8478,5.8517,5.8299,5.8827,5.9069,5.9054,5.8691,5.8492,5.8365,5.8003,5.7587,5.7188,0.0,0.0,0.0,0.0,0.0,0.0,0.0,0.0,0.0,0.0,0.0,0.0,0.0,0.0,0.0,0.0,0.0,0.0,0.0,0.0,0.0,2.6556,2.6725,2.6776,2.6683,2.6754,2.7089,2.7661,2.7613,2.7954,2.8658,2.9137,2.9444,2.9564,2.9782,2.958,2.9048,2.8859,2.818,2.7298,2.7571,2.9219,3.1192,2.8596,2.9178,3.096,2.7629,2.6542,2.6578,2.6202,2.6082,2.6064,0.0,0.0,0.0,0.0,0.0,0.0,0.0,0.0,3.8797,4.3382,4.5111,4.6041,0.0,0.0,0.0,0.0,0.0,0.0,0.0,0.0,0.0,0.0,0.0,0.0,0.0,0.0,0.0,0.0,0.0,0.0,0.0,0.0,0.0,0.0,0.0,0.0,5.3501,5.3501,5.3501,5.3501,5.3501,5.3501,5.3501,5.3501,5.3788,5.4329,5.5004,5.5646,5.6241,5.632,5.6846,5.7613,5.7878,5.8293,5.8808,5.8893,5.9309,5.9868,5.9452,5.9054,5.8655,5.8257,5.7713,5.7188,0.0,0.0,0.0,0.0,0.0,0.0,0.0,0.0,0.0,0.0,0.0,0.0,2.9177,2.8476,2.7947,2.7775,2.7165,0.0,0.0,0.0,0.0,2.6157,2.6261,0.0,2.6885,2.6994,2.7394,2.8066,2.8621,2.8851,2.8804,2.9838,3.0204,2.9989,3.0246,2.9955,2.9246,2.8671,2.8172,2.7943,3.0076,3.1236,3.1724,3.2124,3.2449,3.2248,2.8912,2.7757,2.7655,2.6634,2.6278,2.626,0.0,2.6185,2.6185,0.0,0.0,0.0,0.0,3.1251,0.0,3.9674,0.0,0.0,0.0,0.0,0.0,0.0,0.0,0.0,0.0,0.0,0.0,0.0,0.0,0.0,0.0,0.0,0.0,0.0,0.0,0.0,0.0,0.0,0.0,0.0,0.0,0.0,5.3501,5.3501,5.3501,5.3501,5.3501,5.3501,5.3501,5.3501,5.3518,5.3568,5.4124,5.4495,5.4735,5.506,5.5818,5.6919,5.8273,5.8812,5.8843,5.9479,6.0134,6.0593,5.9072,5.8909,5.9361,5.7822,5.7243,5.7188,0.0,0.0,0.0,0.0,0.0,0.0,0.0,0.0,0.0,0.0,0.0,0.0,0.0,2.747,2.7369,2.7826,2.7958,0.0,0.0,0.0,0.0,2.7916,2.8076,2.8105,2.7987,2.783,2.8053,2.8686,2.8881,2.924,2.9706,3.018,3.0354,3.0253,3.0401,3.0026,2.9272,2.8649,2.8037,2.7668,2.9872,3.2001,3.3734,3.253,3.4223,0.0,0.0,0.0,0.0,0.0,0.0,0.0,2.6294,2.6259,2.6276,2.6203,2.6221,0.0,0.0,0.0,0.0,3.639,3.9902,0.0,0.0,0.0,0.0,0.0,0.0,0.0,0.0,0.0,0.0,0.0,0.0,0.0,0.0,0.0,0.0,0.0,0.0,0.0,0.0,0.0,0.0,0.0,0.0,0.0,5.3501,5.3501,5.3501,5.3501,5.3501,5.3501,5.3501,5.3501,5.3501,5.3501,5.3703,5.399,5.4427,5.468,5.5203,5.5964,5.7082,5.7775,5.8187,5.9415,6.0018,6.0134,5.9998,5.9814,5.947,5.8365,5.7641,5.7188,0.0,0.0,0.0,0.0,0.0,0.0,0.0,0.0,0.0,3.0872,0.0,0.0,0.0,0.0,2.7855,2.8074,2.8454,2.8572,2.8376,2.8922,2.9121,2.8777,2.8887,2.8897,2.8769,2.8322,2.8465,2.9349,2.9167,2.9454,3.0146,3.0338,3.0422,3.0401,3.0199,2.9968,2.9659,2.9016,2.8459,2.826,3.1215,3.3667,3.5422,0.0,0.0,0.0,0.0,0.0,0.0,0.0,0.0,0.0,0.0,2.7113,2.6276,2.6203,2.6202,0.0,2.8707,0.0,0.0,0.0,0.0,0.0,0.0,0.0,0.0,0.0,0.0,0.0,0.0,0.0,0.0,0.0,0.0,0.0,0.0,0.0,0.0,0.0,0.0,0.0,0.0,0.0,0.0,0.0,0.0,0.0,5.3501,5.3501,5.3501,5.3501,5.3501,5.3501,5.3501,5.3501,5.3501,5.3501,5.3416,5.3602,5.4022,5.404,5.4427,5.5152,5.5729,5.6643,5.784,5.9362,5.9933,5.9838,6.0241,6.0086,5.9506,5.8709,5.8058,5.7605,0.0,0.0,0.0,0.0,0.0,0.0,0.0,0.0,3.1816,3.2706,0.0,0.0,0.0,0.0,0.0,2.8591,2.8603,2.8619,2.8558,2.8881,2.8901,2.8577,0.0,0.0,2.9128,2.8436,2.8702,3.0017,2.9559,2.9575,3.0017,3.0326,3.0431,3.0351,2.9691,2.9794,3.0423,2.9645,2.9347,2.9764,0.0,3.6298,3.6575,0.0,0.0,0.0,3.4588,3.3544,0.0,0.0,0.0,0.0,0.0,2.8748,2.627,2.6268,2.6252,0.0,0.0,0.0,0.0,0.0,0.0,0.0,0.0,0.0,0.0,0.0,0.0,0.0,0.0,0.0,0.0,0.0,0.0,0.0,0.0,0.0,0.0,0.0,0.0,0.0,0.0,0.0,0.0,0.0,0.0,5.2638,5.3433,5.3501,5.3501,5.3501,5.3501,5.3501,5.3501,5.3501,5.3501,5.3501,5.3298,5.3314,5.3467,5.3093,5.3513,5.4549,5.4359,5.5587,5.7822,5.9309,5.9885,5.9755,5.9655,5.9607,5.9506,5.8709,5.8402,5.8402,0.0,0.0,0.0,0.0,0.0,3.2814,3.3017,3.217,3.1382,0.0,0.0,0.0,2.971,2.9645,2.9433,2.8971,2.9534,2.9852,2.9745,3.0176,3.0356,3.0162,3.0162,3.0222,3.0342,2.9848,2.9817,3.029,3.0157,3.0198,3.0363,2.9902,2.9694,2.9674,2.9479,2.9496,2.9612,2.839,2.8194,2.9072,3.3589,3.5847,0.0,0.0,0.0,0.0,0.0,3.9006,3.9074,0.0,3.7476,3.4221,0.0,0.0,2.7854,2.7815,2.7796,0.0,2.7796,0.0,0.0,0.0,0.0,0.0,0.0,0.0,0.0,0.0,0.0,0.0,0.0,0.0,0.0,0.0,0.0,0.0,0.0,0.0,0.0,0.0,0.0,0.0,0.0,0.0,0.0,0.0,5.2012,5.2401,5.2621,5.3179,5.3501,5.3501,5.3501,5.3501,5.3501,5.3501,5.3501,5.3501,5.3433,5.3382,5.3264,5.3314,5.3416,5.3635,5.4243,5.4872,5.5639,5.7597,5.8669,5.9135,5.9565,5.9708,5.9506,5.8709,5.8402,5.8285,0.0,0.0,0.0,0.0,0.0,3.3095,3.2881,3.2181,3.1501,0.0,0.0,0.0,2.9635,2.9776,2.9843,2.9696,3.0153,3.0401,3.0338,3.063,3.0757,3.0679,3.0679,3.0679,3.0679,3.015,3.0041,3.0396,3.0125,3.0146,3.0464,3.0038,2.986,2.9843,2.9529,2.9397,2.9314,2.8265,0.0,0.0,3.4647,0.0,0.0,4.0845,4.2865,0.0,0.0,0.0,4.2269,4.3217,4.0113,0.0,0.0,0.0,0.0,0.0,0.0,0.0,0.0,0.0,0.0,0.0,0.0,0.0,0.0,3.7952,0.0,0.0,0.0,0.0,0.0,0.0,0.0,0.0,0.0,0.0,0.0,0.0,0.0,0.0,0.0,0.0,0.0,0.0,0.0,0.0,5.115,5.1657,5.2266,5.3061,5.3501,5.3501,5.3501,5.3501,5.3501,5.3501,5.3501,5.3501,5.3501,5.3433,5.3348,5.3467,5.3433,5.3365,5.3906,5.4313,5.4685,5.5945,5.7211,5.8413,5.9373,5.9655,5.9542,5.9072,5.8691,5.8303,0.0,0.0,3.3766,3.3283,3.3083,3.2879,3.2525,3.2137,3.1905,0.0,3.1543,3.1069,3.0779,3.0737,3.0737,3.0737,3.0737,3.0737,3.0737,3.0737,3.0737,3.0737,3.0737,3.0737,3.0737,3.0092,3.0022,3.0533,2.9955,2.9922,3.0401,3.0402,3.0373,3.034,2.9694,2.9417,2.9387,0.0,0.0,3.1654,3.6602,3.8731,0.0,0.0,4.3764,0.0,4.3764,4.3815,4.417,4.6041,4.3027,0.0,0.0,0.0,0.0,0.0,2.9001,0.0,0.0,0.0,0.0,0.0,0.0,0.0,3.7178,3.8238,0.0,0.0,0.0,0.0,0.0,0.0,0.0,0.0,0.0,0.0,0.0,0.0,0.0,0.0,0.0,0.0,0.0,0.0,4.9272,4.9915,5.0033,5.0727,5.2215,5.2993,5.3416,5.3501,5.3501,5.3501,5.3501,5.3501,5.3501,5.3501,5.3501,5.3501,5.3501,5.3501,5.3501,5.3467,5.3501,5.3873,5.4465,5.4635,5.5828,5.7697,5.8902,5.942,5.9473,5.948,5.8991,5.835,0.0,3.411,3.3978,3.3783,3.2988,3.2339,3.2269,3.1922,3.1663,3.1705,3.2087,3.2353,3.2287,3.2266,3.2266,3.2266,3.2266,3.2266,3.2266,3.2266,3.2266,3.2266,3.2266,3.2266,3.2266,3.2116,3.1835,3.1378,3.1234,3.0936,3.0468,2.9893,2.9612,2.9595,2.9446,2.9457,2.9589,0.0,0.0,3.4762,3.6989,0.0,4.0154,4.4508,4.6143,4.6143,4.6143,4.6532,4.6891,0.0,4.4739,4.2598,0.0,0.0,0.0,0.0,0.0,0.0,0.0,0.0,0.0,0.0,0.0,0.0,3.211,3.263,0.0,0.0,0.0,0.0,0.0,0.0,0.0,0.0,0.0,0.0,0.0,0.0,0.0,0.0,0.0,0.0,0.0,0.0,4.9069,4.9204,4.9763,5.0727,5.2215,5.2452,5.2841,5.3484,5.3501,5.3501,5.3501,5.3501,5.3501,5.3501,5.3501,5.3501,5.3501,5.3501,5.3416,5.3264,5.3416,5.3501,5.3568,5.4814,5.5893,5.6911,5.7728,5.8372,5.8775,5.8671,5.8469,5.8129,3.3968,3.3965,3.4096,3.4576,3.4033,3.3483,3.3287,3.2917,3.258,3.2199,3.2464,3.2702,3.2702,3.2763,3.2768,3.2702,3.2829,3.2701,3.2183,3.2275,3.2297,3.215,3.2232,3.2381,3.2702,3.2702,3.2332,3.1598,3.1598,3.1217,3.0489,3.0125,2.9943,2.9943,3.0024,3.0102,3.0179,0.0,3.2866,3.6211,3.8065,0.0,4.2672,4.6435,4.7902,4.7902,4.7902,4.8139,4.8342,4.7597,4.5365,0.0,0.0,3.9817,3.7646,0.0,3.4375,3.4518,0.0,0.0,0.0,3.0952,0.0,0.0,0.0,3.2763,3.3445,0.0,0.0,0.0,0.0,0.0,0.0,0.0,0.0,0.0,0.0,0.0,0.0,0.0,0.0,0.0,0.0,0.0,4.9001,4.9001,4.9678,5.0405,5.115,5.1894,5.2486,5.2892,5.3298,5.3501,5.3501,5.3501,5.3501,5.3501,5.3501,5.3501,5.3501,5.3501,5.3382,5.3213,5.3416,5.3382,5.3281,5.4023,5.4838,5.577,5.7488,5.8283,5.8484,5.8425,5.8071,5.7518,3.3526,3.3574,3.3848,3.4693,3.4632,3.4363,3.4035,3.3872,3.3647,3.3222,3.3155,3.3178,3.32,3.3673,3.3945,3.3854,3.4453,3.4225,3.2835,3.2939,3.276,3.2132,3.2069,3.2319,3.2962,3.2807,3.237,3.1641,3.1598,3.1217,3.0506,3.0506,3.051,3.0564,3.127,3.135,3.1007,0.0,0.0,3.7634,0.0,4.1912,4.5111,4.7936,4.9001,4.9001,4.9001,4.9001,4.8934,4.8511,0.0,4.2236,4.32,4.1135,0.0,0.0,0.0,0.0,0.0,0.0,0.0,0.0,0.0,3.1466,0.0,0.0,0.0,3.5654,0.0,0.0,0.0,0.0,0.0,0.0,0.0,0.0,0.0,0.0,0.0,0.0,0.0,0.0,0.0,0.0,4.8392,4.8968,4.9018,4.934,5.005,5.1234,5.2012,5.2283,5.2942,5.3348,5.3501,5.3501,5.3501,5.3501,5.3501,5.3501,5.3501,5.3467,5.3348,5.3213,5.3382,5.3348,5.3144,5.3349,5.3906,5.4918,5.7074,5.7987,5.806,5.8143,5.7673,5.6959,3.2683,3.2728,3.2829,3.2821,3.29,3.2934,3.2896,3.3404,3.4051,3.4748,3.4815,3.4862,3.4994,3.6764,3.7961,3.7936,0.0,0.0,3.7008,0.0,3.5994,3.3985,3.3255,3.3238,3.4002,3.3278,3.2535,3.1786,3.1663,3.1217,3.0506,3.0506,3.0551,3.0788,3.3501,3.3662,0.0,0.0,3.7185,0.0,4.024,4.2286,0.0,4.8139,4.9001,4.9001,4.9001,4.9001,4.8714,0.0,4.5686,4.4553,0.0,4.1948,0.0,0.0,0.0,0.0,0.0,0.0,0.0,0.0,3.2034,0.0,0.0,0.0,3.1752,3.1376,0.0,0.0,0.0,0.0,0.0,0.0,0.0,0.0,0.0,0.0,0.0,0.0,0.0,0.0,0.0,0.0,0.0,4.8798,4.665,4.6663,4.9915,5.0253,5.0947,5.2266,5.2384,5.279,5.3501,5.3501,5.3501,5.3501,5.3501,5.3501,5.3501,5.3314,5.3213,5.3179,5.3213,5.311,5.3007,5.3811,5.4516,5.507,5.5383,5.5983,5.6764,5.7189,5.7203,5.7003,3.334,3.3303,3.3591,3.4381,3.423,3.4104,3.4551,3.4589,3.4692,3.5055,3.5175,3.5245,3.5291,0.0,0.0,0.0,0.0,3.948,0.0,0.0,3.6226,3.427,3.3091,0.0,3.4164,3.3384,3.2567,3.1807,3.1727,3.1298,3.0506,3.0589,3.0651,3.0845,3.3991,0.0,3.4172,0.0,3.7932,0.0,0.0,0.0,0.0,4.7986,4.9001,4.9001,4.9001,4.9001,4.8866,0.0,4.5872,0.0,0.0,0.0,0.0,0.0,0.0,0.0,0.0,0.0,0.0,0.0,0.0,0.0,0.0,0.0,3.087,0.0,0.0,0.0,0.0,0.0,0.0,0.0,0.0,0.0,0.0,0.0,0.0,0.0,0.0,0.0,0.0,0.0,0.0,0.0,0.0,4.6036,4.9289,4.9864,5.0574,5.164,5.208,5.2689,5.3501,5.3501,5.3501,5.3501,5.3501,5.3433,5.3348,5.3348,5.323,5.3041,5.3144,5.3076,5.2938,5.3213,5.373,5.4454,5.4774,5.6024,5.7629,5.7823,5.8125,5.8392,3.4203,0.0,0.0,3.5512,3.5263,3.5105,3.5676,3.539,3.5128,3.5198,0.0,0.0,3.5383,3.6569,0.0,0.0,4.0914,4.0805,0.0,0.0,3.7158,0.0,0.0,0.0,0.0,0.0,3.2357,3.1575,3.1529,3.1183,3.0568,3.0651,3.0712,3.0887,0.0,3.583,3.5937,0.0,0.0,4.1651,4.1999,4.3369,4.5495,4.8037,4.9001,4.9001,4.9001,4.9001,4.8917,4.8308,4.5923,0.0,4.6329,0.0,0.0,0.0,0.0,0.0,3.5733,0.0,0.0,0.0,0.0,0.0,0.0,0.0,0.0,0.0,0.0,0.0,0.0,0.0,0.0,0.0,0.0,0.0,0.0,0.0,0.0,0.0,0.0,0.0,0.0,0.0,0.0,0.0,0.0,0.0,4.8798,4.9509,5.0135,5.0879,5.1623,5.2384,5.3162,5.3399,5.3501,5.3501,5.3501,5.3416,5.3298,5.3382,5.328,5.3058,5.311,5.3041,5.2868,5.2694,5.323,5.42,5.4859,5.6613,5.8673,5.8239,5.8505,5.9077,3.4866,3.4866,0.0,0.0,0.0,0.0,0.0,0.0,0.0,0.0,0.0,0.0,0.0,0.0,0.0,0.0,0.0,4.6532,4.1398,0.0,4.0087,0.0,0.0,3.4421,0.0,0.0,0.0,3.1029,3.0827,3.0725,3.0692,3.0692,3.077,3.1059,3.4863,3.6645,3.6965,3.9834,4.2794,4.5466,4.4756,4.541,4.6887,0.0,4.9001,4.9001,4.9001,0.0,0.0,4.6532,4.572,0.0,0.0,0.0,0.0,0.0,0.0,0.0,0.0,0.0,0.0,3.4041,0.0,0.0,0.0,0.0,3.1565,0.0,0.0,0.0,0.0,0.0,3.2835,3.1402,0.0,0.0,0.0,0.0,0.0,0.0,0.0,0.0,0.0,0.0,0.0,0.0,0.0,0.0,4.8697,4.9018,4.9373,5.0101,5.0862,5.1606,5.2334,5.3112,5.3501,5.3501,5.3501,5.3501,5.3467,5.3298,5.3314,5.3467,5.3093,5.2903,5.2868,5.2694,5.3482,5.4839,5.5649,5.7428,5.9379,5.7804,5.775,5.8329,0.0,0.0,0.0,0.0,0.0,0.0,0.0,3.5245,0.0,0.0,0.0,0.0,0.0,0.0,4.2912,0.0,0.0,4.5432,4.2134,4.1474,0.0,0.0,0.0,3.4709,0.0,0.0,0.0,0.0,0.0,3.1316,3.0831,3.0831,3.0892,3.1143,0.0,3.7577,0.0,0.0,0.0,0.0,0.0,4.4857,4.753,0.0,0.0,4.8477,4.9949,5.0473,0.0,4.961,4.8392,4.7208,4.7394,4.5957,4.4248,4.4485,4.4028,0.0,0.0,0.0,4.2206,3.7343,0.0,0.0,0.0,0.0,0.0,0.0,0.0,0.0,0.0,0.0,3.2971,3.1683,3.1928,0.0,0.0,0.0,0.0,0.0,0.0,0.0,0.0,0.0,0.0,0.0,0.0,0.0,0.0,4.9001,4.934,5.0067,5.0828,5.1555,5.23,5.3112,5.3501,5.3501,5.3501,5.3416,5.3298,5.3382,5.328,5.3093,5.2938,5.2834,5.2694,5.2535,5.3602,5.5386,5.5831,5.7683,6.007,5.9717,6.0104,6.0593,3.497,0.0,0.0,0.0,0.0,0.0,0.0,0.0,0.0,0.0,3.9175,0.0,4.2455,0.0,4.4891,0.0,4.7208,4.6363,4.3301,4.3149,0.0,4.0646,3.8007,0.0,0.0,0.0,0.0,0.0,0.0,3.2077,3.1338,3.1338,3.1207,3.113,0.0,3.7263,4.0206,0.0,4.3792,0.0,0.0,4.4468,0.0,0.0,4.7192,4.8562,0.0,5.1185,5.1185,5.1185,5.0238,4.9224,5.0202,4.8511,4.635,4.7378,4.643,4.4891,4.4096,4.4773,0.0,4.0079,3.9623,0.0,3.465,0.0,0.0,0.0,0.0,0.0,0.0,0.0,3.3791,3.2648,3.2583,3.2229,0.0,3.1064,0.0,0.0,0.0,0.0,0.0,0.0,0.0,4.2303,4.2855,0.0,0.0,0.0,4.9221,4.9678,5.0693,5.1437,5.1911,5.2976,5.3501,5.3501,5.3501,5.3416,5.3314,5.3382,5.323,5.3007,5.2868,5.2879,5.3007,5.3166,5.4381,5.6136,5.6899,5.855,6.0447,6.0404,6.0538,6.0575,0.0,0.0,0.0,0.0,3.5272,0.0,0.0,0.0,3.647,0.0,3.9901,4.1195,4.3527,4.6333,4.8041,4.8041,4.9968,0.0,4.5055,4.6087,0.0,0.0,4.2811,4.3081,4.4682,0.0,0.0,0.0,0.0,0.0,3.2113,3.2143,3.1756,3.1083,3.2718,0.0,4.0028,4.1491,4.4688,4.8426,4.4914,4.4418,4.5771,4.5889,4.7259,4.9306,5.0794,5.1319,5.1319,5.1319,5.1319,5.1319,5.1252,5.1236,5.1236,5.1202,5.071,4.9695,4.7581,4.6481,4.5213,4.2219,0.0,0.0,0.0,0.0,3.704,0.0,0.0,0.0,0.0,0.0,0.0,3.4146,3.3557,3.2767,3.1345,0.0,0.0,0.0,0.0,0.0,0.0,0.0,3.3431,3.8674,3.974,4.1517,0.0,0.0,4.8849,4.9001,5.0439,5.1185,5.1185,5.2739,5.3501,5.3501,5.3501,5.3501,5.3501,5.3298,5.3213,5.3179,5.2799,5.304,5.3761,5.4465,5.5599,5.7111,5.8712,5.9891,6.0585,5.996,5.9216,5.851,3.6628,3.6908,3.7028,0.0,3.6145,3.5654,0.0,0.0,0.0,0.0,4.3345,4.4908,4.8768,4.9898,5.034,5.034,5.0847,0.0,0.0,0.0,0.0,4.6756,4.4406,4.4096,4.6177,4.1288,0.0,3.7618,0.0,0.0,3.2269,3.2757,3.2319,3.1235,0.0,0.0,3.7743,3.9208,4.1779,4.4829,4.5043,4.5686,0.0,0.0,4.9661,5.0845,5.2367,5.2926,5.2926,5.2926,5.2926,5.2824,5.2215,5.2029,5.1911,5.1369,5.1082,5.0794,5.0236,4.9526,4.8376,4.5974,4.4519,4.3037,0.0,0.0,0.0,0.0,0.0,0.0,0.0,0.0,0.0,0.0,3.2343,0.0,0.0,0.0,0.0,0.0,0.0,0.0,0.0,0.0,3.635,3.9929,4.0561,4.2865,0.0,0.0,0.0,4.8934,5.0439,5.1185,5.1185,5.2739,5.3501,5.3501,5.3501,5.3501,5.3501,5.3467,5.3348,5.3179,5.2938,5.3146,5.369,5.3745,5.5331,5.7773,5.8337,5.9852,6.1625,6.1453,6.0883,6.0104,3.7376,0.0,0.0,3.7786,0.0,0.0,3.8552,0.0,0.0,4.3972,4.4874,0.0,4.9864,5.1437,5.2215,5.2215,5.2215,0.0,0.0,0.0,0.0,4.8443,4.7365,4.7428,4.8697,4.457,0.0,4.0282,0.0,0.0,3.3275,3.3668,3.3225,3.2239,0.0,3.5707,0.0,4.1424,4.3487,4.4587,4.6413,0.0,0.0,4.9627,5.098,5.2334,5.3196,5.3501,5.3501,5.3501,5.3501,5.3416,5.2976,5.2824,5.2739,5.2334,5.1961,5.1691,5.1691,5.115,5.0287,4.9035,4.7851,4.6413,4.4164,4.3348,4.277,0.0,0.0,0.0,0.0,0.0,0.0,0.0,0.0,0.0,0.0,0.0,0.0,0.0,0.0,0.0,0.0,0.0,3.5368,3.7974,3.8431,4.0087,0.0,0.0,0.0,4.7496,4.9306,5.0557,5.1185,5.208,5.2841,5.3501,5.3501,5.3501,5.3501,5.3416,5.3314,5.3212,5.3342,5.3684,5.4278,5.5259,5.6781,5.8569,5.947,6.0699,6.1913,6.1996,6.1471,6.0756,0.0,0.0,0.0,0.0,0.0,0.0,0.0,4.0223,0.0,4.4767,0.0,4.7276,4.9492,5.2164,5.3788,5.3788,0.0,5.2909,5.0811,5.1894,5.1708,4.9678,5.0727,5.132,5.132,4.846,0.0,0.0,0.0,0.0,3.4641,3.4641,3.4201,3.344,0.0,0.0,0.0,4.4925,4.6616,0.0,4.8206,4.9526,5.0118,5.0422,5.1775,5.3501,5.3501,5.3501,5.3501,5.3501,5.3501,5.3501,5.3501,5.3501,5.3501,5.3501,5.301,5.2469,5.2469,5.1911,5.132,5.132,5.0794,4.9729,4.78,4.6802,4.5691,4.3569,4.308,4.289,0.0,0.0,0.0,0.0,0.0,0.0,0.0,0.0,0.0,0.0,0.0,0.0,0.0,0.0,3.2967,3.505,3.5154,0.0,0.0,0.0,0.0,4.6092,4.8189,0.0,5.0913,0.0,5.208,5.3213,5.3416,5.3501,5.3501,5.3298,5.3213,5.3229,5.3779,5.4303,5.5001,5.7376,5.8748,5.9476,6.1151,6.1802,6.183,6.1941,6.1543,6.0955,0.0,0.0,0.0,0.0,0.0,4.3656,4.5534,4.4976,4.55,4.8697,4.9779,5.1116,5.3365,5.4634,5.5327,5.5327,5.5327,0.0,0.0,0.0,0.0,5.2756,5.2334,5.2114,5.2114,4.9238,4.6633,0.0,0.0,0.0,3.5397,3.5397,3.4687,3.3491,0.0,0.0,4.0916,4.2574,0.0,4.5957,4.8765,4.9965,5.0304,5.2181,5.3162,5.3501,5.3501,5.3501,5.3501,5.3501,5.3501,5.3501,5.3501,5.3501,5.3501,5.3501,5.3399,5.3298,5.3298,5.2706,5.2114,5.2114,5.1555,5.093,5.0541,4.9864,4.9204,4.8785,4.821,4.7246,4.5392,0.0,0.0,0.0,0.0,0.0,0.0,0.0,0.0,0.0,0.0,0.0,0.0,0.0,0.0,0.0,0.0,0.0,0.0,0.0,0.0,0.0,0.0,0.0,0.0,0.0,5.2604,5.164,5.2909,5.3501,5.3501,5.3467,5.3348,5.3229,5.376,5.4283,5.4928,5.6519,5.8467,6.0524,6.1448,6.1858,6.195,6.1858,6.1823,6.167,0.0,0.0,0.0,0.0,0.0,0.0,0.0,5.0118,0.0,5.0693,5.1319,5.2198,5.3281,5.4786,5.5681,5.5681,5.5681,5.5564,5.5192,5.4803,5.4431,5.4093,5.3331,0.0,5.2926,5.1133,4.8545,4.5162,0.0,0.0,3.6783,3.6783,3.6394,3.5859,0.0,4.0426,0.0,0.0,0.0,4.8206,5.0811,5.186,5.1978,5.3078,5.3501,5.3501,5.3501,5.3501,5.3501,5.3501,5.3501,5.3501,5.3501,5.3501,5.3501,5.3501,5.3501,5.3501,5.3501,5.323,5.2926,5.2926,5.235,5.1775,5.1775,5.12,5.0676,5.0676,5.0084,4.8781,4.6177,4.2578,0.0,0.0,0.0,0.0,0.0,0.0,0.0,0.0,0.0,0.0,0.0,0.0,0.0,0.0,0.0,0.0,0.0,0.0,0.0,0.0,0.0,0.0,0.0,0.0,0.0,5.2418,5.3162,5.3501,5.3501,5.3501,5.367,5.3956,5.4488,5.5301,5.6348,5.8112,5.9862,6.1412,6.1766,6.1941,6.1996,6.1941,6.1941,6.1924,0.0,4.079,0.0,0.0,4.6553,0.0,5.1116,5.4008,5.504,5.2503,5.2807,5.3264,5.3264,5.5006,5.619,5.619,5.619,5.6105,5.5953,5.5395,5.4989,5.4837,5.4126,5.3737,5.3737,5.2959,5.0608,0.0,0.0,0.0,0.0,3.8193,0.0,0.0,0.0,0.0,0.0,0.0,5.0371,5.098,5.2773,5.3501,5.3501,5.3501,5.3501,5.3501,5.3501,5.3501,5.3501,5.3501,5.3501,5.3501,5.3501,5.3501,5.3501,5.3501,5.3501,5.3501,5.3501,5.3501,5.3501,5.3501,5.3027,5.2553,5.2553,5.1978,5.1454,5.1454,5.0727,4.9238,4.6447,4.4249,0.0,0.0,0.0,0.0,0.0,0.0,0.0,0.0,0.0,0.0,0.0,0.0,0.0,0.0,0.0,0.0,0.0,0.0,0.0,0.0,0.0,4.9294,5.0033,0.0,5.2357,0.0,5.3564,5.3717,5.3717,5.372,5.4008,5.4565,5.5301,5.6538,5.8097,5.992,6.1192,6.1996,6.1996,6.1996,6.1996,6.1996,6.1996,6.1996,0.0,0.0,0.0,0.0,0.0,0.0,0.0,5.4769,5.6359,5.5377,5.5936,5.6376,5.6376,5.7154,5.7679,5.7679,5.7679,5.7408,5.6748,5.663,5.6308,5.5649,5.4888,5.4482,5.4482,5.3771,5.2164,0.0,0.0,0.0,0.0,0.0,0.0,0.0,0.0,0.0,0.0,4.9881,5.1285,5.3196,5.3416,5.3501,5.3501,5.3501,5.3501,5.3501,5.3501,5.3501,5.3501,5.3501,5.3501,5.3501,5.3501,5.3501,5.3501,5.3501,5.3501,5.3501,5.3501,5.3501,5.3501,5.3501,5.345,5.3399,5.3399,5.2773,5.2198,5.2198,5.1082,4.939,4.7107,4.5974,4.4666,0.0,0.0,0.0,0.0,0.0,0.0,0.0,0.0,0.0,0.0,0.0,0.0,0.0,0.0,0.0,0.0,0.0,0.0,4.5602,0.0,4.7917,4.6227,5.1575,0.0,5.252,5.3856,5.4513,5.4516,5.4498,5.4429,5.4425,5.5787,5.7602,5.9569,6.0366,6.1203,6.1996,6.1996,6.1996,6.1996,6.1996,6.1996,6.1996,0.0,0.0,0.0,0.0,0.0,0.0,0.0,5.6393,5.734,5.7053,5.7273,5.7459,5.7459,5.7712,5.7881,5.7881,5.7881,5.7763,5.7476,5.7053,5.6681,5.6376,5.5666,5.5057,5.46,5.4296,5.2824,0.0,0.0,0.0,0.0,0.0,0.0,0.0,0.0,4.8122,5.0185,5.1555,5.2672,5.3501,5.3501,5.3501,5.3501,5.3501,5.3501,5.3501,5.3501,5.3501,5.3501,5.3501,5.3501,5.3501,5.3501,5.3501,5.3501,5.3501,5.3501,5.3501,5.3501,5.3501,5.3501,5.3501,5.3501,5.3501,5.3501,5.3247,5.3027,5.3027,5.2164,5.1014,4.9695,4.775,4.6469,0.0,0.0,0.0,0.0,0.0,0.0,0.0,0.0,0.0,0.0,0.0,0.0,0.0,0.0,0.0,0.0,0.0,0.0,4.4265,0.0,4.9607,4.834,5.2511,5.4491,5.425,5.4509,5.4787,5.5127,5.477,5.4969,5.5722,5.7724,5.9019,5.9803,6.0998,6.1692,6.1996,6.1996,6.1996,6.1996,6.1996,6.1996,6.1996,5.0202,0.0,5.0557,0.0,5.3873,5.4566,5.6782,5.756,5.7881,5.7881,5.7881,5.7881,5.7881,5.7881,5.7881,5.7881,5.7881,5.7881,5.7881,5.7408,5.712,5.712,5.6427,0.0,5.526,5.5023,5.3771,5.1403,4.9187,0.0,0.0,0.0,0.0,0.0,4.939,5.0456,5.12,5.2824,5.3501,5.3501,5.3501,5.3636,5.3822,5.3822,5.3957,5.416,5.416,5.416,5.4126,5.3907,5.3822,5.3788,5.3568,5.3501,5.3501,5.3501,5.3501,5.3501,5.3501,5.3501,5.3501,5.3501,5.3501,5.3501,5.3501,5.3501,5.3501,5.3501,5.2858,5.2147,5.164,4.9644,4.8325,4.9018,0.0,0.0,0.0,0.0,0.0,0.0,0.0,4.0695,4.0781,0.0,0.0,0.0,0.0,0.0,0.0,0.0,0.0,0.0,0.0,0.0,0.0,5.3533,5.5443,5.5805,5.5179,5.5174,5.5767,5.5312,5.5567,5.6442,5.8494,5.9236,5.9074,6.0529,6.1126,6.1126,6.1126,6.1154,6.1181,6.1181,6.1236,6.1272,5.301,5.2232,5.2587,5.7036,5.6021,5.5327,5.7543,5.7881,5.7881,5.7881,5.7881,5.7881,5.7881,5.7881,5.7881,5.7881,5.7881,5.7881,5.7881,5.7881,5.7881,0.0,0.0,5.6782,5.6765,5.6072,5.531,5.4532,0.0,0.0,4.9965,0.0,4.7936,5.005,5.0084,5.1352,5.3467,5.3501,5.3501,5.3501,5.3501,5.394,5.4583,5.4583,5.504,5.5683,5.5683,5.5683,5.5581,5.482,5.4583,5.4448,5.3737,5.3501,5.3501,5.3501,5.3501,5.3501,5.3501,5.3501,5.3501,5.3501,5.3501,5.3501,5.3501,5.3501,5.3501,5.3501,5.2858,5.23,5.2283,5.1674,5.0219,4.731,0.0,0.0,0.0,0.0,0.0,0.0,4.2347,4.146,4.3179,0.0,0.0,0.0,0.0,0.0,0.0,0.0,0.0,4.6697,4.9458,0.0,5.0118,5.4608,5.6731,5.6483,5.5816,5.5801,5.6395,5.6385,5.6218,5.5979,5.7412,5.7724,5.7328,5.8537,5.9046,5.9046,5.9046,5.9111,5.9249,5.9249,5.9394,5.9633,5.6359,5.6511,5.6985,5.8406,5.849,5.8592,5.9285,5.9404,5.9404,5.9404,5.9404,5.9404,5.9404,5.849,5.7881,0.0,5.7881,5.7881,0.0,5.7881,5.7881,5.7881,5.7679,5.7306,5.6816,5.6579,5.6089,5.5361,0.0,0.0,0.0,5.0135,5.0744,5.2418,5.2418,5.2824,5.3534,5.4042,5.4245,5.4296,5.4803,5.5158,5.5361,5.5361,5.5513,5.5681,5.5681,5.5681,5.5647,5.5446,5.5023,5.4549,5.4313,5.3907,5.3501,5.3501,5.3501,5.3501,5.3501,5.3501,5.3501,5.3501,5.3501,5.3501,5.3501,5.3501,5.3501,5.3501,5.3298,5.3129,5.3129,5.2486,5.164,5.0693,5.0727,0.0,0.0,0.0,0.0,0.0,4.0905,4.028,0.0,4.0331,0.0,0.0,0.0,0.0,0.0,0.0,0.0,0.0,5.0615,0.0,5.2423,5.5407,5.7033,5.7245,5.7173,5.7448,5.8022,5.7939,5.8185,5.8733,5.9549,5.9795,5.9716,6.0472,6.0822,6.0906,6.0906,6.0989,6.1055,6.0494,6.035,6.0357,5.8727,5.9099,5.9421,5.9421,5.9793,6.0097,6.0097,6.0097,6.0097,6.0097,6.0097,6.0097,6.0097,5.9268,0.0,5.8338,5.8304,5.8203,5.7898,5.7881,5.7881,5.7881,5.7881,5.7679,5.7222,0.0,0.0,5.6122,5.4414,5.3348,5.2875,5.2875,5.3382,5.4346,5.4346,5.4346,5.4363,5.482,5.5006,5.5057,5.553,5.5886,5.6122,5.6122,5.6292,5.6528,5.6528,5.6528,5.6494,5.6224,5.5818,5.5378,5.5091,5.4515,5.3856,5.3585,5.3501,5.3501,5.3501,5.3501,5.3501,5.3501,5.3501,5.3501,5.3501,5.3501,5.3501,5.3501,5.3501,5.3501,5.3501,5.3095,5.2655,5.235,5.1911,5.1082,4.9492,0.0,0.0,0.0,0.0,0.0,0.0,4.3482,0.0,0.0,0.0,0.0,0.0,0.0,0.0,4.9243,5.287,0.0,5.4773,5.6472,5.7422,5.7605,5.7977,5.829,5.851,5.8841,5.9065,5.928,5.9882,6.0001,5.9864,6.0404,6.0678,6.0734,6.0734,6.0817,6.0883,6.0377,6.025,6.0285,6.0097,6.0148,0.0,0.0,6.0233,0.0,6.0266,6.0266,6.0266,6.0266,6.0266,6.0266,6.0266,6.0266,5.9962,5.9235,0.0,0.0,0.0,5.7915,5.7881,5.7881,5.7881,5.7881,5.7881,5.7881,5.756,5.6884,5.6207,5.5852,5.5801,5.5801,5.5732,5.5681,5.5681,5.5681,5.5681,5.5732,5.5801,5.5801,5.5852,5.6275,5.6884,5.6884,5.7289,5.7881,5.7881,5.7881,5.778,5.7103,5.685,5.6645,5.5969,5.5242,5.4481,5.3754,5.3551,5.3501,5.3467,5.3501,5.3501,5.3501,5.3501,5.3501,5.3501,5.3501,5.3501,5.3501,5.3501,5.3501,5.3501,5.3501,5.3264,5.252,5.2249,5.1183,4.8362,0.0,0.0,0.0,0.0,0.0,0.0,4.8309,4.9065,0.0,0.0,0.0,0.0,0.0,4.9261,5.3592,5.5775,5.6938,5.6964,5.7691,5.8002,5.7863,5.8416,5.8523,5.8213,5.9153,5.9053,5.8196,5.8738,5.872,5.8355,5.8795,5.8954,5.8982,5.8982,5.9048,5.9185,5.9132,5.9285,5.9524,0.0,0.0,6.1028,6.1028,6.1484,6.1856,6.1856,6.1856,6.1856,6.1856,6.1856,6.1856,6.1856,6.1856,6.1552,6.0825,5.9691,5.8947,5.8761,5.8203,5.7881,5.7881,5.7881,5.7881,5.7881,5.7881,5.7797,5.7628,5.7459,5.7087,5.6545,5.6545,5.6241,5.5681,5.5681,5.5681,5.575,5.6308,5.6545,5.6596,5.7154,5.7476,5.7628,5.7628,5.7746,5.7881,5.7881,5.7881,5.7865,5.7695,5.7147,5.6549,5.656,5.5825,5.4871,5.4272,5.3838,5.3467,5.3298,5.3382,5.3501,5.3501,5.3501,5.3501,5.3501,5.3501,5.3501,5.3501,5.3501,5.3501,5.3501,5.3501,5.345,5.3247,5.1758,5.0168,4.8934,4.7293,0.0,0.0,4.4615,4.5535,4.7916,4.7992,4.8182,0.0,0.0,0.0,0.0,5.122,5.3182,5.6,5.6623,5.7159,5.7726,5.8414,5.9298,6.0334,5.972,5.9637,5.9965,5.9443,5.9443,5.9777,5.897,5.9013,5.9581,5.8779,5.8519,5.8634,5.8634,5.8862,5.9114,5.8411,5.8376,5.8575,6.1146,6.1501,6.1789,6.1789,6.2127,6.2381,6.2381,6.2381,6.2381,6.2381,6.2381,6.2381,6.2381,6.2381,6.2229,6.1839,6.074,5.9759,5.9066,5.8626,5.8254,5.7898,5.7881,5.7881,5.7881,5.7881,5.7881,5.7881,5.7881,5.7695,5.7289,5.7289,5.7087,5.6714,5.6714,5.6714,5.6731,5.712,5.7289,5.734,5.7729,5.7881,5.7881,5.7881,5.7881,5.7881,5.7881,5.7881,5.7881,5.7881,5.7519,5.7035,5.7108,5.6511,5.5657,5.5291,5.4559,5.3787,5.3433,5.3433,5.3501,5.3501,5.3501,5.3501,5.3501,5.3501,5.3501,5.3501,5.3501,5.3501,5.3501,5.3501,5.3501,5.3501,5.1589,4.9949,4.956,4.7597,0.0,4.7052,4.712,4.8133,5.071,5.0643,5.0597,5.0933,0.0,0.0,5.1576,5.3435,5.4901,5.5819,5.685,5.7582,5.7946,5.8957,6.0044,6.1186,6.0578,6.0633,6.1199,6.0168,5.9938,6.0354,5.968,5.9406,5.9441,5.932,5.8984,5.8588,5.8588,5.8862,5.9132,5.8618,5.8619,5.8786,6.2381,6.2381,6.2381,6.2381,6.2381,6.2381,6.2381,6.2381,6.2381,6.2381,6.2381,6.2381,6.2381,6.2381,6.2381,6.2381,6.1823,6.0858,5.9455,5.9252,5.8846,5.8101,5.8068,5.8,5.7881,5.7881,5.7881,5.7845,5.7881,5.7881,5.7881,5.7881,5.7881,5.7881,5.7881,5.7881,5.7881,5.7881,5.7881,5.7881,5.7881,5.7881,5.7881,5.7881,5.7881,5.7881,5.7881,5.7881,5.7881,5.7881,5.7772,5.7588,5.7588,5.713,5.6536,5.6325,5.5475,5.4458,5.3804,5.3551,5.3501,5.3501,5.3501,5.3501,5.3501,5.3501,5.3501,5.3501,5.3501,5.3501,5.3501,5.3501,5.3399,5.3044,5.1082,4.9593,4.9593,0.0,4.7614,4.983,5.0388,5.1639,5.4184,5.3848,5.375,5.4405,5.4544,5.4558,0.0,5.5232,5.5432,5.4793,5.6865,5.8111,5.8385,5.9553,6.0557,6.1342,6.1248,6.1376,6.1751,6.0817,6.0318,6.0164,6.0011,5.9494,5.8795,5.9458,5.924,5.846,5.8324,5.8486,5.8771,5.8771,5.888,5.9042,6.2381,6.2381,6.2381,6.2381,6.2381,6.2381,6.2381,6.2381,6.2381,6.2381,6.2381,6.2381,6.2381,6.2381,6.2381,6.2381,6.2279,6.1856,6.1011,6.0317,5.9607,5.8879,5.8846,5.8541,5.7898,5.7881,5.7808,5.7662,5.7808,5.7881,5.7881,5.7881,5.7881,5.7881,5.7881,5.7881,5.7881,5.7881,5.7881,5.7881,5.7881,5.7881,5.7881,5.7881,5.7881,5.7881,5.7881,5.7881,5.7881,5.7881,5.7772,5.7588,5.7588,5.7281,5.6855,5.6549,5.6197,5.5655,5.4473,5.3838,5.3501,5.3501,5.3501,5.3501,5.3501,5.3501,5.3501,5.3501,5.3501,5.3501,5.3501,5.3501,5.2875,5.093,4.8748,4.7293,4.7293,0.0,4.7614,4.983,5.1792,5.3178,5.3634,5.3568,5.3568,5.3668,5.4232,5.4328,5.3684,5.4969,5.5678,5.5636,5.712,5.875,6.0499,6.0859,6.1357,6.203,6.2023,6.158,6.0811,6.0537,5.9975,5.9153,5.8203,5.8221,5.8818,5.7249,5.6968,5.7434,5.6635,5.6545,5.684,5.684,5.7065,5.7363,6.2381,6.2381,6.2381,6.2381,6.2381,6.2381,6.2381,6.2381,6.2381,6.2381,6.2381,6.2381,6.2381,6.2381,6.2381,6.2381,6.2381,6.2245,6.1907,6.118,6.0402,5.9641,5.9106,5.8437,5.7604,5.7698,5.7698,5.7588,5.7808,5.7881,5.7881,5.7881,5.7881,5.7881,5.7881,5.7881,5.7881,5.7881,5.7881,5.7881,5.7881,5.7881,5.7881,5.7881,5.7881,5.7881,5.7881,5.7881,5.7881,5.7881,5.7772,5.7588,5.7588,5.7402,5.7147,5.711,5.6169,5.5058,5.4596,5.3837,5.3195,5.3314,5.328,5.3212,5.3314,5.3348,5.3382,5.3467,5.3501,5.3501,5.3501,5.3501,5.2756,5.0456,4.9238,0.0,0.0,4.8562,4.9407,5.1657,5.2858,5.3501,5.3501,5.3501,5.3668,5.4042,5.4405,5.478,5.5199,5.5881,5.6411,5.6794,5.8281,5.9763,6.1211,6.1493,6.1813,6.2203,6.2141,6.1833,6.1317,6.0681,6.0146,5.9713,5.8665,5.8177,5.806,5.7598,5.7075,5.6535,5.6549,5.6507,5.6401,5.6318,5.6546,5.6873,6.2381,6.2381,6.2381,6.2381,6.2381,6.2381,6.2381,6.2381,6.2381,6.2381,6.2381,6.2381,6.2381,6.2381,6.2381,6.2381,6.2381,6.2381,6.2381,6.1873,6.1158,6.0326,5.9224,5.8278,5.7482,5.756,5.7588,5.7514,5.7772,5.7881,5.7881,5.7881,5.7881,5.7881,5.7881,5.7881,5.7808,5.7808,5.7808,5.7808,5.7808,5.7845,5.7881,5.7881,5.7881,5.7881,5.7881,5.7881,5.7881,5.7881,5.7808,5.7662,5.7551,5.7439,5.7327,5.7439,5.613,5.4638,5.4512,5.3851,5.319,5.3161,5.3007,5.2938,5.311,5.3161,5.3264,5.3382,5.3467,5.3501,5.3501,5.3501,5.2756,5.0456,0.0,0.0,0.0,5.0084,5.0947,5.323,5.3501,5.3568,5.3701,5.3701,5.4011,5.473,5.4948,5.5493,5.6599,5.684,5.7328,5.8229,5.9458,6.0566,6.1562,6.1886,6.2087,6.215,6.206,6.1996,6.196,6.1143,6.0636,6.041,5.9669,5.8729,5.7715,5.8228,5.7687,5.6553,5.6744,5.6727,5.6577,5.6306,5.6428,5.6707,6.2381,6.2381,6.2381,6.2381,6.2381,6.2381,6.2381,6.2381,6.2381,6.2381,6.2381,6.2381,6.2381,6.2381,6.2381,6.2381,6.2381,6.2381,6.2381,6.233,6.188,6.0869,5.9281,5.8301,5.8058,5.7754,5.7514,5.7327,5.7698,5.7881,5.7881,5.7881,5.7881,5.7881,5.7881,5.7808,5.7625,5.7625,5.7625,5.7625,5.7625,5.7735,5.7881,5.7881,5.7881,5.7881,5.7881,5.7881,5.7881,5.7881,5.7881,5.7808,5.7439,5.7327,5.7252,5.7101,5.6442,5.5545,5.4357,5.4132,5.3984,5.3157,5.2903,5.2903,5.2903,5.3076,5.3213,5.3213,5.3382,5.3501,5.3501,5.3501,5.2756,5.0456,0.0,0.0,5.0084,5.0084,5.0947,5.323,5.3501,5.3734,5.4281,5.4328,5.461,5.5296,5.5969,5.642,5.6503,5.7218,5.8337,5.9874,6.0049,6.0753,6.2139,6.2167,6.2141,6.2005,6.1978,6.1996,6.1996,6.1924,6.1407,6.0566,6.0512,5.986,5.8811,5.7991,5.8006,5.8324,5.6652,5.6482,5.715,5.6446,5.629,5.6455,6.2381,6.2381,6.2341,6.2189,6.2133,6.2133,6.2133,6.2133,6.2189,6.2381,6.2381,6.2381,6.2381,6.2381,6.2381,6.2381,6.2381,6.2381,6.2381,6.2229,6.1733,6.074,5.9973,5.9075,5.7924,5.7897,5.772,5.7289,5.7588,5.7772,5.7881,5.7881,5.7845,5.7698,5.7698,5.7588,5.7402,5.7402,5.7402,5.7439,5.7551,5.7662,5.7735,5.7845,5.7881,5.7881,5.7881,5.7881,5.7881,5.7881,5.7808,5.7698,5.7551,5.7327,5.7063,5.6872,5.6787,5.6521,5.5334,5.4719,5.4259,5.358,5.329,5.3138,5.2794,5.2764,5.2903,5.3144,5.3264,5.3348,5.3467,5.3382,5.2589,5.0456,0.0,5.156,5.0287,5.1319,5.2536,5.3399,5.3501,5.3717,5.4328,5.4391,5.5061,5.6702,5.7089,5.7818,5.9201,5.997,6.0685,6.1371,6.1417,6.1643,6.2185,6.2114,6.206,6.1996,6.1996,6.1996,6.1996,6.1996,6.1806,6.1425,6.0837,6.0376,5.9896,5.8737,5.8195,5.7989,5.7637,5.7135,5.6641,5.6819,5.6738,5.6519,6.2167,6.2246,6.2206,6.1934,6.1934,6.1934,6.1934,6.1957,6.2093,6.2246,6.2341,6.2381,6.2381,6.2381,6.2381,6.2381,6.2325,6.2285,6.2285,6.1974,6.1538,6.0893,6.0458,5.9674,5.8518,5.8218,5.7969,5.7641,5.7631,5.7662,5.7808,5.7808,5.7698,5.7514,5.7514,5.7402,5.7214,5.7214,5.7214,5.7214,5.7364,5.7476,5.7625,5.7735,5.7845,5.7881,5.7881,5.7881,5.7881,5.7808,5.7698,5.7588,5.7439,5.7176,5.6872,5.6796,5.6949,5.6946,5.6236,5.5625,5.5011,5.4143,5.3838,5.3566,5.2997,5.2938,5.3048,5.3092,5.3144,5.3264,5.3382,5.323,5.264,5.1289,5.2286,5.2708,5.1255,5.2436,5.3433,5.3433,5.3433,5.3769,5.4672,5.4925,5.5867,5.784,5.8393,5.9439,6.1225,6.1743,6.2033,6.2123,6.2141,6.2141,6.2141,6.2087,6.2033,6.1996,6.1996,6.1996,6.1996,6.1996,6.1996,6.196,6.1317,6.0855,6.0475,5.9593,5.8716,5.7896,5.801,5.759,5.6908,5.6812,5.685,5.6859,6.175,6.1854,6.1917,6.175,6.1709,6.1709,6.1709,6.1854,6.1997,6.1997,6.2246,6.2381,6.2381,6.2381,6.2381,6.2381,6.2133,6.1997,6.1997,6.1611,6.1383,6.1383,6.0513,6.0009,6.0009,5.875,5.8236,5.8411,5.7883,5.7604,5.7604,5.7588,5.7476,5.7289,5.7289,5.7176,5.6987,5.6987,5.6987,5.6987,5.6987,5.7252,5.7588,5.7588,5.7735,5.7881,5.7898,5.7898,5.7862,5.7662,5.7588,5.7514,5.7139,5.6872,5.6719,5.6949,5.6872,5.6719,5.6949,5.6834,5.6332,5.4891,5.449,5.4345,5.3599,5.3723,5.3789,5.3071,5.3058,5.3195,5.3179,5.3041,5.2972,5.3179,5.3179,5.3179,5.3179,5.3179,5.3179,5.3195,5.3195,5.3822,5.5348,5.6094,5.7076,5.8492,5.9969,6.1145,6.1942,6.1996,6.1996,6.1996,6.1996,6.1996,6.1996,6.2123,6.2123,6.1996,6.1996,6.1996,6.1996,6.1996,6.1996,6.1996,6.1996,6.1407,6.0418,6.039,5.9652,5.8401,5.7493,5.7681,5.8276,5.6405,5.6507,5.7471,6.1709,6.175,6.175,6.1506,6.1506,6.1506,6.1506,6.1547,6.1611,6.1773,6.187,6.1927,6.1927,6.1927,6.1927,6.1927,6.183,6.1733,6.1588,6.1465,6.1318,6.1227,6.0929,6.0539,6.0009,5.9619,5.9362,5.9181,5.8368,5.8114,5.8362,5.7691,5.7289,5.7101,5.7101,5.6987,5.6796,5.6796,5.6796,5.6796,5.6949,5.7063,5.7176,5.7327,5.7514,5.7662,5.7514,5.7588,5.7662,5.7476,5.7289,5.7139,5.6872,5.6757,5.6719,5.6757,5.6757,5.6719,5.6757,5.6757,5.6465,5.5499,5.5251,5.5106,5.4509,5.4489,5.4381,5.3772,5.3727,5.3611,5.3056,5.2938,5.2972,5.3179,5.3179,5.3179,5.3179,5.3179,5.338,5.3902,5.3969,5.4533,5.594,5.6353,5.7115,5.8435,6.0036,6.1253,6.1978,6.1996,6.1996,6.1996,6.1996,6.1996,6.1996,6.2033,6.2033,6.1996,6.1996,6.1996,6.1996,6.1996,6.1996,6.1996,6.1996,6.1824,6.1443,6.069,6.019,5.9716,5.8523,5.7996,5.7861,5.7801,5.7715,5.766,6.1482,6.1523,6.1506,6.1318,6.1293,6.1293,6.1293,6.1359,6.1424,6.1547,6.1669,6.1709,6.1709,6.1709,6.1709,6.1709,6.1628,6.1523,6.1276,6.1293,6.121,6.1119,6.1102,6.0904,6.044,6.0158,5.994,5.981,5.8941,5.8503,5.8471,5.7866,5.7346,5.6872,5.6872,5.6796,5.668,5.668,5.668,5.6719,5.6834,5.6911,5.7025,5.7139,5.7327,5.7476,5.7327,5.7364,5.7439,5.7252,5.7063,5.6872,5.6719,5.668,5.668,5.668,5.668,5.668,5.668,5.668,5.6581,5.615,5.6072,5.6004,5.5384,5.5292,5.5185,5.4577,5.4391,5.4221,5.3857,5.3703,5.3738,5.4019,5.4054,5.4054,5.3949,5.3949,5.4117,5.4571,5.4638,5.5102,5.6388,5.6764,5.7623,5.9239,6.0642,6.1561,6.1978,6.1996,6.1996,6.1996,6.1996,6.1996,6.1996,6.1996,6.1996,6.1996,6.1996,6.1996,6.1996,6.1996,6.1996,6.1996,6.1996,6.1996,6.196,6.1307,6.0771,6.0336,5.9552,5.8759,5.8106,5.8524,5.8473,5.8226,6.1144,6.1252,6.1318,6.1144,6.1102,6.1102,6.1102,6.1252,6.1383,6.1383,6.1506,6.1645,6.1645,6.1645,6.1645,6.1645,6.1482,6.1293,6.1102,6.1102,6.1102,6.1102,6.1102,6.1102,6.1102,6.044,6.019,6.0417,5.9628,5.8929,5.8286,5.8219,5.7687,5.6779,5.6779,5.6746,5.668,5.668,5.668,5.668,5.668,5.6796,5.6987,5.6987,5.7101,5.7289,5.7252,5.7252,5.7252,5.7025,5.6834,5.668,5.668,5.668,5.668,5.668,5.668,5.668,5.668,5.668,5.668,5.6719,5.6872,5.6804,5.6171,5.6154,5.6101,5.5311,5.5052,5.4962,5.506,5.4951,5.4951,5.5347,5.5383,5.5312,5.5132,5.5096,5.513,5.5161,5.5161,5.5607,5.6708,5.7258,5.8416,6.0501,6.143,6.1923,6.1996,6.1996,6.1978,6.1978,6.1996,6.1996,6.1969,6.1996,6.1996,6.1996,6.1996,6.1996,6.1996,6.1996,6.1996,6.1996,6.1996,6.1996,6.1996,6.1996,6.1425,6.0536,6.0436,5.9783,5.8848,5.882,5.8923,5.9061,6.1102,6.1144,6.1144,6.1102,6.1102,6.1102,6.1102,6.1144,6.1186,6.1186,6.1227,6.1227,6.1227,6.1227,6.1227,6.1227,6.1186,6.1144,6.1102,6.1102,6.1102,6.1102,6.1102,6.1102,6.1102,6.0953,6.0978,6.115,6.0289,5.984,5.9801,5.9076,5.831,5.7558,5.7558,5.7227,5.668,5.668,5.668,5.668,5.668,5.6735,5.6757,5.6757,5.6872,5.7025,5.6872,5.6949,5.7025,5.6834,5.6719,5.668,5.668,5.668,5.668,5.668,5.668,5.668,5.668,5.668,5.6719,5.6911,5.6987,5.6954,5.6787,5.6905,5.6817,5.5896,5.582,5.5689,5.4979,5.4951,5.5132,5.5347,5.54,5.5345,5.5132,5.5096,5.5241,5.5679,5.5725,5.6029,5.6876,5.7688,5.8668,6.0044,6.0819,6.143,6.195,6.1996,6.1969,6.1858,6.1941,6.1913,6.169,6.1913,6.1996,6.1996,6.1996,6.1996,6.1996,6.1996,6.1996,6.1996,6.1996,6.1996,6.1996,6.1996,6.186,6.1561,6.0735,6.0254,6.0019,5.9842,5.9774,5.9784,6.1102,6.1102,6.1102,6.1102,6.1102,6.1102,6.1102,6.1102,6.1102,6.1102,6.1102,6.1102,6.1102,6.1102,6.1102,6.1102,6.1102,6.1102,6.1102,6.1102,6.1102,6.1102,6.1102,6.1102,6.1102,6.1102,6.1144,6.1252,6.0763,6.0382,6.0139,5.9636,5.9032,5.832,5.832,5.8104,5.7723,5.7359,5.721,5.7177,5.6829,5.668,5.668,5.668,5.6757,5.6834,5.6719,5.6757,5.6834,5.6719,5.668,5.668,5.668,5.668,5.668,5.668,5.668,5.668,5.668,5.6757,5.6834,5.6834,5.6987,5.7139,5.7139,5.7139,5.7039,5.6542,5.6421,5.6304,5.5921,5.5929,5.6097,5.639,5.6443,5.6387,5.6188,5.6134,5.6211,5.6387,5.6421,5.6742,5.7544,5.8806,5.98,6.0295,6.1045,6.1636,6.1978,6.1996,6.176,6.1243,6.1308,6.1253,6.1114,6.1197,6.1506,6.1996,6.1941,6.1941,6.1996,6.1941,6.1941,6.1996,6.1996,6.1996,6.1996,6.1996,6.1996,6.1942,6.1388,6.1088,6.0976,6.0929,6.0787,6.0639,6.1102,6.1102,6.1102,6.1102,6.1102,6.1102,6.1102,6.1102,6.1102,6.1102,6.1102,6.1102,6.1102,6.1102,6.1102,6.1102,6.1102,6.1102,6.1102,6.1102,6.1102,6.1102,6.1102,6.1102,6.1102,6.1102,6.1102,6.1102,6.1102,6.0804,6.0191,6.0191,5.9794,5.9082,5.9082,5.9015,5.885,5.8237,5.7988,5.7922,5.7309,5.6995,5.6879,5.6879,5.6796,5.668,5.668,5.668,5.668,5.668,5.668,5.668,5.668,5.668,5.668,5.668,5.668,5.6735,5.6719,5.6834,5.6911,5.6834,5.6987,5.7214,5.7252,5.7139,5.6987,5.6949,5.6834,5.6796,5.6987,5.6987,5.7139,5.7551,5.7681,5.7681,5.7497,5.7591,5.7574,5.7389,5.7351,5.7594,5.8213,5.9882,6.0849,6.0724,6.1487,6.1969,6.1996,6.1969,6.1579,6.08,6.0782,6.0737,6.0699,6.0644,6.1024,6.1868,6.1802,6.183,6.1969,6.1868,6.1886,6.1969,6.1996,6.1996,6.1996,6.1996,6.1996,6.1996,6.1996,6.184,6.1626,6.1746,6.1587,6.1386,6.1102,6.1102,6.1102,6.1102,6.1102,6.1102,6.1102,6.1102,6.1102,6.1102,6.1102,6.1102,6.1102,6.1102,6.1102,6.1102,6.1102,6.1102,6.1102,6.1102,6.1102,6.1102,6.1102,6.1102,6.1102,6.1102,6.1102,6.1102,6.1102,6.1053,6.0953,6.0953,6.0556,5.986,5.986,5.9496,5.8883,5.8784,5.875,5.8734,5.8634,5.822,5.7641,5.7641,5.7243,5.668,5.668,5.668,5.668,5.668,5.668,5.668,5.668,5.668,5.668,5.668,5.668,5.6719,5.6911,5.6834,5.6834,5.7139,5.6987,5.6834,5.6987,5.7025,5.6949,5.6757,5.6872,5.6987,5.6987,5.6987,5.7139,5.7551,5.7942,5.823,5.8263,5.8737,5.9044,5.8857,5.8823,5.8634,5.8157,5.9594,6.0626,6.0782,6.1437,6.1886,6.1996,6.1774,6.1597,6.1472,6.1472,6.1329,6.1021,6.13,6.1422,6.1415,6.1548,6.169,6.183,6.1941,6.1913,6.183,6.1941,6.1996,6.1996,6.1996,6.1996,6.1996,6.1996,6.1913,6.1774,6.1662,6.1605,6.1548,6.1102,6.1102,6.1102,6.1102,6.1102,6.1102,6.1102,6.1102,6.1102,6.1102,6.1102,6.1102,6.1102,6.1102,6.1102,6.1102,6.1102,6.1102,6.1102,6.1102,6.1102,6.1102,6.1102,6.1102,6.1102,6.1102,6.1102,6.1102,6.1102,6.1102,6.1102,6.1102,6.0937,6.0622,6.0622,6.044,6.0109,5.9694,5.9512,5.9479,5.9065,5.8701,5.8403,5.8403,5.8204,5.7873,5.7458,5.7044,5.668,5.668,5.668,5.668,5.668,5.668,5.668,5.668,5.668,5.6719,5.6796,5.6834,5.6872,5.6949,5.6911,5.6872,5.6834,5.6834,5.6796,5.6719,5.6757,5.6834,5.6834,5.6834,5.6949,5.7364,5.7925,5.8319,5.8405,5.8977,5.9346,5.9111,5.9559,5.9788,5.9462,6.0516,6.1245,6.135,6.17,6.1913,6.1886,6.1858,6.1502,6.078,6.0865,6.0809,6.0543,6.0608,6.0927,6.1462,6.1444,6.1559,6.1802,6.1774,6.183,6.1913,6.1913,6.1886,6.1868,6.1969,6.1969,6.1913,6.1969,6.1969,6.1968,6.2279,6.2115,6.169]}]]